<?xml version="1.0" encoding="UTF-8" standalone="no" ?>
<gpx xmlns="http://www.topografix.com/GPX/1/1" xmlns:xsi="http://www.w3.org/2001/XMLSchema-instance" xsi:schemaLocation="http://www.topografix.com/GPX/1/1 http://www.topografix.com/GPX/1/1/gpx.xsd" version="1.1" creator="VisuGPX - https://www.visugpx.com">
  <metadata>
    <name>circuit bonnieux - vaucluse GPX</name>
  </metadata>
  <trk>
    <name><![CDATA[circuit bonnieux - vaucluse GPX]]></name>
    <trkseg>
      <trkpt lat="43.82009" lon="5.30939">
        <ele>344.9</ele>
        <time>2015-02-08T08:39:15Z</time>
      </trkpt>
      <trkpt lat="43.82009" lon="5.30939">
        <ele>344.9</ele>
        <time>2015-02-08T08:39:16Z</time>
      </trkpt>
      <trkpt lat="43.82017" lon="5.30925">
        <ele>343.7</ele>
        <time>2015-02-08T08:41:28Z</time>
      </trkpt>
      <trkpt lat="43.82024" lon="5.30916">
        <ele>343.4</ele>
        <time>2015-02-08T08:41:36Z</time>
      </trkpt>
      <trkpt lat="43.82033" lon="5.30911">
        <ele>342.7</ele>
        <time>2015-02-08T08:41:59Z</time>
      </trkpt>
      <trkpt lat="43.82041" lon="5.30903">
        <ele>342.5</ele>
        <time>2015-02-08T08:42:07Z</time>
      </trkpt>
      <trkpt lat="43.8205" lon="5.30898">
        <ele>342.3</ele>
        <time>2015-02-08T08:42:13Z</time>
      </trkpt>
      <trkpt lat="43.82059" lon="5.30895">
        <ele>342.1</ele>
        <time>2015-02-08T08:42:20Z</time>
      </trkpt>
      <trkpt lat="43.82068" lon="5.30889">
        <ele>341.9</ele>
        <time>2015-02-08T08:42:27Z</time>
      </trkpt>
      <trkpt lat="43.82059" lon="5.30882">
        <ele>341.5</ele>
        <time>2015-02-08T08:42:36Z</time>
      </trkpt>
      <trkpt lat="43.8205" lon="5.30882">
        <ele>341.2</ele>
        <time>2015-02-08T08:42:42Z</time>
      </trkpt>
      <trkpt lat="43.82041" lon="5.30877">
        <ele>340.7</ele>
        <time>2015-02-08T08:42:49Z</time>
      </trkpt>
      <trkpt lat="43.82033" lon="5.30871">
        <ele>340.1</ele>
        <time>2015-02-08T08:42:56Z</time>
      </trkpt>
      <trkpt lat="43.82025" lon="5.30864">
        <ele>339</ele>
        <time>2015-02-08T08:43:28Z</time>
      </trkpt>
      <trkpt lat="43.82017" lon="5.30857">
        <ele>339.1</ele>
        <time>2015-02-08T08:43:59Z</time>
      </trkpt>
      <trkpt lat="43.82011" lon="5.30846">
        <ele>339.6</ele>
        <time>2015-02-08T08:44:08Z</time>
      </trkpt>
      <trkpt lat="43.82008" lon="5.30833">
        <ele>340.6</ele>
        <time>2015-02-08T08:44:16Z</time>
      </trkpt>
      <trkpt lat="43.82008" lon="5.30819">
        <ele>341.7</ele>
        <time>2015-02-08T08:44:23Z</time>
      </trkpt>
      <trkpt lat="43.82005" lon="5.30806">
        <ele>344.9</ele>
        <time>2015-02-08T08:45:30Z</time>
      </trkpt>
      <trkpt lat="43.81999" lon="5.30793">
        <ele>345.2</ele>
        <time>2015-02-08T08:45:42Z</time>
      </trkpt>
      <trkpt lat="43.82003" lon="5.30783">
        <ele>346.3</ele>
        <time>2015-02-08T08:46:48Z</time>
      </trkpt>
      <trkpt lat="43.82" lon="5.3077">
        <ele>346.7</ele>
        <time>2015-02-08T08:46:56Z</time>
      </trkpt>
      <trkpt lat="43.81998" lon="5.30756">
        <ele>347.4</ele>
        <time>2015-02-08T08:47:02Z</time>
      </trkpt>
      <trkpt lat="43.81995" lon="5.30743">
        <ele>348.4</ele>
        <time>2015-02-08T08:47:09Z</time>
      </trkpt>
      <trkpt lat="43.8199" lon="5.30732">
        <ele>349.5</ele>
        <time>2015-02-08T08:47:16Z</time>
      </trkpt>
      <trkpt lat="43.81982" lon="5.30725">
        <ele>350.7</ele>
        <time>2015-02-08T08:47:24Z</time>
      </trkpt>
      <trkpt lat="43.81973" lon="5.30719">
        <ele>351.8</ele>
        <time>2015-02-08T08:47:31Z</time>
      </trkpt>
      <trkpt lat="43.81964" lon="5.30716">
        <ele>353.1</ele>
        <time>2015-02-08T08:47:39Z</time>
      </trkpt>
      <trkpt lat="43.81955" lon="5.30715">
        <ele>354.4</ele>
        <time>2015-02-08T08:47:47Z</time>
      </trkpt>
      <trkpt lat="43.81947" lon="5.30708">
        <ele>355.4</ele>
        <time>2015-02-08T08:47:53Z</time>
      </trkpt>
      <trkpt lat="43.81938" lon="5.30701">
        <ele>356.8</ele>
        <time>2015-02-08T08:48:00Z</time>
      </trkpt>
      <trkpt lat="43.81927" lon="5.30703">
        <ele>358.7</ele>
        <time>2015-02-08T08:48:09Z</time>
      </trkpt>
      <trkpt lat="43.81918" lon="5.30707">
        <ele>360.4</ele>
        <time>2015-02-08T08:48:16Z</time>
      </trkpt>
      <trkpt lat="43.81909" lon="5.30713">
        <ele>362.2</ele>
        <time>2015-02-08T08:48:22Z</time>
      </trkpt>
      <trkpt lat="43.81916" lon="5.30723">
        <ele>366</ele>
        <time>2015-02-08T08:48:36Z</time>
      </trkpt>
      <trkpt lat="43.81924" lon="5.3073">
        <ele>367.5</ele>
        <time>2015-02-08T08:48:42Z</time>
      </trkpt>
      <trkpt lat="43.81932" lon="5.30735">
        <ele>369.3</ele>
        <time>2015-02-08T08:48:50Z</time>
      </trkpt>
      <trkpt lat="43.81924" lon="5.30747">
        <ele>372.2</ele>
        <time>2015-02-08T08:49:02Z</time>
      </trkpt>
      <trkpt lat="43.81915" lon="5.30748">
        <ele>373.7</ele>
        <time>2015-02-08T08:49:07Z</time>
      </trkpt>
      <trkpt lat="43.81907" lon="5.3074">
        <ele>376.5</ele>
        <time>2015-02-08T08:49:16Z</time>
      </trkpt>
      <trkpt lat="43.819" lon="5.3075">
        <ele>380.5</ele>
        <time>2015-02-08T08:49:30Z</time>
      </trkpt>
      <trkpt lat="43.81892" lon="5.30762">
        <ele>383.2</ele>
        <time>2015-02-08T08:49:40Z</time>
      </trkpt>
      <trkpt lat="43.81886" lon="5.30775">
        <ele>383.8</ele>
        <time>2015-02-08T08:49:42Z</time>
      </trkpt>
      <trkpt lat="43.81881" lon="5.30787">
        <ele>385.1</ele>
        <time>2015-02-08T08:49:46Z</time>
      </trkpt>
      <trkpt lat="43.81871" lon="5.3079">
        <ele>387.4</ele>
        <time>2015-02-08T08:49:54Z</time>
      </trkpt>
      <trkpt lat="43.81862" lon="5.30794">
        <ele>389.4</ele>
        <time>2015-02-08T08:50:01Z</time>
      </trkpt>
      <trkpt lat="43.81853" lon="5.30796">
        <ele>391.7</ele>
        <time>2015-02-08T08:50:09Z</time>
      </trkpt>
      <trkpt lat="43.81843" lon="5.30802">
        <ele>394.8</ele>
        <time>2015-02-08T08:50:20Z</time>
      </trkpt>
      <trkpt lat="43.81833" lon="5.30806">
        <ele>398.6</ele>
        <time>2015-02-08T08:50:33Z</time>
      </trkpt>
      <trkpt lat="43.81822" lon="5.30805">
        <ele>400.5</ele>
        <time>2015-02-08T08:50:40Z</time>
      </trkpt>
      <trkpt lat="43.81813" lon="5.30807">
        <ele>402</ele>
        <time>2015-02-08T08:50:46Z</time>
      </trkpt>
      <trkpt lat="43.81803" lon="5.30807">
        <ele>404.3</ele>
        <time>2015-02-08T08:50:54Z</time>
      </trkpt>
      <trkpt lat="43.81794" lon="5.30808">
        <ele>406.4</ele>
        <time>2015-02-08T08:51:04Z</time>
      </trkpt>
      <trkpt lat="43.81785" lon="5.30812">
        <ele>408.7</ele>
        <time>2015-02-08T08:51:14Z</time>
      </trkpt>
      <trkpt lat="43.81775" lon="5.30813">
        <ele>410.7</ele>
        <time>2015-02-08T08:51:22Z</time>
      </trkpt>
      <trkpt lat="43.81768" lon="5.30821">
        <ele>413.3</ele>
        <time>2015-02-08T08:51:32Z</time>
      </trkpt>
      <trkpt lat="43.81759" lon="5.30824">
        <ele>415.4</ele>
        <time>2015-02-08T08:51:41Z</time>
      </trkpt>
      <trkpt lat="43.8175" lon="5.30829">
        <ele>416.7</ele>
        <time>2015-02-08T08:51:47Z</time>
      </trkpt>
      <trkpt lat="43.81741" lon="5.30835">
        <ele>418.8</ele>
        <time>2015-02-08T08:51:55Z</time>
      </trkpt>
      <trkpt lat="43.81732" lon="5.30838">
        <ele>420.8</ele>
        <time>2015-02-08T08:52:04Z</time>
      </trkpt>
      <trkpt lat="43.81723" lon="5.30842">
        <ele>422.3</ele>
        <time>2015-02-08T08:52:11Z</time>
      </trkpt>
      <trkpt lat="43.81713" lon="5.30847">
        <ele>423.2</ele>
        <time>2015-02-08T08:52:16Z</time>
      </trkpt>
      <trkpt lat="43.81705" lon="5.30853">
        <ele>424.7</ele>
        <time>2015-02-08T08:52:25Z</time>
      </trkpt>
      <trkpt lat="43.81698" lon="5.3086">
        <ele>426.3</ele>
        <time>2015-02-08T08:52:34Z</time>
      </trkpt>
      <trkpt lat="43.81689" lon="5.30856">
        <ele>427.6</ele>
        <time>2015-02-08T08:52:43Z</time>
      </trkpt>
      <trkpt lat="43.81682" lon="5.30847">
        <ele>428.4</ele>
        <time>2015-02-08T08:52:49Z</time>
      </trkpt>
      <trkpt lat="43.81675" lon="5.30839">
        <ele>429.3</ele>
        <time>2015-02-08T08:52:56Z</time>
      </trkpt>
      <trkpt lat="43.81669" lon="5.3083">
        <ele>430.1</ele>
        <time>2015-02-08T08:53:05Z</time>
      </trkpt>
      <trkpt lat="43.81663" lon="5.30817">
        <ele>430.4</ele>
        <time>2015-02-08T08:53:10Z</time>
      </trkpt>
      <trkpt lat="43.81657" lon="5.30807">
        <ele>431.3</ele>
        <time>2015-02-08T08:53:21Z</time>
      </trkpt>
      <trkpt lat="43.81651" lon="5.30799">
        <ele>431.7</ele>
        <time>2015-02-08T08:53:27Z</time>
      </trkpt>
      <trkpt lat="43.81642" lon="5.30792">
        <ele>432.3</ele>
        <time>2015-02-08T08:53:34Z</time>
      </trkpt>
      <trkpt lat="43.81633" lon="5.30789">
        <ele>432.8</ele>
        <time>2015-02-08T08:53:44Z</time>
      </trkpt>
      <trkpt lat="43.81624" lon="5.30786">
        <ele>433.5</ele>
        <time>2015-02-08T08:53:51Z</time>
      </trkpt>
      <trkpt lat="43.81614" lon="5.30781">
        <ele>434.2</ele>
        <time>2015-02-08T08:53:59Z</time>
      </trkpt>
      <trkpt lat="43.81605" lon="5.30777">
        <ele>434.8</ele>
        <time>2015-02-08T08:54:07Z</time>
      </trkpt>
      <trkpt lat="43.81596" lon="5.30775">
        <ele>435.4</ele>
        <time>2015-02-08T08:54:14Z</time>
      </trkpt>
      <trkpt lat="43.81587" lon="5.30769">
        <ele>435.8</ele>
        <time>2015-02-08T08:54:20Z</time>
      </trkpt>
      <trkpt lat="43.81577" lon="5.30764">
        <ele>436.3</ele>
        <time>2015-02-08T08:54:27Z</time>
      </trkpt>
      <trkpt lat="43.81568" lon="5.30758">
        <ele>436.7</ele>
        <time>2015-02-08T08:54:36Z</time>
      </trkpt>
      <trkpt lat="43.8156" lon="5.30752">
        <ele>437.1</ele>
        <time>2015-02-08T08:54:43Z</time>
      </trkpt>
      <trkpt lat="43.81548" lon="5.30748">
        <ele>437.5</ele>
        <time>2015-02-08T08:54:49Z</time>
      </trkpt>
      <trkpt lat="43.81539" lon="5.30745">
        <ele>437.7</ele>
        <time>2015-02-08T08:54:54Z</time>
      </trkpt>
      <trkpt lat="43.81529" lon="5.30742">
        <ele>438</ele>
        <time>2015-02-08T08:55:04Z</time>
      </trkpt>
      <trkpt lat="43.81519" lon="5.30737">
        <ele>438.1</ele>
        <time>2015-02-08T08:55:11Z</time>
      </trkpt>
      <trkpt lat="43.8151" lon="5.30733">
        <ele>438.2</ele>
        <time>2015-02-08T08:55:17Z</time>
      </trkpt>
      <trkpt lat="43.81501" lon="5.30726">
        <ele>438.3</ele>
        <time>2015-02-08T08:55:20Z</time>
      </trkpt>
      <trkpt lat="43.81491" lon="5.30723">
        <ele>438.9</ele>
        <time>2015-02-08T08:55:26Z</time>
      </trkpt>
      <trkpt lat="43.81481" lon="5.30722">
        <ele>439.4</ele>
        <time>2015-02-08T08:55:33Z</time>
      </trkpt>
      <trkpt lat="43.81472" lon="5.30716">
        <ele>440.3</ele>
        <time>2015-02-08T08:55:40Z</time>
      </trkpt>
      <trkpt lat="43.81463" lon="5.30723">
        <ele>441.7</ele>
        <time>2015-02-08T08:55:50Z</time>
      </trkpt>
      <trkpt lat="43.81454" lon="5.30724">
        <ele>442.4</ele>
        <time>2015-02-08T08:55:56Z</time>
      </trkpt>
      <trkpt lat="43.81444" lon="5.30722">
        <ele>442.6</ele>
        <time>2015-02-08T08:56:03Z</time>
      </trkpt>
      <trkpt lat="43.81435" lon="5.30724">
        <ele>443.1</ele>
        <time>2015-02-08T08:56:16Z</time>
      </trkpt>
      <trkpt lat="43.81424" lon="5.30724">
        <ele>443.4</ele>
        <time>2015-02-08T08:56:21Z</time>
      </trkpt>
      <trkpt lat="43.81414" lon="5.30731">
        <ele>443.7</ele>
        <time>2015-02-08T08:56:26Z</time>
      </trkpt>
      <trkpt lat="43.81404" lon="5.30727">
        <ele>444.4</ele>
        <time>2015-02-08T08:56:32Z</time>
      </trkpt>
      <trkpt lat="43.81395" lon="5.30725">
        <ele>445.4</ele>
        <time>2015-02-08T08:56:40Z</time>
      </trkpt>
      <trkpt lat="43.81383" lon="5.30725">
        <ele>446.2</ele>
        <time>2015-02-08T08:56:46Z</time>
      </trkpt>
      <trkpt lat="43.81372" lon="5.30723">
        <ele>446.6</ele>
        <time>2015-02-08T08:56:49Z</time>
      </trkpt>
      <trkpt lat="43.81373" lon="5.30709">
        <ele>447.8</ele>
        <time>2015-02-08T08:57:23Z</time>
      </trkpt>
      <trkpt lat="43.81368" lon="5.30697">
        <ele>447.6</ele>
        <time>2015-02-08T08:57:32Z</time>
      </trkpt>
      <trkpt lat="43.8136" lon="5.3069">
        <ele>447.4</ele>
        <time>2015-02-08T08:57:40Z</time>
      </trkpt>
      <trkpt lat="43.81354" lon="5.3068">
        <ele>447.2</ele>
        <time>2015-02-08T08:57:47Z</time>
      </trkpt>
      <trkpt lat="43.81352" lon="5.30668">
        <ele>447</ele>
        <time>2015-02-08T08:57:53Z</time>
      </trkpt>
      <trkpt lat="43.81355" lon="5.30656">
        <ele>446.4</ele>
        <time>2015-02-08T08:58:02Z</time>
      </trkpt>
      <trkpt lat="43.81356" lon="5.30642">
        <ele>445.7</ele>
        <time>2015-02-08T08:58:12Z</time>
      </trkpt>
      <trkpt lat="43.81356" lon="5.3063">
        <ele>444.9</ele>
        <time>2015-02-08T08:58:20Z</time>
      </trkpt>
      <trkpt lat="43.81357" lon="5.30616">
        <ele>444.2</ele>
        <time>2015-02-08T08:58:28Z</time>
      </trkpt>
      <trkpt lat="43.81353" lon="5.30603">
        <ele>443.4</ele>
        <time>2015-02-08T08:58:37Z</time>
      </trkpt>
      <trkpt lat="43.81349" lon="5.30591">
        <ele>443.2</ele>
        <time>2015-02-08T08:58:42Z</time>
      </trkpt>
      <trkpt lat="43.81346" lon="5.30578">
        <ele>443.1</ele>
        <time>2015-02-08T08:58:49Z</time>
      </trkpt>
      <trkpt lat="43.81345" lon="5.30564">
        <ele>442.7</ele>
        <time>2015-02-08T08:58:56Z</time>
      </trkpt>
      <trkpt lat="43.81335" lon="5.30559">
        <ele>442.7</ele>
        <time>2015-02-08T08:59:00Z</time>
      </trkpt>
      <trkpt lat="43.81326" lon="5.30553">
        <ele>443</ele>
        <time>2015-02-08T08:59:06Z</time>
      </trkpt>
      <trkpt lat="43.81319" lon="5.30543">
        <ele>443.3</ele>
        <time>2015-02-08T08:59:10Z</time>
      </trkpt>
      <trkpt lat="43.81314" lon="5.30532">
        <ele>445.1</ele>
        <time>2015-02-08T08:59:21Z</time>
      </trkpt>
      <trkpt lat="43.81312" lon="5.30518">
        <ele>446</ele>
        <time>2015-02-08T08:59:28Z</time>
      </trkpt>
      <trkpt lat="43.81307" lon="5.30503">
        <ele>447.2</ele>
        <time>2015-02-08T08:59:37Z</time>
      </trkpt>
      <trkpt lat="43.81294" lon="5.30501">
        <ele>447.9</ele>
        <time>2015-02-08T08:59:40Z</time>
      </trkpt>
      <trkpt lat="43.81286" lon="5.30509">
        <ele>448.4</ele>
        <time>2015-02-08T08:59:42Z</time>
      </trkpt>
      <trkpt lat="43.81281" lon="5.30498">
        <ele>450.4</ele>
        <time>2015-02-08T08:59:49Z</time>
      </trkpt>
      <trkpt lat="43.81277" lon="5.30485">
        <ele>452.7</ele>
        <time>2015-02-08T08:59:57Z</time>
      </trkpt>
      <trkpt lat="43.81273" lon="5.30474">
        <ele>454.9</ele>
        <time>2015-02-08T09:00:04Z</time>
      </trkpt>
      <trkpt lat="43.81268" lon="5.30461">
        <ele>458.2</ele>
        <time>2015-02-08T09:00:14Z</time>
      </trkpt>
      <trkpt lat="43.81262" lon="5.30451">
        <ele>460</ele>
        <time>2015-02-08T09:00:21Z</time>
      </trkpt>
      <trkpt lat="43.81258" lon="5.3044">
        <ele>461.7</ele>
        <time>2015-02-08T09:00:29Z</time>
      </trkpt>
      <trkpt lat="43.81251" lon="5.30428">
        <ele>463.2</ele>
        <time>2015-02-08T09:00:35Z</time>
      </trkpt>
      <trkpt lat="43.81248" lon="5.30415">
        <ele>465.6</ele>
        <time>2015-02-08T09:00:46Z</time>
      </trkpt>
      <trkpt lat="43.8125" lon="5.30403">
        <ele>466.5</ele>
        <time>2015-02-08T09:00:52Z</time>
      </trkpt>
      <trkpt lat="43.81247" lon="5.3039">
        <ele>468.4</ele>
        <time>2015-02-08T09:01:11Z</time>
      </trkpt>
      <trkpt lat="43.81242" lon="5.30379">
        <ele>468.8</ele>
        <time>2015-02-08T09:01:18Z</time>
      </trkpt>
      <trkpt lat="43.81234" lon="5.30372">
        <ele>468.9</ele>
        <time>2015-02-08T09:01:23Z</time>
      </trkpt>
      <trkpt lat="43.81226" lon="5.30362">
        <ele>469.1</ele>
        <time>2015-02-08T09:01:27Z</time>
      </trkpt>
      <trkpt lat="43.81217" lon="5.30362">
        <ele>470.3</ele>
        <time>2015-02-08T09:01:38Z</time>
      </trkpt>
      <trkpt lat="43.81208" lon="5.30366">
        <ele>471</ele>
        <time>2015-02-08T09:01:42Z</time>
      </trkpt>
      <trkpt lat="43.81199" lon="5.30366">
        <ele>472.1</ele>
        <time>2015-02-08T09:01:48Z</time>
      </trkpt>
      <trkpt lat="43.81191" lon="5.30359">
        <ele>473.6</ele>
        <time>2015-02-08T09:01:55Z</time>
      </trkpt>
      <trkpt lat="43.81183" lon="5.30351">
        <ele>475</ele>
        <time>2015-02-08T09:02:02Z</time>
      </trkpt>
      <trkpt lat="43.81174" lon="5.3035">
        <ele>476.9</ele>
        <time>2015-02-08T09:02:12Z</time>
      </trkpt>
      <trkpt lat="43.81165" lon="5.30349">
        <ele>478.4</ele>
        <time>2015-02-08T09:02:20Z</time>
      </trkpt>
      <trkpt lat="43.81155" lon="5.30342">
        <ele>479.9</ele>
        <time>2015-02-08T09:02:27Z</time>
      </trkpt>
      <trkpt lat="43.81148" lon="5.30336">
        <ele>481.2</ele>
        <time>2015-02-08T09:02:33Z</time>
      </trkpt>
      <trkpt lat="43.81139" lon="5.3033">
        <ele>483.3</ele>
        <time>2015-02-08T09:02:42Z</time>
      </trkpt>
      <trkpt lat="43.8113" lon="5.30323">
        <ele>484.8</ele>
        <time>2015-02-08T09:02:49Z</time>
      </trkpt>
      <trkpt lat="43.81123" lon="5.30314">
        <ele>486.5</ele>
        <time>2015-02-08T09:02:57Z</time>
      </trkpt>
      <trkpt lat="43.81116" lon="5.30305">
        <ele>488.6</ele>
        <time>2015-02-08T09:03:06Z</time>
      </trkpt>
      <trkpt lat="43.81107" lon="5.30298">
        <ele>490.4</ele>
        <time>2015-02-08T09:03:14Z</time>
      </trkpt>
      <trkpt lat="43.81099" lon="5.30293">
        <ele>492.2</ele>
        <time>2015-02-08T09:03:21Z</time>
      </trkpt>
      <trkpt lat="43.81089" lon="5.30289">
        <ele>494.7</ele>
        <time>2015-02-08T09:03:31Z</time>
      </trkpt>
      <trkpt lat="43.8108" lon="5.30285">
        <ele>496.3</ele>
        <time>2015-02-08T09:03:40Z</time>
      </trkpt>
      <trkpt lat="43.8107" lon="5.30284">
        <ele>497</ele>
        <time>2015-02-08T09:03:47Z</time>
      </trkpt>
      <trkpt lat="43.8106" lon="5.30284">
        <ele>497.5</ele>
        <time>2015-02-08T09:03:53Z</time>
      </trkpt>
      <trkpt lat="43.81051" lon="5.30284">
        <ele>498.7</ele>
        <time>2015-02-08T09:04:01Z</time>
      </trkpt>
      <trkpt lat="43.81041" lon="5.30283">
        <ele>500.7</ele>
        <time>2015-02-08T09:04:19Z</time>
      </trkpt>
      <trkpt lat="43.81032" lon="5.30277">
        <ele>502.1</ele>
        <time>2015-02-08T09:04:27Z</time>
      </trkpt>
      <trkpt lat="43.81022" lon="5.3027">
        <ele>503.7</ele>
        <time>2015-02-08T09:04:33Z</time>
      </trkpt>
      <trkpt lat="43.81015" lon="5.30261">
        <ele>505.6</ele>
        <time>2015-02-08T09:04:40Z</time>
      </trkpt>
      <trkpt lat="43.81006" lon="5.30255">
        <ele>508.3</ele>
        <time>2015-02-08T09:04:50Z</time>
      </trkpt>
      <trkpt lat="43.80998" lon="5.30247">
        <ele>511.3</ele>
        <time>2015-02-08T09:05:01Z</time>
      </trkpt>
      <trkpt lat="43.80988" lon="5.3024">
        <ele>513.5</ele>
        <time>2015-02-08T09:05:09Z</time>
      </trkpt>
      <trkpt lat="43.80979" lon="5.30235">
        <ele>515.3</ele>
        <time>2015-02-08T09:05:16Z</time>
      </trkpt>
      <trkpt lat="43.80971" lon="5.30229">
        <ele>517.5</ele>
        <time>2015-02-08T09:05:23Z</time>
      </trkpt>
      <trkpt lat="43.80962" lon="5.30227">
        <ele>524.1</ele>
        <time>2015-02-08T09:06:33Z</time>
      </trkpt>
      <trkpt lat="43.80959" lon="5.30215">
        <ele>525.5</ele>
        <time>2015-02-08T09:06:52Z</time>
      </trkpt>
      <trkpt lat="43.80952" lon="5.30223">
        <ele>526.8</ele>
        <time>2015-02-08T09:07:14Z</time>
      </trkpt>
      <trkpt lat="43.80947" lon="5.30236">
        <ele>530.4</ele>
        <time>2015-02-08T09:08:02Z</time>
      </trkpt>
      <trkpt lat="43.80938" lon="5.30238">
        <ele>531.9</ele>
        <time>2015-02-08T09:08:18Z</time>
      </trkpt>
      <trkpt lat="43.80929" lon="5.30242">
        <ele>533.2</ele>
        <time>2015-02-08T09:08:30Z</time>
      </trkpt>
      <trkpt lat="43.80921" lon="5.30235">
        <ele>535.2</ele>
        <time>2015-02-08T09:08:47Z</time>
      </trkpt>
      <trkpt lat="43.80911" lon="5.30238">
        <ele>537.9</ele>
        <time>2015-02-08T09:09:08Z</time>
      </trkpt>
      <trkpt lat="43.80902" lon="5.30236">
        <ele>539.5</ele>
        <time>2015-02-08T09:09:19Z</time>
      </trkpt>
      <trkpt lat="43.80892" lon="5.30234">
        <ele>541</ele>
        <time>2015-02-08T09:09:28Z</time>
      </trkpt>
      <trkpt lat="43.80883" lon="5.30232">
        <ele>542.9</ele>
        <time>2015-02-08T09:09:38Z</time>
      </trkpt>
      <trkpt lat="43.80874" lon="5.30232">
        <ele>544.5</ele>
        <time>2015-02-08T09:09:46Z</time>
      </trkpt>
      <trkpt lat="43.80864" lon="5.30233">
        <ele>546.7</ele>
        <time>2015-02-08T09:09:56Z</time>
      </trkpt>
      <trkpt lat="43.80854" lon="5.30236">
        <ele>548.3</ele>
        <time>2015-02-08T09:10:02Z</time>
      </trkpt>
      <trkpt lat="43.80844" lon="5.30235">
        <ele>551</ele>
        <time>2015-02-08T09:10:14Z</time>
      </trkpt>
      <trkpt lat="43.80842" lon="5.30249">
        <ele>556</ele>
        <time>2015-02-08T09:10:51Z</time>
      </trkpt>
      <trkpt lat="43.80837" lon="5.30238">
        <ele>560.3</ele>
        <time>2015-02-08T09:11:18Z</time>
      </trkpt>
      <trkpt lat="43.80827" lon="5.30242">
        <ele>556.7</ele>
        <time>2015-02-08T09:14:34Z</time>
      </trkpt>
      <trkpt lat="43.80818" lon="5.30241">
        <ele>558.7</ele>
        <time>2015-02-08T09:14:42Z</time>
      </trkpt>
      <trkpt lat="43.80814" lon="5.30253">
        <ele>560.8</ele>
        <time>2015-02-08T09:14:49Z</time>
      </trkpt>
      <trkpt lat="43.80811" lon="5.3027">
        <ele>561.5</ele>
        <time>2015-02-08T09:14:51Z</time>
      </trkpt>
      <trkpt lat="43.80802" lon="5.30268">
        <ele>563.9</ele>
        <time>2015-02-08T09:14:59Z</time>
      </trkpt>
      <trkpt lat="43.80793" lon="5.30265">
        <ele>565.2</ele>
        <time>2015-02-08T09:15:03Z</time>
      </trkpt>
      <trkpt lat="43.80783" lon="5.30261">
        <ele>567.1</ele>
        <time>2015-02-08T09:15:08Z</time>
      </trkpt>
      <trkpt lat="43.80774" lon="5.30263">
        <ele>569.7</ele>
        <time>2015-02-08T09:15:14Z</time>
      </trkpt>
      <trkpt lat="43.80764" lon="5.30265">
        <ele>572.1</ele>
        <time>2015-02-08T09:15:20Z</time>
      </trkpt>
      <trkpt lat="43.80755" lon="5.30261">
        <ele>573.8</ele>
        <time>2015-02-08T09:15:24Z</time>
      </trkpt>
      <trkpt lat="43.80745" lon="5.30261">
        <ele>576.3</ele>
        <time>2015-02-08T09:15:30Z</time>
      </trkpt>
      <trkpt lat="43.80736" lon="5.30267">
        <ele>578.8</ele>
        <time>2015-02-08T09:15:36Z</time>
      </trkpt>
      <trkpt lat="43.80725" lon="5.30266">
        <ele>581.7</ele>
        <time>2015-02-08T09:15:42Z</time>
      </trkpt>
      <trkpt lat="43.80716" lon="5.30265">
        <ele>585</ele>
        <time>2015-02-08T09:15:48Z</time>
      </trkpt>
      <trkpt lat="43.80707" lon="5.30262">
        <ele>589.2</ele>
        <time>2015-02-08T09:15:57Z</time>
      </trkpt>
      <trkpt lat="43.80697" lon="5.30267">
        <ele>592.6</ele>
        <time>2015-02-08T09:16:05Z</time>
      </trkpt>
      <trkpt lat="43.80689" lon="5.30273">
        <ele>595</ele>
        <time>2015-02-08T09:16:12Z</time>
      </trkpt>
      <trkpt lat="43.80683" lon="5.30283">
        <ele>596.8</ele>
        <time>2015-02-08T09:16:17Z</time>
      </trkpt>
      <trkpt lat="43.80674" lon="5.30281">
        <ele>599</ele>
        <time>2015-02-08T09:16:25Z</time>
      </trkpt>
      <trkpt lat="43.80665" lon="5.30275">
        <ele>600.1</ele>
        <time>2015-02-08T09:16:31Z</time>
      </trkpt>
      <trkpt lat="43.80657" lon="5.30265">
        <ele>600.9</ele>
        <time>2015-02-08T09:16:37Z</time>
      </trkpt>
      <trkpt lat="43.80655" lon="5.30253">
        <ele>601.5</ele>
        <time>2015-02-08T09:16:43Z</time>
      </trkpt>
      <trkpt lat="43.80654" lon="5.30239">
        <ele>602</ele>
        <time>2015-02-08T09:16:51Z</time>
      </trkpt>
      <trkpt lat="43.80653" lon="5.30225">
        <ele>602.5</ele>
        <time>2015-02-08T09:16:58Z</time>
      </trkpt>
      <trkpt lat="43.8065" lon="5.30213">
        <ele>602.7</ele>
        <time>2015-02-08T09:17:03Z</time>
      </trkpt>
      <trkpt lat="43.80647" lon="5.30201">
        <ele>602.8</ele>
        <time>2015-02-08T09:17:11Z</time>
      </trkpt>
      <trkpt lat="43.80642" lon="5.3019">
        <ele>603.5</ele>
        <time>2015-02-08T09:17:52Z</time>
      </trkpt>
      <trkpt lat="43.80636" lon="5.3018">
        <ele>604.1</ele>
        <time>2015-02-08T09:18:00Z</time>
      </trkpt>
      <trkpt lat="43.80626" lon="5.30176">
        <ele>604.8</ele>
        <time>2015-02-08T09:18:06Z</time>
      </trkpt>
      <trkpt lat="43.80616" lon="5.30174">
        <ele>605.8</ele>
        <time>2015-02-08T09:18:14Z</time>
      </trkpt>
      <trkpt lat="43.80607" lon="5.30175">
        <ele>606.7</ele>
        <time>2015-02-08T09:18:21Z</time>
      </trkpt>
      <trkpt lat="43.80598" lon="5.30177">
        <ele>607.7</ele>
        <time>2015-02-08T09:18:29Z</time>
      </trkpt>
      <trkpt lat="43.80588" lon="5.30178">
        <ele>608.7</ele>
        <time>2015-02-08T09:18:37Z</time>
      </trkpt>
      <trkpt lat="43.80578" lon="5.30179">
        <ele>609.6</ele>
        <time>2015-02-08T09:18:45Z</time>
      </trkpt>
      <trkpt lat="43.80569" lon="5.30176">
        <ele>610.4</ele>
        <time>2015-02-08T09:18:52Z</time>
      </trkpt>
      <trkpt lat="43.8056" lon="5.30171">
        <ele>611</ele>
        <time>2015-02-08T09:18:58Z</time>
      </trkpt>
      <trkpt lat="43.80551" lon="5.30169">
        <ele>612</ele>
        <time>2015-02-08T09:19:05Z</time>
      </trkpt>
      <trkpt lat="43.80541" lon="5.30173">
        <ele>613</ele>
        <time>2015-02-08T09:19:14Z</time>
      </trkpt>
      <trkpt lat="43.80537" lon="5.30185">
        <ele>613.3</ele>
        <time>2015-02-08T09:19:23Z</time>
      </trkpt>
      <trkpt lat="43.80532" lon="5.30198">
        <ele>613</ele>
        <time>2015-02-08T09:19:32Z</time>
      </trkpt>
      <trkpt lat="43.80528" lon="5.30209">
        <ele>612.4</ele>
        <time>2015-02-08T09:19:42Z</time>
      </trkpt>
      <trkpt lat="43.80522" lon="5.30217">
        <ele>611.9</ele>
        <time>2015-02-08T09:19:51Z</time>
      </trkpt>
      <trkpt lat="43.80515" lon="5.30227">
        <ele>611</ele>
        <time>2015-02-08T09:20:01Z</time>
      </trkpt>
      <trkpt lat="43.80508" lon="5.30236">
        <ele>610</ele>
        <time>2015-02-08T09:20:10Z</time>
      </trkpt>
      <trkpt lat="43.80506" lon="5.30248">
        <ele>608.6</ele>
        <time>2015-02-08T09:20:21Z</time>
      </trkpt>
      <trkpt lat="43.80498" lon="5.30255">
        <ele>607.2</ele>
        <time>2015-02-08T09:20:29Z</time>
      </trkpt>
      <trkpt lat="43.80489" lon="5.30259">
        <ele>605.7</ele>
        <time>2015-02-08T09:20:39Z</time>
      </trkpt>
      <trkpt lat="43.80479" lon="5.3026">
        <ele>605</ele>
        <time>2015-02-08T09:20:46Z</time>
      </trkpt>
      <trkpt lat="43.80469" lon="5.3026">
        <ele>604.3</ele>
        <time>2015-02-08T09:20:55Z</time>
      </trkpt>
      <trkpt lat="43.8046" lon="5.30258">
        <ele>604</ele>
        <time>2015-02-08T09:21:04Z</time>
      </trkpt>
      <trkpt lat="43.8045" lon="5.30257">
        <ele>604.3</ele>
        <time>2015-02-08T09:21:14Z</time>
      </trkpt>
      <trkpt lat="43.80441" lon="5.3026">
        <ele>604.4</ele>
        <time>2015-02-08T09:21:21Z</time>
      </trkpt>
      <trkpt lat="43.80432" lon="5.30261">
        <ele>604.6</ele>
        <time>2015-02-08T09:21:29Z</time>
      </trkpt>
      <trkpt lat="43.80423" lon="5.30264">
        <ele>604.7</ele>
        <time>2015-02-08T09:21:38Z</time>
      </trkpt>
      <trkpt lat="43.80414" lon="5.30269">
        <ele>604.7</ele>
        <time>2015-02-08T09:21:48Z</time>
      </trkpt>
      <trkpt lat="43.80404" lon="5.30271">
        <ele>604.4</ele>
        <time>2015-02-08T09:21:56Z</time>
      </trkpt>
      <trkpt lat="43.80395" lon="5.30275">
        <ele>603.8</ele>
        <time>2015-02-08T09:22:05Z</time>
      </trkpt>
      <trkpt lat="43.80387" lon="5.3028">
        <ele>602.8</ele>
        <time>2015-02-08T09:22:14Z</time>
      </trkpt>
      <trkpt lat="43.80377" lon="5.30284">
        <ele>602</ele>
        <time>2015-02-08T09:22:21Z</time>
      </trkpt>
      <trkpt lat="43.8037" lon="5.30293">
        <ele>601.7</ele>
        <time>2015-02-08T09:22:34Z</time>
      </trkpt>
      <trkpt lat="43.80362" lon="5.303">
        <ele>601.6</ele>
        <time>2015-02-08T09:22:46Z</time>
      </trkpt>
      <trkpt lat="43.80355" lon="5.30309">
        <ele>601.1</ele>
        <time>2015-02-08T09:22:55Z</time>
      </trkpt>
      <trkpt lat="43.80358" lon="5.30321">
        <ele>599.5</ele>
        <time>2015-02-08T09:23:08Z</time>
      </trkpt>
      <trkpt lat="43.80357" lon="5.30334">
        <ele>597.7</ele>
        <time>2015-02-08T09:23:18Z</time>
      </trkpt>
      <trkpt lat="43.80355" lon="5.30347">
        <ele>596.8</ele>
        <time>2015-02-08T09:23:23Z</time>
      </trkpt>
      <trkpt lat="43.80347" lon="5.30357">
        <ele>595.8</ele>
        <time>2015-02-08T09:23:28Z</time>
      </trkpt>
      <trkpt lat="43.80338" lon="5.30362">
        <ele>595.2</ele>
        <time>2015-02-08T09:23:32Z</time>
      </trkpt>
      <trkpt lat="43.8033" lon="5.3037">
        <ele>594.7</ele>
        <time>2015-02-08T09:23:37Z</time>
      </trkpt>
      <trkpt lat="43.80321" lon="5.30374">
        <ele>590.5</ele>
        <time>2015-02-08T09:25:20Z</time>
      </trkpt>
      <trkpt lat="43.80312" lon="5.30382">
        <ele>590.5</ele>
        <time>2015-02-08T09:25:25Z</time>
      </trkpt>
      <trkpt lat="43.80303" lon="5.30388">
        <ele>590.4</ele>
        <time>2015-02-08T09:25:31Z</time>
      </trkpt>
      <trkpt lat="43.80294" lon="5.30393">
        <ele>590.2</ele>
        <time>2015-02-08T09:25:39Z</time>
      </trkpt>
      <trkpt lat="43.80284" lon="5.30399">
        <ele>590</ele>
        <time>2015-02-08T09:25:46Z</time>
      </trkpt>
      <trkpt lat="43.80275" lon="5.30408">
        <ele>589.6</ele>
        <time>2015-02-08T09:25:50Z</time>
      </trkpt>
      <trkpt lat="43.80266" lon="5.30416">
        <ele>589.4</ele>
        <time>2015-02-08T09:25:53Z</time>
      </trkpt>
      <trkpt lat="43.80254" lon="5.30425">
        <ele>589.2</ele>
        <time>2015-02-08T09:25:56Z</time>
      </trkpt>
      <trkpt lat="43.80245" lon="5.30432">
        <ele>589.1</ele>
        <time>2015-02-08T09:25:58Z</time>
      </trkpt>
      <trkpt lat="43.80235" lon="5.30437">
        <ele>589</ele>
        <time>2015-02-08T09:26:01Z</time>
      </trkpt>
      <trkpt lat="43.80224" lon="5.30437">
        <ele>588.8</ele>
        <time>2015-02-08T09:26:04Z</time>
      </trkpt>
      <trkpt lat="43.80216" lon="5.30428">
        <ele>588.7</ele>
        <time>2015-02-08T09:26:07Z</time>
      </trkpt>
      <trkpt lat="43.80207" lon="5.30418">
        <ele>588.7</ele>
        <time>2015-02-08T09:26:10Z</time>
      </trkpt>
      <trkpt lat="43.80197" lon="5.30407">
        <ele>589</ele>
        <time>2015-02-08T09:26:13Z</time>
      </trkpt>
      <trkpt lat="43.80188" lon="5.30399">
        <ele>589.4</ele>
        <time>2015-02-08T09:26:16Z</time>
      </trkpt>
      <trkpt lat="43.80179" lon="5.30396">
        <ele>590</ele>
        <time>2015-02-08T09:26:20Z</time>
      </trkpt>
      <trkpt lat="43.80168" lon="5.30396">
        <ele>590.7</ele>
        <time>2015-02-08T09:26:25Z</time>
      </trkpt>
      <trkpt lat="43.80158" lon="5.30393">
        <ele>591.5</ele>
        <time>2015-02-08T09:26:32Z</time>
      </trkpt>
      <trkpt lat="43.80151" lon="5.30387">
        <ele>591.9</ele>
        <time>2015-02-08T09:26:36Z</time>
      </trkpt>
      <trkpt lat="43.80143" lon="5.30377">
        <ele>592.3</ele>
        <time>2015-02-08T09:26:41Z</time>
      </trkpt>
      <trkpt lat="43.80137" lon="5.30367">
        <ele>592.9</ele>
        <time>2015-02-08T09:26:47Z</time>
      </trkpt>
      <trkpt lat="43.8013" lon="5.30356">
        <ele>593.7</ele>
        <time>2015-02-08T09:26:52Z</time>
      </trkpt>
      <trkpt lat="43.80125" lon="5.30346">
        <ele>594.1</ele>
        <time>2015-02-08T09:26:57Z</time>
      </trkpt>
      <trkpt lat="43.80118" lon="5.30336">
        <ele>594.5</ele>
        <time>2015-02-08T09:27:03Z</time>
      </trkpt>
      <trkpt lat="43.8011" lon="5.3033">
        <ele>595.1</ele>
        <time>2015-02-08T09:27:10Z</time>
      </trkpt>
      <trkpt lat="43.80102" lon="5.30323">
        <ele>595.4</ele>
        <time>2015-02-08T09:27:17Z</time>
      </trkpt>
      <trkpt lat="43.80093" lon="5.30319">
        <ele>595.1</ele>
        <time>2015-02-08T09:27:25Z</time>
      </trkpt>
      <trkpt lat="43.80084" lon="5.30316">
        <ele>593.9</ele>
        <time>2015-02-08T09:27:34Z</time>
      </trkpt>
      <trkpt lat="43.80075" lon="5.30311">
        <ele>592.8</ele>
        <time>2015-02-08T09:27:42Z</time>
      </trkpt>
      <trkpt lat="43.80065" lon="5.30308">
        <ele>591.6</ele>
        <time>2015-02-08T09:27:50Z</time>
      </trkpt>
      <trkpt lat="43.80055" lon="5.30305">
        <ele>590.4</ele>
        <time>2015-02-08T09:27:57Z</time>
      </trkpt>
      <trkpt lat="43.80047" lon="5.303">
        <ele>589</ele>
        <time>2015-02-08T09:28:05Z</time>
      </trkpt>
      <trkpt lat="43.80037" lon="5.30298">
        <ele>587.8</ele>
        <time>2015-02-08T09:28:12Z</time>
      </trkpt>
      <trkpt lat="43.80029" lon="5.30307">
        <ele>586.4</ele>
        <time>2015-02-08T09:28:21Z</time>
      </trkpt>
      <trkpt lat="43.80023" lon="5.30316">
        <ele>580.4</ele>
        <time>2015-02-08T09:31:17Z</time>
      </trkpt>
      <trkpt lat="43.80014" lon="5.30319">
        <ele>579.8</ele>
        <time>2015-02-08T09:31:49Z</time>
      </trkpt>
      <trkpt lat="43.80006" lon="5.30327">
        <ele>579.7</ele>
        <time>2015-02-08T09:31:58Z</time>
      </trkpt>
      <trkpt lat="43.80001" lon="5.30338">
        <ele>579.5</ele>
        <time>2015-02-08T09:32:06Z</time>
      </trkpt>
      <trkpt lat="43.79998" lon="5.30351">
        <ele>579.2</ele>
        <time>2015-02-08T09:32:12Z</time>
      </trkpt>
      <trkpt lat="43.79993" lon="5.30362">
        <ele>579</ele>
        <time>2015-02-08T09:32:19Z</time>
      </trkpt>
      <trkpt lat="43.79988" lon="5.30374">
        <ele>578.8</ele>
        <time>2015-02-08T09:32:26Z</time>
      </trkpt>
      <trkpt lat="43.79982" lon="5.30385">
        <ele>578.7</ele>
        <time>2015-02-08T09:32:33Z</time>
      </trkpt>
      <trkpt lat="43.79975" lon="5.30393">
        <ele>578.4</ele>
        <time>2015-02-08T09:32:40Z</time>
      </trkpt>
      <trkpt lat="43.7997" lon="5.30403">
        <ele>578.2</ele>
        <time>2015-02-08T09:32:49Z</time>
      </trkpt>
      <trkpt lat="43.79965" lon="5.30415">
        <ele>577.9</ele>
        <time>2015-02-08T09:32:57Z</time>
      </trkpt>
      <trkpt lat="43.79959" lon="5.30424">
        <ele>577.6</ele>
        <time>2015-02-08T09:33:04Z</time>
      </trkpt>
      <trkpt lat="43.79952" lon="5.30434">
        <ele>577.1</ele>
        <time>2015-02-08T09:33:12Z</time>
      </trkpt>
      <trkpt lat="43.79945" lon="5.30443">
        <ele>576.5</ele>
        <time>2015-02-08T09:33:24Z</time>
      </trkpt>
      <trkpt lat="43.79938" lon="5.30451">
        <ele>576.1</ele>
        <time>2015-02-08T09:33:31Z</time>
      </trkpt>
      <trkpt lat="43.79935" lon="5.30464">
        <ele>575.6</ele>
        <time>2015-02-08T09:33:38Z</time>
      </trkpt>
      <trkpt lat="43.79936" lon="5.30479">
        <ele>574.9</ele>
        <time>2015-02-08T09:33:45Z</time>
      </trkpt>
      <trkpt lat="43.79937" lon="5.30493">
        <ele>573.9</ele>
        <time>2015-02-08T09:33:52Z</time>
      </trkpt>
      <trkpt lat="43.79934" lon="5.30506">
        <ele>572.8</ele>
        <time>2015-02-08T09:34:01Z</time>
      </trkpt>
      <trkpt lat="43.79926" lon="5.30513">
        <ele>571.9</ele>
        <time>2015-02-08T09:34:08Z</time>
      </trkpt>
      <trkpt lat="43.79917" lon="5.30519">
        <ele>571.2</ele>
        <time>2015-02-08T09:34:14Z</time>
      </trkpt>
      <trkpt lat="43.79907" lon="5.30523">
        <ele>570.5</ele>
        <time>2015-02-08T09:34:21Z</time>
      </trkpt>
      <trkpt lat="43.79897" lon="5.30527">
        <ele>569.7</ele>
        <time>2015-02-08T09:34:29Z</time>
      </trkpt>
      <trkpt lat="43.79887" lon="5.30529">
        <ele>569.2</ele>
        <time>2015-02-08T09:34:36Z</time>
      </trkpt>
      <trkpt lat="43.79877" lon="5.30526">
        <ele>568.7</ele>
        <time>2015-02-08T09:34:44Z</time>
      </trkpt>
      <trkpt lat="43.79868" lon="5.30528">
        <ele>568.2</ele>
        <time>2015-02-08T09:34:51Z</time>
      </trkpt>
      <trkpt lat="43.79859" lon="5.30534">
        <ele>567.5</ele>
        <time>2015-02-08T09:34:58Z</time>
      </trkpt>
      <trkpt lat="43.7985" lon="5.30538">
        <ele>566.5</ele>
        <time>2015-02-08T09:35:05Z</time>
      </trkpt>
      <trkpt lat="43.7984" lon="5.30539">
        <ele>565.5</ele>
        <time>2015-02-08T09:35:12Z</time>
      </trkpt>
      <trkpt lat="43.79831" lon="5.30541">
        <ele>564.9</ele>
        <time>2015-02-08T09:35:19Z</time>
      </trkpt>
      <trkpt lat="43.79823" lon="5.30548">
        <ele>564.4</ele>
        <time>2015-02-08T09:35:26Z</time>
      </trkpt>
      <trkpt lat="43.79815" lon="5.30555">
        <ele>564</ele>
        <time>2015-02-08T09:35:34Z</time>
      </trkpt>
      <trkpt lat="43.79806" lon="5.30554">
        <ele>563.7</ele>
        <time>2015-02-08T09:35:42Z</time>
      </trkpt>
      <trkpt lat="43.79796" lon="5.30557">
        <ele>563.7</ele>
        <time>2015-02-08T09:35:48Z</time>
      </trkpt>
      <trkpt lat="43.79786" lon="5.30559">
        <ele>563.7</ele>
        <time>2015-02-08T09:35:54Z</time>
      </trkpt>
      <trkpt lat="43.79777" lon="5.30564">
        <ele>563.7</ele>
        <time>2015-02-08T09:36:00Z</time>
      </trkpt>
      <trkpt lat="43.79767" lon="5.30567">
        <ele>563.7</ele>
        <time>2015-02-08T09:36:08Z</time>
      </trkpt>
      <trkpt lat="43.79758" lon="5.30572">
        <ele>563.7</ele>
        <time>2015-02-08T09:36:14Z</time>
      </trkpt>
      <trkpt lat="43.7975" lon="5.30579">
        <ele>563.6</ele>
        <time>2015-02-08T09:36:20Z</time>
      </trkpt>
      <trkpt lat="43.79742" lon="5.30587">
        <ele>563.3</ele>
        <time>2015-02-08T09:36:29Z</time>
      </trkpt>
      <trkpt lat="43.79734" lon="5.30594">
        <ele>563</ele>
        <time>2015-02-08T09:36:35Z</time>
      </trkpt>
      <trkpt lat="43.79724" lon="5.306">
        <ele>562.6</ele>
        <time>2015-02-08T09:36:42Z</time>
      </trkpt>
      <trkpt lat="43.79716" lon="5.30608">
        <ele>562.4</ele>
        <time>2015-02-08T09:36:48Z</time>
      </trkpt>
      <trkpt lat="43.79708" lon="5.30614">
        <ele>562.3</ele>
        <time>2015-02-08T09:36:54Z</time>
      </trkpt>
      <trkpt lat="43.79699" lon="5.30621">
        <ele>562.2</ele>
        <time>2015-02-08T09:37:01Z</time>
      </trkpt>
      <trkpt lat="43.79691" lon="5.30629">
        <ele>562</ele>
        <time>2015-02-08T09:37:07Z</time>
      </trkpt>
      <trkpt lat="43.79688" lon="5.30641">
        <ele>561.9</ele>
        <time>2015-02-08T09:37:13Z</time>
      </trkpt>
      <trkpt lat="43.79686" lon="5.30655">
        <ele>561.6</ele>
        <time>2015-02-08T09:37:20Z</time>
      </trkpt>
      <trkpt lat="43.79685" lon="5.30669">
        <ele>561</ele>
        <time>2015-02-08T09:37:26Z</time>
      </trkpt>
      <trkpt lat="43.79685" lon="5.30683">
        <ele>560.3</ele>
        <time>2015-02-08T09:37:34Z</time>
      </trkpt>
      <trkpt lat="43.79686" lon="5.30696">
        <ele>559.6</ele>
        <time>2015-02-08T09:37:41Z</time>
      </trkpt>
      <trkpt lat="43.79686" lon="5.3071">
        <ele>559.1</ele>
        <time>2015-02-08T09:37:47Z</time>
      </trkpt>
      <trkpt lat="43.79686" lon="5.30723">
        <ele>558.8</ele>
        <time>2015-02-08T09:37:53Z</time>
      </trkpt>
      <trkpt lat="43.79688" lon="5.30735">
        <ele>558.5</ele>
        <time>2015-02-08T09:37:59Z</time>
      </trkpt>
      <trkpt lat="43.79688" lon="5.30749">
        <ele>558.2</ele>
        <time>2015-02-08T09:38:05Z</time>
      </trkpt>
      <trkpt lat="43.79689" lon="5.30762">
        <ele>557.9</ele>
        <time>2015-02-08T09:38:11Z</time>
      </trkpt>
      <trkpt lat="43.7969" lon="5.30775">
        <ele>557.7</ele>
        <time>2015-02-08T09:38:18Z</time>
      </trkpt>
      <trkpt lat="43.79694" lon="5.30788">
        <ele>557.4</ele>
        <time>2015-02-08T09:38:24Z</time>
      </trkpt>
      <trkpt lat="43.79698" lon="5.30801">
        <ele>556.8</ele>
        <time>2015-02-08T09:38:30Z</time>
      </trkpt>
      <trkpt lat="43.79699" lon="5.30815">
        <ele>556</ele>
        <time>2015-02-08T09:38:37Z</time>
      </trkpt>
      <trkpt lat="43.79698" lon="5.30828">
        <ele>555.2</ele>
        <time>2015-02-08T09:38:43Z</time>
      </trkpt>
      <trkpt lat="43.79697" lon="5.30841">
        <ele>554.4</ele>
        <time>2015-02-08T09:38:50Z</time>
      </trkpt>
      <trkpt lat="43.79694" lon="5.30854">
        <ele>553.7</ele>
        <time>2015-02-08T09:38:56Z</time>
      </trkpt>
      <trkpt lat="43.79687" lon="5.30863">
        <ele>552.9</ele>
        <time>2015-02-08T09:39:02Z</time>
      </trkpt>
      <trkpt lat="43.7968" lon="5.30873">
        <ele>552.4</ele>
        <time>2015-02-08T09:39:09Z</time>
      </trkpt>
      <trkpt lat="43.79673" lon="5.30883">
        <ele>552</ele>
        <time>2015-02-08T09:39:17Z</time>
      </trkpt>
      <trkpt lat="43.79668" lon="5.30894">
        <ele>551.9</ele>
        <time>2015-02-08T09:39:24Z</time>
      </trkpt>
      <trkpt lat="43.7966" lon="5.30903">
        <ele>551.8</ele>
        <time>2015-02-08T09:39:31Z</time>
      </trkpt>
      <trkpt lat="43.79654" lon="5.30913">
        <ele>551.5</ele>
        <time>2015-02-08T09:39:38Z</time>
      </trkpt>
      <trkpt lat="43.7965" lon="5.30925">
        <ele>550.7</ele>
        <time>2015-02-08T09:39:44Z</time>
      </trkpt>
      <trkpt lat="43.79646" lon="5.30937">
        <ele>549.7</ele>
        <time>2015-02-08T09:39:51Z</time>
      </trkpt>
      <trkpt lat="43.79642" lon="5.30949">
        <ele>549.1</ele>
        <time>2015-02-08T09:39:56Z</time>
      </trkpt>
      <trkpt lat="43.79639" lon="5.30962">
        <ele>547.7</ele>
        <time>2015-02-08T09:40:04Z</time>
      </trkpt>
      <trkpt lat="43.79639" lon="5.30975">
        <ele>546.4</ele>
        <time>2015-02-08T09:40:10Z</time>
      </trkpt>
      <trkpt lat="43.79634" lon="5.30988">
        <ele>544.9</ele>
        <time>2015-02-08T09:40:16Z</time>
      </trkpt>
      <trkpt lat="43.7963" lon="5.31">
        <ele>543.6</ele>
        <time>2015-02-08T09:40:21Z</time>
      </trkpt>
      <trkpt lat="43.79624" lon="5.31012">
        <ele>542.6</ele>
        <time>2015-02-08T09:40:26Z</time>
      </trkpt>
      <trkpt lat="43.79619" lon="5.31022">
        <ele>541.7</ele>
        <time>2015-02-08T09:40:31Z</time>
      </trkpt>
      <trkpt lat="43.79613" lon="5.31032">
        <ele>540.5</ele>
        <time>2015-02-08T09:40:38Z</time>
      </trkpt>
      <trkpt lat="43.79605" lon="5.31041">
        <ele>539.7</ele>
        <time>2015-02-08T09:40:43Z</time>
      </trkpt>
      <trkpt lat="43.79598" lon="5.31051">
        <ele>538.5</ele>
        <time>2015-02-08T09:40:50Z</time>
      </trkpt>
      <trkpt lat="43.79593" lon="5.31063">
        <ele>537.6</ele>
        <time>2015-02-08T09:40:56Z</time>
      </trkpt>
      <trkpt lat="43.79594" lon="5.31076">
        <ele>536.8</ele>
        <time>2015-02-08T09:41:01Z</time>
      </trkpt>
      <trkpt lat="43.79593" lon="5.3109">
        <ele>535.6</ele>
        <time>2015-02-08T09:41:08Z</time>
      </trkpt>
      <trkpt lat="43.79586" lon="5.311">
        <ele>534.4</ele>
        <time>2015-02-08T09:41:17Z</time>
      </trkpt>
      <trkpt lat="43.79578" lon="5.31106">
        <ele>533.8</ele>
        <time>2015-02-08T09:41:24Z</time>
      </trkpt>
      <trkpt lat="43.79569" lon="5.31112">
        <ele>533.5</ele>
        <time>2015-02-08T09:41:30Z</time>
      </trkpt>
      <trkpt lat="43.79563" lon="5.31121">
        <ele>533.2</ele>
        <time>2015-02-08T09:41:36Z</time>
      </trkpt>
      <trkpt lat="43.79556" lon="5.31129">
        <ele>533.1</ele>
        <time>2015-02-08T09:41:42Z</time>
      </trkpt>
      <trkpt lat="43.79548" lon="5.31137">
        <ele>532.9</ele>
        <time>2015-02-08T09:41:49Z</time>
      </trkpt>
      <trkpt lat="43.7954" lon="5.31142">
        <ele>532.7</ele>
        <time>2015-02-08T09:41:56Z</time>
      </trkpt>
      <trkpt lat="43.7953" lon="5.31147">
        <ele>532.6</ele>
        <time>2015-02-08T09:42:01Z</time>
      </trkpt>
      <trkpt lat="43.79528" lon="5.3116">
        <ele>532.5</ele>
        <time>2015-02-08T09:42:08Z</time>
      </trkpt>
      <trkpt lat="43.79529" lon="5.31173">
        <ele>532</ele>
        <time>2015-02-08T09:42:15Z</time>
      </trkpt>
      <trkpt lat="43.79534" lon="5.31185">
        <ele>531.5</ele>
        <time>2015-02-08T09:42:21Z</time>
      </trkpt>
      <trkpt lat="43.7954" lon="5.31196">
        <ele>530.2</ele>
        <time>2015-02-08T09:42:28Z</time>
      </trkpt>
      <trkpt lat="43.79547" lon="5.31206">
        <ele>529.3</ele>
        <time>2015-02-08T09:42:34Z</time>
      </trkpt>
      <trkpt lat="43.79541" lon="5.31216">
        <ele>526.9</ele>
        <time>2015-02-08T09:42:51Z</time>
      </trkpt>
      <trkpt lat="43.79532" lon="5.31219">
        <ele>526.7</ele>
        <time>2015-02-08T09:42:57Z</time>
      </trkpt>
      <trkpt lat="43.79522" lon="5.31219">
        <ele>527</ele>
        <time>2015-02-08T09:43:03Z</time>
      </trkpt>
      <trkpt lat="43.79513" lon="5.31219">
        <ele>527.2</ele>
        <time>2015-02-08T09:43:10Z</time>
      </trkpt>
      <trkpt lat="43.79504" lon="5.31217">
        <ele>527.6</ele>
        <time>2015-02-08T09:43:16Z</time>
      </trkpt>
      <trkpt lat="43.79494" lon="5.31217">
        <ele>528.3</ele>
        <time>2015-02-08T09:43:22Z</time>
      </trkpt>
      <trkpt lat="43.79484" lon="5.3122">
        <ele>529</ele>
        <time>2015-02-08T09:43:29Z</time>
      </trkpt>
      <trkpt lat="43.79475" lon="5.31226">
        <ele>529.7</ele>
        <time>2015-02-08T09:43:35Z</time>
      </trkpt>
      <trkpt lat="43.79466" lon="5.31231">
        <ele>530.6</ele>
        <time>2015-02-08T09:43:44Z</time>
      </trkpt>
      <trkpt lat="43.79456" lon="5.31231">
        <ele>531</ele>
        <time>2015-02-08T09:43:50Z</time>
      </trkpt>
      <trkpt lat="43.79447" lon="5.31232">
        <ele>531.3</ele>
        <time>2015-02-08T09:43:57Z</time>
      </trkpt>
      <trkpt lat="43.79438" lon="5.31235">
        <ele>531.6</ele>
        <time>2015-02-08T09:44:03Z</time>
      </trkpt>
      <trkpt lat="43.79428" lon="5.31236">
        <ele>532</ele>
        <time>2015-02-08T09:44:10Z</time>
      </trkpt>
      <trkpt lat="43.79418" lon="5.31236">
        <ele>532.3</ele>
        <time>2015-02-08T09:44:17Z</time>
      </trkpt>
      <trkpt lat="43.79408" lon="5.31236">
        <ele>532.5</ele>
        <time>2015-02-08T09:44:23Z</time>
      </trkpt>
      <trkpt lat="43.79399" lon="5.31236">
        <ele>532.9</ele>
        <time>2015-02-08T09:44:29Z</time>
      </trkpt>
      <trkpt lat="43.79389" lon="5.31236">
        <ele>533.2</ele>
        <time>2015-02-08T09:44:35Z</time>
      </trkpt>
      <trkpt lat="43.7938" lon="5.31236">
        <ele>533.2</ele>
        <time>2015-02-08T09:44:41Z</time>
      </trkpt>
      <trkpt lat="43.79371" lon="5.31236">
        <ele>533.2</ele>
        <time>2015-02-08T09:44:47Z</time>
      </trkpt>
      <trkpt lat="43.79361" lon="5.31234">
        <ele>533.6</ele>
        <time>2015-02-08T09:44:55Z</time>
      </trkpt>
      <trkpt lat="43.79352" lon="5.31228">
        <ele>533.9</ele>
        <time>2015-02-08T09:45:01Z</time>
      </trkpt>
      <trkpt lat="43.79344" lon="5.31221">
        <ele>534</ele>
        <time>2015-02-08T09:45:08Z</time>
      </trkpt>
      <trkpt lat="43.79336" lon="5.31213">
        <ele>533.7</ele>
        <time>2015-02-08T09:45:15Z</time>
      </trkpt>
      <trkpt lat="43.79329" lon="5.31204">
        <ele>533.5</ele>
        <time>2015-02-08T09:45:21Z</time>
      </trkpt>
      <trkpt lat="43.79324" lon="5.31192">
        <ele>533.4</ele>
        <time>2015-02-08T09:45:28Z</time>
      </trkpt>
      <trkpt lat="43.79319" lon="5.3118">
        <ele>533.2</ele>
        <time>2015-02-08T09:45:36Z</time>
      </trkpt>
      <trkpt lat="43.79314" lon="5.31169">
        <ele>532.9</ele>
        <time>2015-02-08T09:45:44Z</time>
      </trkpt>
      <trkpt lat="43.79304" lon="5.31165">
        <ele>532.6</ele>
        <time>2015-02-08T09:45:53Z</time>
      </trkpt>
      <trkpt lat="43.79295" lon="5.3116">
        <ele>532.2</ele>
        <time>2015-02-08T09:46:00Z</time>
      </trkpt>
      <trkpt lat="43.79285" lon="5.3116">
        <ele>531.7</ele>
        <time>2015-02-08T09:46:09Z</time>
      </trkpt>
      <trkpt lat="43.79274" lon="5.31162">
        <ele>530.9</ele>
        <time>2015-02-08T09:46:15Z</time>
      </trkpt>
      <trkpt lat="43.79265" lon="5.31165">
        <ele>530.8</ele>
        <time>2015-02-08T09:46:21Z</time>
      </trkpt>
      <trkpt lat="43.79255" lon="5.3117">
        <ele>530.9</ele>
        <time>2015-02-08T09:46:27Z</time>
      </trkpt>
      <trkpt lat="43.79246" lon="5.31175">
        <ele>530.9</ele>
        <time>2015-02-08T09:46:32Z</time>
      </trkpt>
      <trkpt lat="43.79235" lon="5.31182">
        <ele>530.9</ele>
        <time>2015-02-08T09:46:36Z</time>
      </trkpt>
      <trkpt lat="43.79227" lon="5.31188">
        <ele>530.8</ele>
        <time>2015-02-08T09:46:39Z</time>
      </trkpt>
      <trkpt lat="43.79219" lon="5.31194">
        <ele>530.8</ele>
        <time>2015-02-08T09:46:44Z</time>
      </trkpt>
      <trkpt lat="43.79209" lon="5.31197">
        <ele>531.2</ele>
        <time>2015-02-08T09:46:51Z</time>
      </trkpt>
      <trkpt lat="43.79199" lon="5.31198">
        <ele>531.5</ele>
        <time>2015-02-08T09:46:57Z</time>
      </trkpt>
      <trkpt lat="43.79188" lon="5.312">
        <ele>531.7</ele>
        <time>2015-02-08T09:47:02Z</time>
      </trkpt>
      <trkpt lat="43.79178" lon="5.31203">
        <ele>532</ele>
        <time>2015-02-08T09:47:06Z</time>
      </trkpt>
      <trkpt lat="43.79169" lon="5.31207">
        <ele>532.4</ele>
        <time>2015-02-08T09:47:12Z</time>
      </trkpt>
      <trkpt lat="43.79159" lon="5.31207">
        <ele>532.8</ele>
        <time>2015-02-08T09:47:19Z</time>
      </trkpt>
      <trkpt lat="43.79149" lon="5.3121">
        <ele>533.2</ele>
        <time>2015-02-08T09:47:26Z</time>
      </trkpt>
      <trkpt lat="43.79141" lon="5.31216">
        <ele>533.6</ele>
        <time>2015-02-08T09:47:32Z</time>
      </trkpt>
      <trkpt lat="43.79134" lon="5.31225">
        <ele>534</ele>
        <time>2015-02-08T09:47:37Z</time>
      </trkpt>
      <trkpt lat="43.79129" lon="5.31236">
        <ele>534.6</ele>
        <time>2015-02-08T09:47:44Z</time>
      </trkpt>
      <trkpt lat="43.79124" lon="5.3125">
        <ele>535</ele>
        <time>2015-02-08T09:47:50Z</time>
      </trkpt>
      <trkpt lat="43.79119" lon="5.31263">
        <ele>535.5</ele>
        <time>2015-02-08T09:47:55Z</time>
      </trkpt>
      <trkpt lat="43.79113" lon="5.31274">
        <ele>536</ele>
        <time>2015-02-08T09:47:59Z</time>
      </trkpt>
      <trkpt lat="43.79108" lon="5.31284">
        <ele>537.1</ele>
        <time>2015-02-08T09:48:04Z</time>
      </trkpt>
      <trkpt lat="43.79105" lon="5.31298">
        <ele>539</ele>
        <time>2015-02-08T09:48:12Z</time>
      </trkpt>
      <trkpt lat="43.791" lon="5.3131">
        <ele>540.5</ele>
        <time>2015-02-08T09:48:19Z</time>
      </trkpt>
      <trkpt lat="43.79095" lon="5.3132">
        <ele>541.8</ele>
        <time>2015-02-08T09:48:26Z</time>
      </trkpt>
      <trkpt lat="43.79089" lon="5.31331">
        <ele>543.3</ele>
        <time>2015-02-08T09:48:33Z</time>
      </trkpt>
      <trkpt lat="43.79082" lon="5.31342">
        <ele>544.5</ele>
        <time>2015-02-08T09:48:40Z</time>
      </trkpt>
      <trkpt lat="43.79077" lon="5.31352">
        <ele>545.6</ele>
        <time>2015-02-08T09:48:46Z</time>
      </trkpt>
      <trkpt lat="43.79072" lon="5.31365">
        <ele>546.3</ele>
        <time>2015-02-08T09:48:54Z</time>
      </trkpt>
      <trkpt lat="43.79068" lon="5.31377">
        <ele>546.8</ele>
        <time>2015-02-08T09:49:00Z</time>
      </trkpt>
      <trkpt lat="43.79066" lon="5.31391">
        <ele>547.3</ele>
        <time>2015-02-08T09:49:06Z</time>
      </trkpt>
      <trkpt lat="43.79067" lon="5.31405">
        <ele>548.1</ele>
        <time>2015-02-08T09:49:13Z</time>
      </trkpt>
      <trkpt lat="43.79069" lon="5.31418">
        <ele>548.4</ele>
        <time>2015-02-08T09:49:20Z</time>
      </trkpt>
      <trkpt lat="43.79069" lon="5.31432">
        <ele>548.3</ele>
        <time>2015-02-08T09:49:28Z</time>
      </trkpt>
      <trkpt lat="43.79069" lon="5.31444">
        <ele>548</ele>
        <time>2015-02-08T09:49:35Z</time>
      </trkpt>
      <trkpt lat="43.7907" lon="5.31458">
        <ele>547.9</ele>
        <time>2015-02-08T09:49:41Z</time>
      </trkpt>
      <trkpt lat="43.79074" lon="5.31471">
        <ele>547.7</ele>
        <time>2015-02-08T09:49:47Z</time>
      </trkpt>
      <trkpt lat="43.7908" lon="5.31482">
        <ele>547.2</ele>
        <time>2015-02-08T09:49:53Z</time>
      </trkpt>
      <trkpt lat="43.79086" lon="5.31492">
        <ele>546.6</ele>
        <time>2015-02-08T09:50:00Z</time>
      </trkpt>
      <trkpt lat="43.79094" lon="5.31501">
        <ele>546</ele>
        <time>2015-02-08T09:50:07Z</time>
      </trkpt>
      <trkpt lat="43.79103" lon="5.31508">
        <ele>545.2</ele>
        <time>2015-02-08T09:50:13Z</time>
      </trkpt>
      <trkpt lat="43.7911" lon="5.31515">
        <ele>544.3</ele>
        <time>2015-02-08T09:50:20Z</time>
      </trkpt>
      <trkpt lat="43.79115" lon="5.31528">
        <ele>543.4</ele>
        <time>2015-02-08T09:50:27Z</time>
      </trkpt>
      <trkpt lat="43.79116" lon="5.31541">
        <ele>542.6</ele>
        <time>2015-02-08T09:50:34Z</time>
      </trkpt>
      <trkpt lat="43.79117" lon="5.31554">
        <ele>540.9</ele>
        <time>2015-02-08T09:50:54Z</time>
      </trkpt>
      <trkpt lat="43.79118" lon="5.31566">
        <ele>540.7</ele>
        <time>2015-02-08T09:50:59Z</time>
      </trkpt>
      <trkpt lat="43.79117" lon="5.3158">
        <ele>540.3</ele>
        <time>2015-02-08T09:51:04Z</time>
      </trkpt>
      <trkpt lat="43.79113" lon="5.31594">
        <ele>539.7</ele>
        <time>2015-02-08T09:51:08Z</time>
      </trkpt>
      <trkpt lat="43.79109" lon="5.3161">
        <ele>539.4</ele>
        <time>2015-02-08T09:51:12Z</time>
      </trkpt>
      <trkpt lat="43.79107" lon="5.31623">
        <ele>539.1</ele>
        <time>2015-02-08T09:51:15Z</time>
      </trkpt>
      <trkpt lat="43.79106" lon="5.31638">
        <ele>538.9</ele>
        <time>2015-02-08T09:51:18Z</time>
      </trkpt>
      <trkpt lat="43.79104" lon="5.31653">
        <ele>538.8</ele>
        <time>2015-02-08T09:51:21Z</time>
      </trkpt>
      <trkpt lat="43.79101" lon="5.31667">
        <ele>538.6</ele>
        <time>2015-02-08T09:51:25Z</time>
      </trkpt>
      <trkpt lat="43.79099" lon="5.3168">
        <ele>538.5</ele>
        <time>2015-02-08T09:51:30Z</time>
      </trkpt>
      <trkpt lat="43.79096" lon="5.31693">
        <ele>538.3</ele>
        <time>2015-02-08T09:51:36Z</time>
      </trkpt>
      <trkpt lat="43.79094" lon="5.31706">
        <ele>538.2</ele>
        <time>2015-02-08T09:51:41Z</time>
      </trkpt>
      <trkpt lat="43.7909" lon="5.31718">
        <ele>537.8</ele>
        <time>2015-02-08T09:51:46Z</time>
      </trkpt>
      <trkpt lat="43.79084" lon="5.31731">
        <ele>537.5</ele>
        <time>2015-02-08T09:51:52Z</time>
      </trkpt>
      <trkpt lat="43.7908" lon="5.31742">
        <ele>537.2</ele>
        <time>2015-02-08T09:51:57Z</time>
      </trkpt>
      <trkpt lat="43.79073" lon="5.31753">
        <ele>537</ele>
        <time>2015-02-08T09:52:04Z</time>
      </trkpt>
      <trkpt lat="43.79068" lon="5.31764">
        <ele>537.2</ele>
        <time>2015-02-08T09:52:11Z</time>
      </trkpt>
      <trkpt lat="43.79062" lon="5.31777">
        <ele>537.3</ele>
        <time>2015-02-08T09:52:18Z</time>
      </trkpt>
      <trkpt lat="43.79061" lon="5.3179">
        <ele>537.4</ele>
        <time>2015-02-08T09:52:25Z</time>
      </trkpt>
      <trkpt lat="43.79061" lon="5.31804">
        <ele>537.5</ele>
        <time>2015-02-08T09:52:30Z</time>
      </trkpt>
      <trkpt lat="43.79062" lon="5.31817">
        <ele>537.8</ele>
        <time>2015-02-08T09:52:36Z</time>
      </trkpt>
      <trkpt lat="43.79064" lon="5.31829">
        <ele>538.1</ele>
        <time>2015-02-08T09:52:41Z</time>
      </trkpt>
      <trkpt lat="43.79069" lon="5.31841">
        <ele>538.5</ele>
        <time>2015-02-08T09:52:47Z</time>
      </trkpt>
      <trkpt lat="43.79076" lon="5.31851">
        <ele>538.7</ele>
        <time>2015-02-08T09:52:53Z</time>
      </trkpt>
      <trkpt lat="43.79083" lon="5.3186">
        <ele>539</ele>
        <time>2015-02-08T09:52:59Z</time>
      </trkpt>
      <trkpt lat="43.79091" lon="5.31868">
        <ele>539.2</ele>
        <time>2015-02-08T09:53:06Z</time>
      </trkpt>
      <trkpt lat="43.791" lon="5.31877">
        <ele>539.4</ele>
        <time>2015-02-08T09:53:13Z</time>
      </trkpt>
      <trkpt lat="43.79108" lon="5.31885">
        <ele>539.5</ele>
        <time>2015-02-08T09:53:19Z</time>
      </trkpt>
      <trkpt lat="43.79115" lon="5.31893">
        <ele>538.9</ele>
        <time>2015-02-08T09:53:26Z</time>
      </trkpt>
      <trkpt lat="43.79123" lon="5.31901">
        <ele>538</ele>
        <time>2015-02-08T09:53:33Z</time>
      </trkpt>
      <trkpt lat="43.79132" lon="5.31908">
        <ele>537.1</ele>
        <time>2015-02-08T09:53:39Z</time>
      </trkpt>
      <trkpt lat="43.79141" lon="5.31914">
        <ele>535.6</ele>
        <time>2015-02-08T09:53:45Z</time>
      </trkpt>
      <trkpt lat="43.79147" lon="5.31925">
        <ele>534.4</ele>
        <time>2015-02-08T09:53:51Z</time>
      </trkpt>
      <trkpt lat="43.79151" lon="5.31937">
        <ele>533.2</ele>
        <time>2015-02-08T09:53:57Z</time>
      </trkpt>
      <trkpt lat="43.79157" lon="5.31947">
        <ele>532.1</ele>
        <time>2015-02-08T09:54:03Z</time>
      </trkpt>
      <trkpt lat="43.79164" lon="5.31959">
        <ele>531.3</ele>
        <time>2015-02-08T09:54:08Z</time>
      </trkpt>
      <trkpt lat="43.79166" lon="5.31972">
        <ele>530.4</ele>
        <time>2015-02-08T09:54:13Z</time>
      </trkpt>
      <trkpt lat="43.79168" lon="5.31987">
        <ele>529.5</ele>
        <time>2015-02-08T09:54:19Z</time>
      </trkpt>
      <trkpt lat="43.79167" lon="5.32">
        <ele>528.8</ele>
        <time>2015-02-08T09:54:25Z</time>
      </trkpt>
      <trkpt lat="43.79165" lon="5.32013">
        <ele>528.2</ele>
        <time>2015-02-08T09:54:31Z</time>
      </trkpt>
      <trkpt lat="43.79165" lon="5.32027">
        <ele>527.8</ele>
        <time>2015-02-08T09:54:39Z</time>
      </trkpt>
      <trkpt lat="43.79167" lon="5.32041">
        <ele>527.1</ele>
        <time>2015-02-08T09:54:46Z</time>
      </trkpt>
      <trkpt lat="43.7917" lon="5.32053">
        <ele>526.5</ele>
        <time>2015-02-08T09:54:52Z</time>
      </trkpt>
      <trkpt lat="43.79171" lon="5.32067">
        <ele>525.7</ele>
        <time>2015-02-08T09:54:58Z</time>
      </trkpt>
      <trkpt lat="43.79169" lon="5.32081">
        <ele>524.5</ele>
        <time>2015-02-08T09:55:04Z</time>
      </trkpt>
      <trkpt lat="43.79159" lon="5.32085">
        <ele>524.1</ele>
        <time>2015-02-08T09:55:10Z</time>
      </trkpt>
      <trkpt lat="43.79149" lon="5.32088">
        <ele>523.9</ele>
        <time>2015-02-08T09:55:16Z</time>
      </trkpt>
      <trkpt lat="43.7914" lon="5.32089">
        <ele>523.6</ele>
        <time>2015-02-08T09:55:21Z</time>
      </trkpt>
      <trkpt lat="43.79131" lon="5.32087">
        <ele>523.2</ele>
        <time>2015-02-08T09:55:26Z</time>
      </trkpt>
      <trkpt lat="43.79121" lon="5.32085">
        <ele>522.8</ele>
        <time>2015-02-08T09:55:31Z</time>
      </trkpt>
      <trkpt lat="43.7911" lon="5.32082">
        <ele>522</ele>
        <time>2015-02-08T09:55:36Z</time>
      </trkpt>
      <trkpt lat="43.791" lon="5.3208">
        <ele>521.1</ele>
        <time>2015-02-08T09:55:42Z</time>
      </trkpt>
      <trkpt lat="43.7909" lon="5.32078">
        <ele>520.5</ele>
        <time>2015-02-08T09:55:48Z</time>
      </trkpt>
      <trkpt lat="43.79081" lon="5.32079">
        <ele>519.8</ele>
        <time>2015-02-08T09:55:54Z</time>
      </trkpt>
      <trkpt lat="43.79071" lon="5.32078">
        <ele>518.9</ele>
        <time>2015-02-08T09:56:01Z</time>
      </trkpt>
      <trkpt lat="43.7906" lon="5.32077">
        <ele>517.9</ele>
        <time>2015-02-08T09:56:08Z</time>
      </trkpt>
      <trkpt lat="43.7905" lon="5.32077">
        <ele>517</ele>
        <time>2015-02-08T09:56:15Z</time>
      </trkpt>
      <trkpt lat="43.79039" lon="5.32077">
        <ele>516.3</ele>
        <time>2015-02-08T09:56:22Z</time>
      </trkpt>
      <trkpt lat="43.7903" lon="5.32074">
        <ele>515.5</ele>
        <time>2015-02-08T09:56:30Z</time>
      </trkpt>
      <trkpt lat="43.79021" lon="5.32071">
        <ele>514.8</ele>
        <time>2015-02-08T09:56:38Z</time>
      </trkpt>
      <trkpt lat="43.79012" lon="5.32071">
        <ele>514.2</ele>
        <time>2015-02-08T09:56:45Z</time>
      </trkpt>
      <trkpt lat="43.79002" lon="5.32071">
        <ele>513.2</ele>
        <time>2015-02-08T09:56:52Z</time>
      </trkpt>
      <trkpt lat="43.78991" lon="5.32074">
        <ele>512.7</ele>
        <time>2015-02-08T09:56:58Z</time>
      </trkpt>
      <trkpt lat="43.78985" lon="5.32084">
        <ele>511.7</ele>
        <time>2015-02-08T09:57:09Z</time>
      </trkpt>
      <trkpt lat="43.78981" lon="5.32097">
        <ele>511</ele>
        <time>2015-02-08T09:57:18Z</time>
      </trkpt>
      <trkpt lat="43.78983" lon="5.3211">
        <ele>511</ele>
        <time>2015-02-08T09:57:22Z</time>
      </trkpt>
      <trkpt lat="43.78979" lon="5.32125">
        <ele>511.3</ele>
        <time>2015-02-08T09:57:27Z</time>
      </trkpt>
      <trkpt lat="43.78982" lon="5.32138">
        <ele>512</ele>
        <time>2015-02-08T09:57:33Z</time>
      </trkpt>
      <trkpt lat="43.78983" lon="5.32152">
        <ele>513.2</ele>
        <time>2015-02-08T09:57:41Z</time>
      </trkpt>
      <trkpt lat="43.78983" lon="5.32166">
        <ele>513.8</ele>
        <time>2015-02-08T09:57:47Z</time>
      </trkpt>
      <trkpt lat="43.78982" lon="5.32179">
        <ele>514.4</ele>
        <time>2015-02-08T09:57:53Z</time>
      </trkpt>
      <trkpt lat="43.78987" lon="5.3219">
        <ele>515</ele>
        <time>2015-02-08T09:57:58Z</time>
      </trkpt>
      <trkpt lat="43.78986" lon="5.32203">
        <ele>515.6</ele>
        <time>2015-02-08T09:58:04Z</time>
      </trkpt>
      <trkpt lat="43.78988" lon="5.32216">
        <ele>516.7</ele>
        <time>2015-02-08T09:58:11Z</time>
      </trkpt>
      <trkpt lat="43.78992" lon="5.32229">
        <ele>518.2</ele>
        <time>2015-02-08T09:58:19Z</time>
      </trkpt>
      <trkpt lat="43.78994" lon="5.32242">
        <ele>519.8</ele>
        <time>2015-02-08T09:58:28Z</time>
      </trkpt>
      <trkpt lat="43.78994" lon="5.32255">
        <ele>521.1</ele>
        <time>2015-02-08T09:58:35Z</time>
      </trkpt>
      <trkpt lat="43.78985" lon="5.3226">
        <ele>521.6</ele>
        <time>2015-02-08T09:58:43Z</time>
      </trkpt>
      <trkpt lat="43.78993" lon="5.3227">
        <ele>521.8</ele>
        <time>2015-02-08T09:58:49Z</time>
      </trkpt>
      <trkpt lat="43.78984" lon="5.32272">
        <ele>521.9</ele>
        <time>2015-02-08T09:58:58Z</time>
      </trkpt>
      <trkpt lat="43.78974" lon="5.32274">
        <ele>522</ele>
        <time>2015-02-08T09:59:03Z</time>
      </trkpt>
      <trkpt lat="43.78964" lon="5.32277">
        <ele>521.9</ele>
        <time>2015-02-08T09:59:08Z</time>
      </trkpt>
      <trkpt lat="43.78955" lon="5.32278">
        <ele>521.8</ele>
        <time>2015-02-08T09:59:13Z</time>
      </trkpt>
      <trkpt lat="43.78946" lon="5.32278">
        <ele>521.5</ele>
        <time>2015-02-08T09:59:18Z</time>
      </trkpt>
      <trkpt lat="43.78937" lon="5.32283">
        <ele>521.5</ele>
        <time>2015-02-08T09:59:24Z</time>
      </trkpt>
      <trkpt lat="43.78927" lon="5.32289">
        <ele>521</ele>
        <time>2015-02-08T09:59:31Z</time>
      </trkpt>
      <trkpt lat="43.78921" lon="5.323">
        <ele>520.5</ele>
        <time>2015-02-08T09:59:37Z</time>
      </trkpt>
      <trkpt lat="43.78914" lon="5.32309">
        <ele>520.1</ele>
        <time>2015-02-08T09:59:44Z</time>
      </trkpt>
      <trkpt lat="43.7891" lon="5.32321">
        <ele>519.9</ele>
        <time>2015-02-08T09:59:50Z</time>
      </trkpt>
      <trkpt lat="43.78905" lon="5.32332">
        <ele>519.7</ele>
        <time>2015-02-08T09:59:57Z</time>
      </trkpt>
      <trkpt lat="43.789" lon="5.32342">
        <ele>519.4</ele>
        <time>2015-02-08T10:00:03Z</time>
      </trkpt>
      <trkpt lat="43.78895" lon="5.32353">
        <ele>519.1</ele>
        <time>2015-02-08T10:00:09Z</time>
      </trkpt>
      <trkpt lat="43.7889" lon="5.32364">
        <ele>518.9</ele>
        <time>2015-02-08T10:00:15Z</time>
      </trkpt>
      <trkpt lat="43.78888" lon="5.32377">
        <ele>518.7</ele>
        <time>2015-02-08T10:00:22Z</time>
      </trkpt>
      <trkpt lat="43.78887" lon="5.3239">
        <ele>518.6</ele>
        <time>2015-02-08T10:00:28Z</time>
      </trkpt>
      <trkpt lat="43.78886" lon="5.32403">
        <ele>518.4</ele>
        <time>2015-02-08T10:00:34Z</time>
      </trkpt>
      <trkpt lat="43.78885" lon="5.32416">
        <ele>518.2</ele>
        <time>2015-02-08T10:00:41Z</time>
      </trkpt>
      <trkpt lat="43.78883" lon="5.32429">
        <ele>518.2</ele>
        <time>2015-02-08T10:00:48Z</time>
      </trkpt>
      <trkpt lat="43.78882" lon="5.32442">
        <ele>518.3</ele>
        <time>2015-02-08T10:00:54Z</time>
      </trkpt>
      <trkpt lat="43.78879" lon="5.32457">
        <ele>518.1</ele>
        <time>2015-02-08T10:01:00Z</time>
      </trkpt>
      <trkpt lat="43.7888" lon="5.32471">
        <ele>518.2</ele>
        <time>2015-02-08T10:01:06Z</time>
      </trkpt>
      <trkpt lat="43.78879" lon="5.32483">
        <ele>518.2</ele>
        <time>2015-02-08T10:01:12Z</time>
      </trkpt>
      <trkpt lat="43.78881" lon="5.32496">
        <ele>518.1</ele>
        <time>2015-02-08T10:01:20Z</time>
      </trkpt>
      <trkpt lat="43.78877" lon="5.32508">
        <ele>517.9</ele>
        <time>2015-02-08T10:01:25Z</time>
      </trkpt>
      <trkpt lat="43.7888" lon="5.32522">
        <ele>517.6</ele>
        <time>2015-02-08T10:01:30Z</time>
      </trkpt>
      <trkpt lat="43.7888" lon="5.32535">
        <ele>517.8</ele>
        <time>2015-02-08T10:01:37Z</time>
      </trkpt>
      <trkpt lat="43.78878" lon="5.32548">
        <ele>518.1</ele>
        <time>2015-02-08T10:01:43Z</time>
      </trkpt>
      <trkpt lat="43.78875" lon="5.32561">
        <ele>517.9</ele>
        <time>2015-02-08T10:01:48Z</time>
      </trkpt>
      <trkpt lat="43.78877" lon="5.32574">
        <ele>517.6</ele>
        <time>2015-02-08T10:01:53Z</time>
      </trkpt>
      <trkpt lat="43.78869" lon="5.32579">
        <ele>517.5</ele>
        <time>2015-02-08T10:01:55Z</time>
      </trkpt>
      <trkpt lat="43.78868" lon="5.32592">
        <ele>517.3</ele>
        <time>2015-02-08T10:02:01Z</time>
      </trkpt>
      <trkpt lat="43.78869" lon="5.32605">
        <ele>517.2</ele>
        <time>2015-02-08T10:02:07Z</time>
      </trkpt>
      <trkpt lat="43.78869" lon="5.32619">
        <ele>516.9</ele>
        <time>2015-02-08T10:02:13Z</time>
      </trkpt>
      <trkpt lat="43.7887" lon="5.32633">
        <ele>516.7</ele>
        <time>2015-02-08T10:02:19Z</time>
      </trkpt>
      <trkpt lat="43.78868" lon="5.32645">
        <ele>516.3</ele>
        <time>2015-02-08T10:02:24Z</time>
      </trkpt>
      <trkpt lat="43.78868" lon="5.32658">
        <ele>516</ele>
        <time>2015-02-08T10:02:29Z</time>
      </trkpt>
      <trkpt lat="43.78867" lon="5.32671">
        <ele>515.6</ele>
        <time>2015-02-08T10:02:35Z</time>
      </trkpt>
      <trkpt lat="43.78866" lon="5.32684">
        <ele>515.2</ele>
        <time>2015-02-08T10:02:41Z</time>
      </trkpt>
      <trkpt lat="43.78862" lon="5.32695">
        <ele>515</ele>
        <time>2015-02-08T10:02:47Z</time>
      </trkpt>
      <trkpt lat="43.7886" lon="5.3271">
        <ele>514.8</ele>
        <time>2015-02-08T10:02:52Z</time>
      </trkpt>
      <trkpt lat="43.78861" lon="5.32724">
        <ele>514.5</ele>
        <time>2015-02-08T10:02:57Z</time>
      </trkpt>
      <trkpt lat="43.78859" lon="5.32737">
        <ele>514.2</ele>
        <time>2015-02-08T10:03:02Z</time>
      </trkpt>
      <trkpt lat="43.78855" lon="5.32748">
        <ele>513.9</ele>
        <time>2015-02-08T10:03:07Z</time>
      </trkpt>
      <trkpt lat="43.7886" lon="5.32761">
        <ele>513.6</ele>
        <time>2015-02-08T10:03:12Z</time>
      </trkpt>
      <trkpt lat="43.78856" lon="5.32774">
        <ele>513.1</ele>
        <time>2015-02-08T10:03:20Z</time>
      </trkpt>
      <trkpt lat="43.78848" lon="5.32784">
        <ele>512.7</ele>
        <time>2015-02-08T10:03:26Z</time>
      </trkpt>
      <trkpt lat="43.7884" lon="5.32792">
        <ele>512</ele>
        <time>2015-02-08T10:03:32Z</time>
      </trkpt>
      <trkpt lat="43.78834" lon="5.32802">
        <ele>511</ele>
        <time>2015-02-08T10:03:39Z</time>
      </trkpt>
      <trkpt lat="43.7883" lon="5.32813">
        <ele>510.2</ele>
        <time>2015-02-08T10:03:45Z</time>
      </trkpt>
      <trkpt lat="43.78823" lon="5.32822">
        <ele>508.9</ele>
        <time>2015-02-08T10:03:52Z</time>
      </trkpt>
      <trkpt lat="43.78816" lon="5.32834">
        <ele>508.2</ele>
        <time>2015-02-08T10:03:58Z</time>
      </trkpt>
      <trkpt lat="43.78811" lon="5.32844">
        <ele>507.6</ele>
        <time>2015-02-08T10:04:03Z</time>
      </trkpt>
      <trkpt lat="43.78806" lon="5.32856">
        <ele>507</ele>
        <time>2015-02-08T10:04:09Z</time>
      </trkpt>
      <trkpt lat="43.78802" lon="5.32867">
        <ele>506.7</ele>
        <time>2015-02-08T10:04:14Z</time>
      </trkpt>
      <trkpt lat="43.78796" lon="5.32879">
        <ele>506.1</ele>
        <time>2015-02-08T10:04:21Z</time>
      </trkpt>
      <trkpt lat="43.78793" lon="5.32891">
        <ele>505.6</ele>
        <time>2015-02-08T10:04:26Z</time>
      </trkpt>
      <trkpt lat="43.78789" lon="5.32903">
        <ele>505.1</ele>
        <time>2015-02-08T10:04:32Z</time>
      </trkpt>
      <trkpt lat="43.78791" lon="5.32917">
        <ele>504.6</ele>
        <time>2015-02-08T10:04:37Z</time>
      </trkpt>
      <trkpt lat="43.7879" lon="5.32931">
        <ele>504</ele>
        <time>2015-02-08T10:04:43Z</time>
      </trkpt>
      <trkpt lat="43.78787" lon="5.32944">
        <ele>502.9</ele>
        <time>2015-02-08T10:04:50Z</time>
      </trkpt>
      <trkpt lat="43.7878" lon="5.32954">
        <ele>501.7</ele>
        <time>2015-02-08T10:04:58Z</time>
      </trkpt>
      <trkpt lat="43.78773" lon="5.32965">
        <ele>500.4</ele>
        <time>2015-02-08T10:05:06Z</time>
      </trkpt>
      <trkpt lat="43.7877" lon="5.32977">
        <ele>499.7</ele>
        <time>2015-02-08T10:05:10Z</time>
      </trkpt>
      <trkpt lat="43.78764" lon="5.32989">
        <ele>498.9</ele>
        <time>2015-02-08T10:05:17Z</time>
      </trkpt>
      <trkpt lat="43.78773" lon="5.32985">
        <ele>496.3</ele>
        <time>2015-02-08T10:07:53Z</time>
      </trkpt>
      <trkpt lat="43.78782" lon="5.32985">
        <ele>495.6</ele>
        <time>2015-02-08T10:08:01Z</time>
      </trkpt>
      <trkpt lat="43.78792" lon="5.32986">
        <ele>494.8</ele>
        <time>2015-02-08T10:08:06Z</time>
      </trkpt>
      <trkpt lat="43.78801" lon="5.32983">
        <ele>492.4</ele>
        <time>2015-02-08T10:08:16Z</time>
      </trkpt>
      <trkpt lat="43.78811" lon="5.3298">
        <ele>489.7</ele>
        <time>2015-02-08T10:08:26Z</time>
      </trkpt>
      <trkpt lat="43.7882" lon="5.32974">
        <ele>487.8</ele>
        <time>2015-02-08T10:08:33Z</time>
      </trkpt>
      <trkpt lat="43.7883" lon="5.32971">
        <ele>485.6</ele>
        <time>2015-02-08T10:08:40Z</time>
      </trkpt>
      <trkpt lat="43.78838" lon="5.32964">
        <ele>483.4</ele>
        <time>2015-02-08T10:08:47Z</time>
      </trkpt>
      <trkpt lat="43.78847" lon="5.32959">
        <ele>481.8</ele>
        <time>2015-02-08T10:08:52Z</time>
      </trkpt>
      <trkpt lat="43.78856" lon="5.32954">
        <ele>479.4</ele>
        <time>2015-02-08T10:09:00Z</time>
      </trkpt>
      <trkpt lat="43.78864" lon="5.32949">
        <ele>478.4</ele>
        <time>2015-02-08T10:09:04Z</time>
      </trkpt>
      <trkpt lat="43.78873" lon="5.32941">
        <ele>476.6</ele>
        <time>2015-02-08T10:09:10Z</time>
      </trkpt>
      <trkpt lat="43.78882" lon="5.32935">
        <ele>474.6</ele>
        <time>2015-02-08T10:09:16Z</time>
      </trkpt>
      <trkpt lat="43.7889" lon="5.32927">
        <ele>472.3</ele>
        <time>2015-02-08T10:09:23Z</time>
      </trkpt>
      <trkpt lat="43.78899" lon="5.32922">
        <ele>469.6</ele>
        <time>2015-02-08T10:09:31Z</time>
      </trkpt>
      <trkpt lat="43.78907" lon="5.32915">
        <ele>466.3</ele>
        <time>2015-02-08T10:09:40Z</time>
      </trkpt>
      <trkpt lat="43.78916" lon="5.32912">
        <ele>462.8</ele>
        <time>2015-02-08T10:09:50Z</time>
      </trkpt>
      <trkpt lat="43.78925" lon="5.32907">
        <ele>460.1</ele>
        <time>2015-02-08T10:09:57Z</time>
      </trkpt>
      <trkpt lat="43.78931" lon="5.32897">
        <ele>455.9</ele>
        <time>2015-02-08T10:10:12Z</time>
      </trkpt>
      <trkpt lat="43.7894" lon="5.32895">
        <ele>452.9</ele>
        <time>2015-02-08T10:10:22Z</time>
      </trkpt>
      <trkpt lat="43.78949" lon="5.32891">
        <ele>449.7</ele>
        <time>2015-02-08T10:10:32Z</time>
      </trkpt>
      <trkpt lat="43.78959" lon="5.32888">
        <ele>446.9</ele>
        <time>2015-02-08T10:10:40Z</time>
      </trkpt>
      <trkpt lat="43.78967" lon="5.32884">
        <ele>444.1</ele>
        <time>2015-02-08T10:10:47Z</time>
      </trkpt>
      <trkpt lat="43.78975" lon="5.32878">
        <ele>441.7</ele>
        <time>2015-02-08T10:10:53Z</time>
      </trkpt>
      <trkpt lat="43.78984" lon="5.32873">
        <ele>438.4</ele>
        <time>2015-02-08T10:11:01Z</time>
      </trkpt>
      <trkpt lat="43.7899" lon="5.32863">
        <ele>433.7</ele>
        <time>2015-02-08T10:11:15Z</time>
      </trkpt>
      <trkpt lat="43.78998" lon="5.32857">
        <ele>430.1</ele>
        <time>2015-02-08T10:11:23Z</time>
      </trkpt>
      <trkpt lat="43.79005" lon="5.32848">
        <ele>424.9</ele>
        <time>2015-02-08T10:11:33Z</time>
      </trkpt>
      <trkpt lat="43.79013" lon="5.32839">
        <ele>421</ele>
        <time>2015-02-08T10:11:42Z</time>
      </trkpt>
      <trkpt lat="43.79023" lon="5.32839">
        <ele>418.1</ele>
        <time>2015-02-08T10:11:49Z</time>
      </trkpt>
      <trkpt lat="43.79031" lon="5.32835">
        <ele>412.7</ele>
        <time>2015-02-08T10:12:04Z</time>
      </trkpt>
      <trkpt lat="43.7904" lon="5.3283">
        <ele>408.6</ele>
        <time>2015-02-08T10:12:18Z</time>
      </trkpt>
      <trkpt lat="43.79048" lon="5.32822">
        <ele>406.1</ele>
        <time>2015-02-08T10:12:26Z</time>
      </trkpt>
      <trkpt lat="43.79055" lon="5.32813">
        <ele>402</ele>
        <time>2015-02-08T10:12:36Z</time>
      </trkpt>
      <trkpt lat="43.79056" lon="5.328">
        <ele>398.8</ele>
        <time>2015-02-08T10:12:43Z</time>
      </trkpt>
      <trkpt lat="43.79061" lon="5.32789">
        <ele>395.9</ele>
        <time>2015-02-08T10:12:52Z</time>
      </trkpt>
      <trkpt lat="43.79069" lon="5.32779">
        <ele>394.8</ele>
        <time>2015-02-08T10:12:58Z</time>
      </trkpt>
      <trkpt lat="43.79077" lon="5.32772">
        <ele>393.4</ele>
        <time>2015-02-08T10:13:06Z</time>
      </trkpt>
      <trkpt lat="43.79086" lon="5.32766">
        <ele>389.4</ele>
        <time>2015-02-08T10:13:21Z</time>
      </trkpt>
      <trkpt lat="43.79095" lon="5.32762">
        <ele>386.7</ele>
        <time>2015-02-08T10:13:31Z</time>
      </trkpt>
      <trkpt lat="43.79105" lon="5.32765">
        <ele>384.7</ele>
        <time>2015-02-08T10:13:38Z</time>
      </trkpt>
      <trkpt lat="43.79111" lon="5.32775">
        <ele>381.6</ele>
        <time>2015-02-08T10:13:49Z</time>
      </trkpt>
      <trkpt lat="43.7912" lon="5.32779">
        <ele>380.2</ele>
        <time>2015-02-08T10:13:54Z</time>
      </trkpt>
      <trkpt lat="43.79129" lon="5.32782">
        <ele>378.5</ele>
        <time>2015-02-08T10:14:00Z</time>
      </trkpt>
      <trkpt lat="43.79136" lon="5.32789">
        <ele>376.2</ele>
        <time>2015-02-08T10:14:07Z</time>
      </trkpt>
      <trkpt lat="43.79145" lon="5.32794">
        <ele>373.9</ele>
        <time>2015-02-08T10:14:15Z</time>
      </trkpt>
      <trkpt lat="43.79155" lon="5.32799">
        <ele>370.4</ele>
        <time>2015-02-08T10:14:24Z</time>
      </trkpt>
      <trkpt lat="43.79164" lon="5.32802">
        <ele>367.8</ele>
        <time>2015-02-08T10:14:31Z</time>
      </trkpt>
      <trkpt lat="43.79175" lon="5.328">
        <ele>366.2</ele>
        <time>2015-02-08T10:14:36Z</time>
      </trkpt>
      <trkpt lat="43.79185" lon="5.32799">
        <ele>363.9</ele>
        <time>2015-02-08T10:14:42Z</time>
      </trkpt>
      <trkpt lat="43.79194" lon="5.328">
        <ele>362.1</ele>
        <time>2015-02-08T10:14:47Z</time>
      </trkpt>
      <trkpt lat="43.79203" lon="5.32803">
        <ele>360.4</ele>
        <time>2015-02-08T10:14:52Z</time>
      </trkpt>
      <trkpt lat="43.79213" lon="5.32804">
        <ele>358.7</ele>
        <time>2015-02-08T10:14:57Z</time>
      </trkpt>
      <trkpt lat="43.79222" lon="5.32803">
        <ele>357.5</ele>
        <time>2015-02-08T10:15:02Z</time>
      </trkpt>
      <trkpt lat="43.79231" lon="5.32802">
        <ele>355.2</ele>
        <time>2015-02-08T10:15:17Z</time>
      </trkpt>
      <trkpt lat="43.7924" lon="5.32806">
        <ele>354.5</ele>
        <time>2015-02-08T10:15:26Z</time>
      </trkpt>
      <trkpt lat="43.7925" lon="5.32809">
        <ele>354.2</ele>
        <time>2015-02-08T10:15:30Z</time>
      </trkpt>
      <trkpt lat="43.79259" lon="5.32814">
        <ele>353.9</ele>
        <time>2015-02-08T10:15:34Z</time>
      </trkpt>
      <trkpt lat="43.79269" lon="5.32813">
        <ele>353.7</ele>
        <time>2015-02-08T10:15:38Z</time>
      </trkpt>
      <trkpt lat="43.79278" lon="5.3281">
        <ele>353.5</ele>
        <time>2015-02-08T10:15:41Z</time>
      </trkpt>
      <trkpt lat="43.79284" lon="5.328">
        <ele>353.2</ele>
        <time>2015-02-08T10:15:47Z</time>
      </trkpt>
      <trkpt lat="43.79287" lon="5.32788">
        <ele>353</ele>
        <time>2015-02-08T10:15:55Z</time>
      </trkpt>
      <trkpt lat="43.79287" lon="5.32775">
        <ele>352.9</ele>
        <time>2015-02-08T10:16:01Z</time>
      </trkpt>
      <trkpt lat="43.79291" lon="5.32761">
        <ele>352.9</ele>
        <time>2015-02-08T10:16:08Z</time>
      </trkpt>
      <trkpt lat="43.79295" lon="5.32749">
        <ele>352.8</ele>
        <time>2015-02-08T10:16:17Z</time>
      </trkpt>
      <trkpt lat="43.79297" lon="5.32736">
        <ele>352.3</ele>
        <time>2015-02-08T10:16:24Z</time>
      </trkpt>
      <trkpt lat="43.793" lon="5.32722">
        <ele>351.6</ele>
        <time>2015-02-08T10:16:30Z</time>
      </trkpt>
      <trkpt lat="43.79301" lon="5.32709">
        <ele>350.5</ele>
        <time>2015-02-08T10:16:37Z</time>
      </trkpt>
      <trkpt lat="43.79303" lon="5.32696">
        <ele>349.6</ele>
        <time>2015-02-08T10:16:45Z</time>
      </trkpt>
      <trkpt lat="43.79307" lon="5.32684">
        <ele>349</ele>
        <time>2015-02-08T10:16:51Z</time>
      </trkpt>
      <trkpt lat="43.79313" lon="5.32675">
        <ele>348.1</ele>
        <time>2015-02-08T10:16:57Z</time>
      </trkpt>
      <trkpt lat="43.79323" lon="5.32669">
        <ele>347</ele>
        <time>2015-02-08T10:17:06Z</time>
      </trkpt>
      <trkpt lat="43.79334" lon="5.32667">
        <ele>346.3</ele>
        <time>2015-02-08T10:17:13Z</time>
      </trkpt>
      <trkpt lat="43.79344" lon="5.32666">
        <ele>345.1</ele>
        <time>2015-02-08T10:17:33Z</time>
      </trkpt>
      <trkpt lat="43.79353" lon="5.32662">
        <ele>345.2</ele>
        <time>2015-02-08T10:21:57Z</time>
      </trkpt>
      <trkpt lat="43.79361" lon="5.32677">
        <ele>345</ele>
        <time>2015-02-08T10:22:17Z</time>
      </trkpt>
      <trkpt lat="43.79369" lon="5.32681">
        <ele>344.8</ele>
        <time>2015-02-08T10:22:29Z</time>
      </trkpt>
      <trkpt lat="43.79378" lon="5.32676">
        <ele>345</ele>
        <time>2015-02-08T10:22:44Z</time>
      </trkpt>
      <trkpt lat="43.79386" lon="5.32671">
        <ele>344.9</ele>
        <time>2015-02-08T10:22:50Z</time>
      </trkpt>
      <trkpt lat="43.79396" lon="5.32669">
        <ele>344.8</ele>
        <time>2015-02-08T10:22:53Z</time>
      </trkpt>
      <trkpt lat="43.79405" lon="5.32671">
        <ele>344.8</ele>
        <time>2015-02-08T10:22:59Z</time>
      </trkpt>
      <trkpt lat="43.79414" lon="5.32674">
        <ele>344.7</ele>
        <time>2015-02-08T10:23:20Z</time>
      </trkpt>
      <trkpt lat="43.79419" lon="5.3266">
        <ele>344.7</ele>
        <time>2015-02-08T10:23:38Z</time>
      </trkpt>
      <trkpt lat="43.79422" lon="5.32647">
        <ele>344.6</ele>
        <time>2015-02-08T10:23:49Z</time>
      </trkpt>
      <trkpt lat="43.79429" lon="5.32636">
        <ele>344.7</ele>
        <time>2015-02-08T10:23:59Z</time>
      </trkpt>
      <trkpt lat="43.79434" lon="5.32626">
        <ele>345.1</ele>
        <time>2015-02-08T10:24:06Z</time>
      </trkpt>
      <trkpt lat="43.79442" lon="5.32618">
        <ele>345.5</ele>
        <time>2015-02-08T10:24:13Z</time>
      </trkpt>
      <trkpt lat="43.79452" lon="5.32616">
        <ele>346.1</ele>
        <time>2015-02-08T10:24:21Z</time>
      </trkpt>
      <trkpt lat="43.79461" lon="5.32613">
        <ele>347</ele>
        <time>2015-02-08T10:24:27Z</time>
      </trkpt>
      <trkpt lat="43.79462" lon="5.32599">
        <ele>347.6</ele>
        <time>2015-02-08T10:24:36Z</time>
      </trkpt>
      <trkpt lat="43.79467" lon="5.32588">
        <ele>348.4</ele>
        <time>2015-02-08T10:24:44Z</time>
      </trkpt>
      <trkpt lat="43.79473" lon="5.32578">
        <ele>348.9</ele>
        <time>2015-02-08T10:24:50Z</time>
      </trkpt>
      <trkpt lat="43.79471" lon="5.32564">
        <ele>349.7</ele>
        <time>2015-02-08T10:25:00Z</time>
      </trkpt>
      <trkpt lat="43.79475" lon="5.32552">
        <ele>350.2</ele>
        <time>2015-02-08T10:25:05Z</time>
      </trkpt>
      <trkpt lat="43.79479" lon="5.3254">
        <ele>350.6</ele>
        <time>2015-02-08T10:25:12Z</time>
      </trkpt>
      <trkpt lat="43.7948" lon="5.32527">
        <ele>351.4</ele>
        <time>2015-02-08T10:25:19Z</time>
      </trkpt>
      <trkpt lat="43.79485" lon="5.32515">
        <ele>352.5</ele>
        <time>2015-02-08T10:25:27Z</time>
      </trkpt>
      <trkpt lat="43.79492" lon="5.32505">
        <ele>353.4</ele>
        <time>2015-02-08T10:25:33Z</time>
      </trkpt>
      <trkpt lat="43.79499" lon="5.32495">
        <ele>354.3</ele>
        <time>2015-02-08T10:25:40Z</time>
      </trkpt>
      <trkpt lat="43.79499" lon="5.32481">
        <ele>355</ele>
        <time>2015-02-08T10:25:45Z</time>
      </trkpt>
      <trkpt lat="43.79503" lon="5.32469">
        <ele>355.9</ele>
        <time>2015-02-08T10:25:52Z</time>
      </trkpt>
      <trkpt lat="43.79511" lon="5.3246">
        <ele>356.5</ele>
        <time>2015-02-08T10:25:58Z</time>
      </trkpt>
      <trkpt lat="43.79517" lon="5.32449">
        <ele>357</ele>
        <time>2015-02-08T10:26:04Z</time>
      </trkpt>
      <trkpt lat="43.7952" lon="5.32437">
        <ele>357.3</ele>
        <time>2015-02-08T10:26:09Z</time>
      </trkpt>
      <trkpt lat="43.7952" lon="5.32424">
        <ele>357.7</ele>
        <time>2015-02-08T10:26:14Z</time>
      </trkpt>
      <trkpt lat="43.79518" lon="5.3241">
        <ele>358.3</ele>
        <time>2015-02-08T10:26:17Z</time>
      </trkpt>
      <trkpt lat="43.79518" lon="5.32394">
        <ele>359.5</ele>
        <time>2015-02-08T10:26:21Z</time>
      </trkpt>
      <trkpt lat="43.79521" lon="5.32381">
        <ele>361.2</ele>
        <time>2015-02-08T10:26:27Z</time>
      </trkpt>
      <trkpt lat="43.79521" lon="5.32368">
        <ele>363.1</ele>
        <time>2015-02-08T10:26:33Z</time>
      </trkpt>
      <trkpt lat="43.79513" lon="5.32359">
        <ele>364.7</ele>
        <time>2015-02-08T10:26:38Z</time>
      </trkpt>
      <trkpt lat="43.79507" lon="5.32347">
        <ele>366.4</ele>
        <time>2015-02-08T10:26:44Z</time>
      </trkpt>
      <trkpt lat="43.79502" lon="5.32332">
        <ele>368.3</ele>
        <time>2015-02-08T10:26:51Z</time>
      </trkpt>
      <trkpt lat="43.79496" lon="5.32323">
        <ele>369.5</ele>
        <time>2015-02-08T10:26:57Z</time>
      </trkpt>
      <trkpt lat="43.79487" lon="5.32318">
        <ele>370.9</ele>
        <time>2015-02-08T10:27:06Z</time>
      </trkpt>
      <trkpt lat="43.79484" lon="5.32305">
        <ele>372.7</ele>
        <time>2015-02-08T10:27:17Z</time>
      </trkpt>
      <trkpt lat="43.7948" lon="5.32294">
        <ele>373.5</ele>
        <time>2015-02-08T10:27:22Z</time>
      </trkpt>
      <trkpt lat="43.79488" lon="5.32285">
        <ele>374.8</ele>
        <time>2015-02-08T10:27:28Z</time>
      </trkpt>
      <trkpt lat="43.7948" lon="5.32276">
        <ele>377.3</ele>
        <time>2015-02-08T10:27:39Z</time>
      </trkpt>
      <trkpt lat="43.79473" lon="5.32267">
        <ele>379.2</ele>
        <time>2015-02-08T10:27:46Z</time>
      </trkpt>
      <trkpt lat="43.7947" lon="5.32255">
        <ele>381.8</ele>
        <time>2015-02-08T10:27:56Z</time>
      </trkpt>
      <trkpt lat="43.79466" lon="5.32242">
        <ele>383.1</ele>
        <time>2015-02-08T10:28:01Z</time>
      </trkpt>
      <trkpt lat="43.79473" lon="5.32233">
        <ele>385.3</ele>
        <time>2015-02-08T10:28:08Z</time>
      </trkpt>
      <trkpt lat="43.79472" lon="5.32218">
        <ele>389.2</ele>
        <time>2015-02-08T10:28:21Z</time>
      </trkpt>
      <trkpt lat="43.79469" lon="5.32205">
        <ele>391.9</ele>
        <time>2015-02-08T10:28:29Z</time>
      </trkpt>
      <trkpt lat="43.79468" lon="5.32192">
        <ele>394.1</ele>
        <time>2015-02-08T10:28:36Z</time>
      </trkpt>
      <trkpt lat="43.79478" lon="5.32186">
        <ele>397.7</ele>
        <time>2015-02-08T10:28:52Z</time>
      </trkpt>
      <trkpt lat="43.79471" lon="5.32178">
        <ele>398.8</ele>
        <time>2015-02-08T10:29:00Z</time>
      </trkpt>
      <trkpt lat="43.7947" lon="5.32165">
        <ele>399.6</ele>
        <time>2015-02-08T10:29:05Z</time>
      </trkpt>
      <trkpt lat="43.79462" lon="5.32157">
        <ele>400.4</ele>
        <time>2015-02-08T10:29:09Z</time>
      </trkpt>
      <trkpt lat="43.79448" lon="5.32143">
        <ele>402</ele>
        <time>2015-02-08T10:29:17Z</time>
      </trkpt>
      <trkpt lat="43.79441" lon="5.32135">
        <ele>403.6</ele>
        <time>2015-02-08T10:29:25Z</time>
      </trkpt>
      <trkpt lat="43.79431" lon="5.3213">
        <ele>404.5</ele>
        <time>2015-02-08T10:29:29Z</time>
      </trkpt>
      <trkpt lat="43.79419" lon="5.3212">
        <ele>405.8</ele>
        <time>2015-02-08T10:29:34Z</time>
      </trkpt>
      <trkpt lat="43.7941" lon="5.32115">
        <ele>407.1</ele>
        <time>2015-02-08T10:29:40Z</time>
      </trkpt>
      <trkpt lat="43.79404" lon="5.32104">
        <ele>408.1</ele>
        <time>2015-02-08T10:29:46Z</time>
      </trkpt>
      <trkpt lat="43.79403" lon="5.32091">
        <ele>408.9</ele>
        <time>2015-02-08T10:29:53Z</time>
      </trkpt>
      <trkpt lat="43.79397" lon="5.32081">
        <ele>409.8</ele>
        <time>2015-02-08T10:30:00Z</time>
      </trkpt>
      <trkpt lat="43.79391" lon="5.32071">
        <ele>410.3</ele>
        <time>2015-02-08T10:30:05Z</time>
      </trkpt>
      <trkpt lat="43.79391" lon="5.32058">
        <ele>412.2</ele>
        <time>2015-02-08T10:30:18Z</time>
      </trkpt>
      <trkpt lat="43.79394" lon="5.32045">
        <ele>414</ele>
        <time>2015-02-08T10:30:29Z</time>
      </trkpt>
      <trkpt lat="43.79397" lon="5.32032">
        <ele>415.4</ele>
        <time>2015-02-08T10:30:39Z</time>
      </trkpt>
      <trkpt lat="43.79392" lon="5.32021">
        <ele>416.6</ele>
        <time>2015-02-08T10:30:46Z</time>
      </trkpt>
      <trkpt lat="43.79397" lon="5.32009">
        <ele>418.5</ele>
        <time>2015-02-08T10:30:57Z</time>
      </trkpt>
      <trkpt lat="43.79399" lon="5.31995">
        <ele>419.8</ele>
        <time>2015-02-08T10:31:05Z</time>
      </trkpt>
      <trkpt lat="43.79394" lon="5.31982">
        <ele>421.2</ele>
        <time>2015-02-08T10:31:12Z</time>
      </trkpt>
      <trkpt lat="43.79391" lon="5.31968">
        <ele>422.2</ele>
        <time>2015-02-08T10:31:17Z</time>
      </trkpt>
      <trkpt lat="43.79391" lon="5.31956">
        <ele>424.1</ele>
        <time>2015-02-08T10:31:24Z</time>
      </trkpt>
      <trkpt lat="43.79385" lon="5.31945">
        <ele>425.8</ele>
        <time>2015-02-08T10:31:33Z</time>
      </trkpt>
      <trkpt lat="43.79378" lon="5.31932">
        <ele>427.4</ele>
        <time>2015-02-08T10:31:42Z</time>
      </trkpt>
      <trkpt lat="43.79372" lon="5.31923">
        <ele>428.5</ele>
        <time>2015-02-08T10:31:49Z</time>
      </trkpt>
      <trkpt lat="43.79374" lon="5.3191">
        <ele>429.7</ele>
        <time>2015-02-08T10:31:57Z</time>
      </trkpt>
      <trkpt lat="43.79368" lon="5.31896">
        <ele>430.7</ele>
        <time>2015-02-08T10:32:04Z</time>
      </trkpt>
      <trkpt lat="43.79359" lon="5.31889">
        <ele>432.2</ele>
        <time>2015-02-08T10:32:15Z</time>
      </trkpt>
      <trkpt lat="43.7934" lon="5.31887">
        <ele>432</ele>
        <time>2015-02-08T10:32:20Z</time>
      </trkpt>
      <trkpt lat="43.79335" lon="5.31876">
        <ele>434</ele>
        <time>2015-02-08T10:32:30Z</time>
      </trkpt>
      <trkpt lat="43.79326" lon="5.31869">
        <ele>435.7</ele>
        <time>2015-02-08T10:32:38Z</time>
      </trkpt>
      <trkpt lat="43.7932" lon="5.3186">
        <ele>438</ele>
        <time>2015-02-08T10:32:49Z</time>
      </trkpt>
      <trkpt lat="43.79314" lon="5.31849">
        <ele>439.3</ele>
        <time>2015-02-08T10:32:56Z</time>
      </trkpt>
      <trkpt lat="43.79307" lon="5.31835">
        <ele>441.5</ele>
        <time>2015-02-08T10:33:07Z</time>
      </trkpt>
      <trkpt lat="43.79298" lon="5.31829">
        <ele>442.1</ele>
        <time>2015-02-08T10:33:11Z</time>
      </trkpt>
      <trkpt lat="43.79294" lon="5.31818">
        <ele>444</ele>
        <time>2015-02-08T10:33:21Z</time>
      </trkpt>
      <trkpt lat="43.7929" lon="5.31805">
        <ele>445.5</ele>
        <time>2015-02-08T10:33:29Z</time>
      </trkpt>
      <trkpt lat="43.79284" lon="5.31791">
        <ele>446.3</ele>
        <time>2015-02-08T10:33:34Z</time>
      </trkpt>
      <trkpt lat="43.79282" lon="5.31779">
        <ele>447.1</ele>
        <time>2015-02-08T10:33:40Z</time>
      </trkpt>
      <trkpt lat="43.79279" lon="5.31767">
        <ele>449.3</ele>
        <time>2015-02-08T10:33:53Z</time>
      </trkpt>
      <trkpt lat="43.79281" lon="5.31753">
        <ele>451.1</ele>
        <time>2015-02-08T10:34:01Z</time>
      </trkpt>
      <trkpt lat="43.79281" lon="5.3174">
        <ele>452.9</ele>
        <time>2015-02-08T10:34:09Z</time>
      </trkpt>
      <trkpt lat="43.79278" lon="5.31727">
        <ele>454</ele>
        <time>2015-02-08T10:34:15Z</time>
      </trkpt>
      <trkpt lat="43.79273" lon="5.31713">
        <ele>455.3</ele>
        <time>2015-02-08T10:34:21Z</time>
      </trkpt>
      <trkpt lat="43.79269" lon="5.31702">
        <ele>456.2</ele>
        <time>2015-02-08T10:34:26Z</time>
      </trkpt>
      <trkpt lat="43.79269" lon="5.31688">
        <ele>457.7</ele>
        <time>2015-02-08T10:34:38Z</time>
      </trkpt>
      <trkpt lat="43.79269" lon="5.31675">
        <ele>459.5</ele>
        <time>2015-02-08T10:34:47Z</time>
      </trkpt>
      <trkpt lat="43.7927" lon="5.3166">
        <ele>460.9</ele>
        <time>2015-02-08T10:34:56Z</time>
      </trkpt>
      <trkpt lat="43.79279" lon="5.31653">
        <ele>461.9</ele>
        <time>2015-02-08T10:35:02Z</time>
      </trkpt>
      <trkpt lat="43.79284" lon="5.31641">
        <ele>463</ele>
        <time>2015-02-08T10:35:08Z</time>
      </trkpt>
      <trkpt lat="43.7929" lon="5.31631">
        <ele>464.3</ele>
        <time>2015-02-08T10:35:15Z</time>
      </trkpt>
      <trkpt lat="43.79291" lon="5.31617">
        <ele>465.7</ele>
        <time>2015-02-08T10:35:23Z</time>
      </trkpt>
      <trkpt lat="43.79289" lon="5.31604">
        <ele>467</ele>
        <time>2015-02-08T10:35:31Z</time>
      </trkpt>
      <trkpt lat="43.79291" lon="5.31589">
        <ele>469.7</ele>
        <time>2015-02-08T10:36:15Z</time>
      </trkpt>
      <trkpt lat="43.79292" lon="5.31575">
        <ele>470.5</ele>
        <time>2015-02-08T10:36:22Z</time>
      </trkpt>
      <trkpt lat="43.793" lon="5.31567">
        <ele>472</ele>
        <time>2015-02-08T10:36:31Z</time>
      </trkpt>
      <trkpt lat="43.79304" lon="5.31555">
        <ele>473.1</ele>
        <time>2015-02-08T10:36:38Z</time>
      </trkpt>
      <trkpt lat="43.7931" lon="5.31543">
        <ele>474.9</ele>
        <time>2015-02-08T10:36:48Z</time>
      </trkpt>
      <trkpt lat="43.7931" lon="5.3153">
        <ele>476.3</ele>
        <time>2015-02-08T10:36:55Z</time>
      </trkpt>
      <trkpt lat="43.79308" lon="5.31517">
        <ele>477</ele>
        <time>2015-02-08T10:37:00Z</time>
      </trkpt>
      <trkpt lat="43.79304" lon="5.31504">
        <ele>477.6</ele>
        <time>2015-02-08T10:37:05Z</time>
      </trkpt>
      <trkpt lat="43.79298" lon="5.31493">
        <ele>478.1</ele>
        <time>2015-02-08T10:37:10Z</time>
      </trkpt>
      <trkpt lat="43.79291" lon="5.3148">
        <ele>478.7</ele>
        <time>2015-02-08T10:37:15Z</time>
      </trkpt>
      <trkpt lat="43.79282" lon="5.31473">
        <ele>479.3</ele>
        <time>2015-02-08T10:37:19Z</time>
      </trkpt>
      <trkpt lat="43.79275" lon="5.31463">
        <ele>480.9</ele>
        <time>2015-02-08T10:37:27Z</time>
      </trkpt>
      <trkpt lat="43.79268" lon="5.31454">
        <ele>482.1</ele>
        <time>2015-02-08T10:37:33Z</time>
      </trkpt>
      <trkpt lat="43.79263" lon="5.31443">
        <ele>483.4</ele>
        <time>2015-02-08T10:37:40Z</time>
      </trkpt>
      <trkpt lat="43.79265" lon="5.31429">
        <ele>486</ele>
        <time>2015-02-08T10:37:53Z</time>
      </trkpt>
      <trkpt lat="43.79261" lon="5.31417">
        <ele>487.3</ele>
        <time>2015-02-08T10:38:01Z</time>
      </trkpt>
      <trkpt lat="43.79258" lon="5.31403">
        <ele>488.7</ele>
        <time>2015-02-08T10:38:09Z</time>
      </trkpt>
      <trkpt lat="43.79254" lon="5.31392">
        <ele>490.6</ele>
        <time>2015-02-08T10:38:19Z</time>
      </trkpt>
      <trkpt lat="43.79247" lon="5.31384">
        <ele>492.1</ele>
        <time>2015-02-08T10:38:26Z</time>
      </trkpt>
      <trkpt lat="43.79238" lon="5.31375">
        <ele>493</ele>
        <time>2015-02-08T10:38:31Z</time>
      </trkpt>
      <trkpt lat="43.79235" lon="5.31362">
        <ele>494.4</ele>
        <time>2015-02-08T10:38:38Z</time>
      </trkpt>
      <trkpt lat="43.79228" lon="5.31354">
        <ele>495.8</ele>
        <time>2015-02-08T10:38:44Z</time>
      </trkpt>
      <trkpt lat="43.79237" lon="5.31344">
        <ele>497.1</ele>
        <time>2015-02-08T10:38:50Z</time>
      </trkpt>
      <trkpt lat="43.79246" lon="5.31332">
        <ele>498.1</ele>
        <time>2015-02-08T10:38:55Z</time>
      </trkpt>
      <trkpt lat="43.79255" lon="5.31332">
        <ele>499.6</ele>
        <time>2015-02-08T10:39:04Z</time>
      </trkpt>
      <trkpt lat="43.79263" lon="5.31339">
        <ele>500.5</ele>
        <time>2015-02-08T10:39:10Z</time>
      </trkpt>
      <trkpt lat="43.79269" lon="5.3135">
        <ele>501.8</ele>
        <time>2015-02-08T10:39:18Z</time>
      </trkpt>
      <trkpt lat="43.79274" lon="5.31361">
        <ele>502.9</ele>
        <time>2015-02-08T10:39:27Z</time>
      </trkpt>
      <trkpt lat="43.7928" lon="5.31371">
        <ele>503.7</ele>
        <time>2015-02-08T10:39:34Z</time>
      </trkpt>
      <trkpt lat="43.79288" lon="5.31382">
        <ele>504.4</ele>
        <time>2015-02-08T10:39:42Z</time>
      </trkpt>
      <trkpt lat="43.79294" lon="5.31392">
        <ele>505.4</ele>
        <time>2015-02-08T10:39:51Z</time>
      </trkpt>
      <trkpt lat="43.793" lon="5.31401">
        <ele>506</ele>
        <time>2015-02-08T10:39:58Z</time>
      </trkpt>
      <trkpt lat="43.79306" lon="5.31412">
        <ele>507.1</ele>
        <time>2015-02-08T10:40:09Z</time>
      </trkpt>
      <trkpt lat="43.79312" lon="5.31422">
        <ele>507.5</ele>
        <time>2015-02-08T10:40:17Z</time>
      </trkpt>
      <trkpt lat="43.79319" lon="5.3143">
        <ele>508</ele>
        <time>2015-02-08T10:40:26Z</time>
      </trkpt>
      <trkpt lat="43.79329" lon="5.31437">
        <ele>508.2</ele>
        <time>2015-02-08T10:40:33Z</time>
      </trkpt>
      <trkpt lat="43.79339" lon="5.31443">
        <ele>508.3</ele>
        <time>2015-02-08T10:40:38Z</time>
      </trkpt>
      <trkpt lat="43.79349" lon="5.31443">
        <ele>508.4</ele>
        <time>2015-02-08T10:40:42Z</time>
      </trkpt>
      <trkpt lat="43.79356" lon="5.31433">
        <ele>508.8</ele>
        <time>2015-02-08T10:40:48Z</time>
      </trkpt>
      <trkpt lat="43.79365" lon="5.31428">
        <ele>509.6</ele>
        <time>2015-02-08T10:40:56Z</time>
      </trkpt>
      <trkpt lat="43.79373" lon="5.31418">
        <ele>510.6</ele>
        <time>2015-02-08T10:41:03Z</time>
      </trkpt>
      <trkpt lat="43.7938" lon="5.31407">
        <ele>511.6</ele>
        <time>2015-02-08T10:41:11Z</time>
      </trkpt>
      <trkpt lat="43.79388" lon="5.31399">
        <ele>513</ele>
        <time>2015-02-08T10:41:22Z</time>
      </trkpt>
      <trkpt lat="43.79395" lon="5.31389">
        <ele>514.1</ele>
        <time>2015-02-08T10:41:30Z</time>
      </trkpt>
      <trkpt lat="43.794" lon="5.31377">
        <ele>515.1</ele>
        <time>2015-02-08T10:41:37Z</time>
      </trkpt>
      <trkpt lat="43.7941" lon="5.31372">
        <ele>516.3</ele>
        <time>2015-02-08T10:41:44Z</time>
      </trkpt>
      <trkpt lat="43.79419" lon="5.31367">
        <ele>517.1</ele>
        <time>2015-02-08T10:41:50Z</time>
      </trkpt>
      <trkpt lat="43.79427" lon="5.31361">
        <ele>518.2</ele>
        <time>2015-02-08T10:41:57Z</time>
      </trkpt>
      <trkpt lat="43.79436" lon="5.31357">
        <ele>519.5</ele>
        <time>2015-02-08T10:42:04Z</time>
      </trkpt>
      <trkpt lat="43.79443" lon="5.31348">
        <ele>520.7</ele>
        <time>2015-02-08T10:42:12Z</time>
      </trkpt>
      <trkpt lat="43.79453" lon="5.31344">
        <ele>521.9</ele>
        <time>2015-02-08T10:42:19Z</time>
      </trkpt>
      <trkpt lat="43.7946" lon="5.31336">
        <ele>523.1</ele>
        <time>2015-02-08T10:42:28Z</time>
      </trkpt>
      <trkpt lat="43.79469" lon="5.31331">
        <ele>524.1</ele>
        <time>2015-02-08T10:42:35Z</time>
      </trkpt>
      <trkpt lat="43.79479" lon="5.31328">
        <ele>525.1</ele>
        <time>2015-02-08T10:42:43Z</time>
      </trkpt>
      <trkpt lat="43.79486" lon="5.31319">
        <ele>526.4</ele>
        <time>2015-02-08T10:42:52Z</time>
      </trkpt>
      <trkpt lat="43.79493" lon="5.3131">
        <ele>527.4</ele>
        <time>2015-02-08T10:43:01Z</time>
      </trkpt>
      <trkpt lat="43.79502" lon="5.31305">
        <ele>527.9</ele>
        <time>2015-02-08T10:43:09Z</time>
      </trkpt>
      <trkpt lat="43.79509" lon="5.31298">
        <ele>528.2</ele>
        <time>2015-02-08T10:43:19Z</time>
      </trkpt>
      <trkpt lat="43.79519" lon="5.31296">
        <ele>528.3</ele>
        <time>2015-02-08T10:43:25Z</time>
      </trkpt>
      <trkpt lat="43.79528" lon="5.31293">
        <ele>528.2</ele>
        <time>2015-02-08T10:43:34Z</time>
      </trkpt>
      <trkpt lat="43.79537" lon="5.31288">
        <ele>527.9</ele>
        <time>2015-02-08T10:43:40Z</time>
      </trkpt>
      <trkpt lat="43.79543" lon="5.3128">
        <ele>527.5</ele>
        <time>2015-02-08T10:43:47Z</time>
      </trkpt>
      <trkpt lat="43.7955" lon="5.31271">
        <ele>527.4</ele>
        <time>2015-02-08T10:43:53Z</time>
      </trkpt>
      <trkpt lat="43.79557" lon="5.31262">
        <ele>527.5</ele>
        <time>2015-02-08T10:44:01Z</time>
      </trkpt>
      <trkpt lat="43.79564" lon="5.31254">
        <ele>527.5</ele>
        <time>2015-02-08T10:44:08Z</time>
      </trkpt>
      <trkpt lat="43.79572" lon="5.31247">
        <ele>527.5</ele>
        <time>2015-02-08T10:44:16Z</time>
      </trkpt>
      <trkpt lat="43.79577" lon="5.31236">
        <ele>528.2</ele>
        <time>2015-02-08T10:44:24Z</time>
      </trkpt>
      <trkpt lat="43.79584" lon="5.31227">
        <ele>527.8</ele>
        <time>2015-02-08T10:44:32Z</time>
      </trkpt>
      <trkpt lat="43.79592" lon="5.31221">
        <ele>527</ele>
        <time>2015-02-08T10:44:41Z</time>
      </trkpt>
      <trkpt lat="43.79602" lon="5.31219">
        <ele>526.5</ele>
        <time>2015-02-08T10:44:46Z</time>
      </trkpt>
      <trkpt lat="43.79612" lon="5.31216">
        <ele>525.3</ele>
        <time>2015-02-08T10:44:53Z</time>
      </trkpt>
      <trkpt lat="43.79621" lon="5.31216">
        <ele>523.7</ele>
        <time>2015-02-08T10:45:02Z</time>
      </trkpt>
      <trkpt lat="43.7963" lon="5.31219">
        <ele>522.4</ele>
        <time>2015-02-08T10:45:10Z</time>
      </trkpt>
      <trkpt lat="43.79639" lon="5.31217">
        <ele>521</ele>
        <time>2015-02-08T10:45:17Z</time>
      </trkpt>
      <trkpt lat="43.79649" lon="5.31216">
        <ele>519.7</ele>
        <time>2015-02-08T10:45:26Z</time>
      </trkpt>
      <trkpt lat="43.79659" lon="5.31221">
        <ele>518.9</ele>
        <time>2015-02-08T10:45:31Z</time>
      </trkpt>
      <trkpt lat="43.79668" lon="5.31227">
        <ele>518.2</ele>
        <time>2015-02-08T10:45:35Z</time>
      </trkpt>
      <trkpt lat="43.79676" lon="5.31233">
        <ele>517.2</ele>
        <time>2015-02-08T10:45:40Z</time>
      </trkpt>
      <trkpt lat="43.79685" lon="5.31239">
        <ele>515.9</ele>
        <time>2015-02-08T10:45:48Z</time>
      </trkpt>
      <trkpt lat="43.79694" lon="5.31244">
        <ele>515</ele>
        <time>2015-02-08T10:45:54Z</time>
      </trkpt>
      <trkpt lat="43.79703" lon="5.31248">
        <ele>514.4</ele>
        <time>2015-02-08T10:45:58Z</time>
      </trkpt>
      <trkpt lat="43.79712" lon="5.31252">
        <ele>513.7</ele>
        <time>2015-02-08T10:46:03Z</time>
      </trkpt>
      <trkpt lat="43.79721" lon="5.31254">
        <ele>512.8</ele>
        <time>2015-02-08T10:46:08Z</time>
      </trkpt>
      <trkpt lat="43.79731" lon="5.31257">
        <ele>511.6</ele>
        <time>2015-02-08T10:46:15Z</time>
      </trkpt>
      <trkpt lat="43.79741" lon="5.31258">
        <ele>510.2</ele>
        <time>2015-02-08T10:46:22Z</time>
      </trkpt>
      <trkpt lat="43.7975" lon="5.31253">
        <ele>508.9</ele>
        <time>2015-02-08T10:46:28Z</time>
      </trkpt>
      <trkpt lat="43.79755" lon="5.31241">
        <ele>507.6</ele>
        <time>2015-02-08T10:46:36Z</time>
      </trkpt>
      <trkpt lat="43.79759" lon="5.31228">
        <ele>507.1</ele>
        <time>2015-02-08T10:46:40Z</time>
      </trkpt>
      <trkpt lat="43.79763" lon="5.31216">
        <ele>506.6</ele>
        <time>2015-02-08T10:46:44Z</time>
      </trkpt>
      <trkpt lat="43.79764" lon="5.312">
        <ele>506.1</ele>
        <time>2015-02-08T10:46:48Z</time>
      </trkpt>
      <trkpt lat="43.79765" lon="5.31186">
        <ele>505.7</ele>
        <time>2015-02-08T10:46:52Z</time>
      </trkpt>
      <trkpt lat="43.7977" lon="5.31174">
        <ele>505.4</ele>
        <time>2015-02-08T10:46:57Z</time>
      </trkpt>
      <trkpt lat="43.79779" lon="5.31166">
        <ele>505.1</ele>
        <time>2015-02-08T10:47:04Z</time>
      </trkpt>
      <trkpt lat="43.79788" lon="5.31157">
        <ele>504.2</ele>
        <time>2015-02-08T10:47:10Z</time>
      </trkpt>
      <trkpt lat="43.79795" lon="5.3115">
        <ele>503.8</ele>
        <time>2015-02-08T10:47:15Z</time>
      </trkpt>
      <trkpt lat="43.79804" lon="5.31139">
        <ele>503.4</ele>
        <time>2015-02-08T10:47:21Z</time>
      </trkpt>
      <trkpt lat="43.79812" lon="5.3113">
        <ele>503.1</ele>
        <time>2015-02-08T10:47:26Z</time>
      </trkpt>
      <trkpt lat="43.79819" lon="5.31121">
        <ele>502.9</ele>
        <time>2015-02-08T10:47:32Z</time>
      </trkpt>
      <trkpt lat="43.79829" lon="5.31118">
        <ele>502.7</ele>
        <time>2015-02-08T10:47:38Z</time>
      </trkpt>
      <trkpt lat="43.79835" lon="5.31108">
        <ele>502.7</ele>
        <time>2015-02-08T10:47:42Z</time>
      </trkpt>
      <trkpt lat="43.79842" lon="5.311">
        <ele>502.5</ele>
        <time>2015-02-08T10:47:48Z</time>
      </trkpt>
      <trkpt lat="43.7985" lon="5.31092">
        <ele>502.3</ele>
        <time>2015-02-08T10:47:55Z</time>
      </trkpt>
      <trkpt lat="43.79856" lon="5.31081">
        <ele>501.9</ele>
        <time>2015-02-08T10:48:01Z</time>
      </trkpt>
      <trkpt lat="43.79861" lon="5.3107">
        <ele>501.7</ele>
        <time>2015-02-08T10:48:05Z</time>
      </trkpt>
      <trkpt lat="43.79869" lon="5.31063">
        <ele>501.5</ele>
        <time>2015-02-08T10:48:11Z</time>
      </trkpt>
      <trkpt lat="43.79875" lon="5.31053">
        <ele>501.2</ele>
        <time>2015-02-08T10:48:17Z</time>
      </trkpt>
      <trkpt lat="43.79879" lon="5.31041">
        <ele>501</ele>
        <time>2015-02-08T10:48:24Z</time>
      </trkpt>
      <trkpt lat="43.79884" lon="5.31031">
        <ele>500.7</ele>
        <time>2015-02-08T10:48:30Z</time>
      </trkpt>
      <trkpt lat="43.79893" lon="5.31023">
        <ele>500.3</ele>
        <time>2015-02-08T10:48:36Z</time>
      </trkpt>
      <trkpt lat="43.79901" lon="5.31014">
        <ele>500</ele>
        <time>2015-02-08T10:48:43Z</time>
      </trkpt>
      <trkpt lat="43.79907" lon="5.31002">
        <ele>499.6</ele>
        <time>2015-02-08T10:48:49Z</time>
      </trkpt>
      <trkpt lat="43.7991" lon="5.3099">
        <ele>499.3</ele>
        <time>2015-02-08T10:48:55Z</time>
      </trkpt>
      <trkpt lat="43.79918" lon="5.30982">
        <ele>498.9</ele>
        <time>2015-02-08T10:49:00Z</time>
      </trkpt>
      <trkpt lat="43.79926" lon="5.30976">
        <ele>498.5</ele>
        <time>2015-02-08T10:49:05Z</time>
      </trkpt>
      <trkpt lat="43.79935" lon="5.30968">
        <ele>498.1</ele>
        <time>2015-02-08T10:49:12Z</time>
      </trkpt>
      <trkpt lat="43.79941" lon="5.30958">
        <ele>497.4</ele>
        <time>2015-02-08T10:49:19Z</time>
      </trkpt>
      <trkpt lat="43.79947" lon="5.30947">
        <ele>496.2</ele>
        <time>2015-02-08T10:49:27Z</time>
      </trkpt>
      <trkpt lat="43.79946" lon="5.30934">
        <ele>495.4</ele>
        <time>2015-02-08T10:49:33Z</time>
      </trkpt>
      <trkpt lat="43.79948" lon="5.30921">
        <ele>494.9</ele>
        <time>2015-02-08T10:49:38Z</time>
      </trkpt>
      <trkpt lat="43.7995" lon="5.30908">
        <ele>494</ele>
        <time>2015-02-08T10:49:45Z</time>
      </trkpt>
      <trkpt lat="43.79955" lon="5.30895">
        <ele>493.4</ele>
        <time>2015-02-08T10:49:50Z</time>
      </trkpt>
      <trkpt lat="43.79964" lon="5.3089">
        <ele>492.6</ele>
        <time>2015-02-08T10:49:56Z</time>
      </trkpt>
      <trkpt lat="43.79973" lon="5.30888">
        <ele>492.1</ele>
        <time>2015-02-08T10:50:02Z</time>
      </trkpt>
      <trkpt lat="43.79982" lon="5.30894">
        <ele>491.4</ele>
        <time>2015-02-08T10:50:15Z</time>
      </trkpt>
      <trkpt lat="43.79992" lon="5.30903">
        <ele>491.2</ele>
        <time>2015-02-08T10:50:23Z</time>
      </trkpt>
      <trkpt lat="43.80001" lon="5.30906">
        <ele>491.1</ele>
        <time>2015-02-08T10:50:27Z</time>
      </trkpt>
      <trkpt lat="43.8001" lon="5.30908">
        <ele>491</ele>
        <time>2015-02-08T10:50:31Z</time>
      </trkpt>
      <trkpt lat="43.80019" lon="5.30898">
        <ele>490.9</ele>
        <time>2015-02-08T10:50:37Z</time>
      </trkpt>
      <trkpt lat="43.80026" lon="5.30888">
        <ele>490.9</ele>
        <time>2015-02-08T10:50:42Z</time>
      </trkpt>
      <trkpt lat="43.80036" lon="5.30887">
        <ele>490.8</ele>
        <time>2015-02-08T10:50:47Z</time>
      </trkpt>
      <trkpt lat="43.80045" lon="5.30883">
        <ele>490.6</ele>
        <time>2015-02-08T10:50:53Z</time>
      </trkpt>
      <trkpt lat="43.80052" lon="5.30874">
        <ele>490.2</ele>
        <time>2015-02-08T10:50:59Z</time>
      </trkpt>
      <trkpt lat="43.80061" lon="5.30873">
        <ele>489.9</ele>
        <time>2015-02-08T10:51:04Z</time>
      </trkpt>
      <trkpt lat="43.8007" lon="5.30877">
        <ele>489.7</ele>
        <time>2015-02-08T10:51:07Z</time>
      </trkpt>
      <trkpt lat="43.80076" lon="5.30888">
        <ele>489.5</ele>
        <time>2015-02-08T10:51:13Z</time>
      </trkpt>
      <trkpt lat="43.80085" lon="5.30892">
        <ele>489.2</ele>
        <time>2015-02-08T10:51:19Z</time>
      </trkpt>
      <trkpt lat="43.80095" lon="5.30894">
        <ele>488.9</ele>
        <time>2015-02-08T10:51:25Z</time>
      </trkpt>
      <trkpt lat="43.80101" lon="5.30904">
        <ele>488.6</ele>
        <time>2015-02-08T10:51:35Z</time>
      </trkpt>
      <trkpt lat="43.80095" lon="5.30914">
        <ele>488.5</ele>
        <time>2015-02-08T10:51:43Z</time>
      </trkpt>
      <trkpt lat="43.80085" lon="5.30921">
        <ele>488.4</ele>
        <time>2015-02-08T10:51:48Z</time>
      </trkpt>
      <trkpt lat="43.80077" lon="5.30927">
        <ele>488.5</ele>
        <time>2015-02-08T10:51:54Z</time>
      </trkpt>
      <trkpt lat="43.80072" lon="5.30938">
        <ele>488.5</ele>
        <time>2015-02-08T10:52:00Z</time>
      </trkpt>
      <trkpt lat="43.80067" lon="5.3095">
        <ele>488.7</ele>
        <time>2015-02-08T10:52:05Z</time>
      </trkpt>
      <trkpt lat="43.80063" lon="5.30962">
        <ele>489.1</ele>
        <time>2015-02-08T10:52:09Z</time>
      </trkpt>
      <trkpt lat="43.80061" lon="5.30975">
        <ele>489.7</ele>
        <time>2015-02-08T10:52:14Z</time>
      </trkpt>
      <trkpt lat="43.80062" lon="5.30988">
        <ele>490.3</ele>
        <time>2015-02-08T10:52:20Z</time>
      </trkpt>
      <trkpt lat="43.80064" lon="5.31001">
        <ele>491.3</ele>
        <time>2015-02-08T10:52:28Z</time>
      </trkpt>
      <trkpt lat="43.80067" lon="5.31014">
        <ele>492</ele>
        <time>2015-02-08T10:52:35Z</time>
      </trkpt>
      <trkpt lat="43.80068" lon="5.31027">
        <ele>492.5</ele>
        <time>2015-02-08T10:52:41Z</time>
      </trkpt>
      <trkpt lat="43.80069" lon="5.3104">
        <ele>493</ele>
        <time>2015-02-08T10:52:47Z</time>
      </trkpt>
      <trkpt lat="43.8007" lon="5.31056">
        <ele>493.8</ele>
        <time>2015-02-08T10:52:54Z</time>
      </trkpt>
      <trkpt lat="43.80071" lon="5.31069">
        <ele>494.7</ele>
        <time>2015-02-08T10:53:01Z</time>
      </trkpt>
      <trkpt lat="43.80072" lon="5.31082">
        <ele>495.2</ele>
        <time>2015-02-08T10:53:06Z</time>
      </trkpt>
      <trkpt lat="43.80074" lon="5.31094">
        <ele>496</ele>
        <time>2015-02-08T10:53:11Z</time>
      </trkpt>
      <trkpt lat="43.80074" lon="5.31107">
        <ele>496.8</ele>
        <time>2015-02-08T10:53:18Z</time>
      </trkpt>
      <trkpt lat="43.80076" lon="5.31122">
        <ele>497</ele>
        <time>2015-02-08T10:53:23Z</time>
      </trkpt>
      <trkpt lat="43.8008" lon="5.31135">
        <ele>497.7</ele>
        <time>2015-02-08T10:53:30Z</time>
      </trkpt>
      <trkpt lat="43.80082" lon="5.31147">
        <ele>498.4</ele>
        <time>2015-02-08T10:53:38Z</time>
      </trkpt>
      <trkpt lat="43.80086" lon="5.31162">
        <ele>499</ele>
        <time>2015-02-08T10:53:45Z</time>
      </trkpt>
      <trkpt lat="43.80095" lon="5.31168">
        <ele>499.6</ele>
        <time>2015-02-08T10:53:51Z</time>
      </trkpt>
      <trkpt lat="43.80104" lon="5.31175">
        <ele>500</ele>
        <time>2015-02-08T10:53:56Z</time>
      </trkpt>
      <trkpt lat="43.80112" lon="5.31183">
        <ele>500.3</ele>
        <time>2015-02-08T10:54:01Z</time>
      </trkpt>
      <trkpt lat="43.8012" lon="5.31192">
        <ele>500.6</ele>
        <time>2015-02-08T10:54:07Z</time>
      </trkpt>
      <trkpt lat="43.80128" lon="5.31197">
        <ele>501.1</ele>
        <time>2015-02-08T10:54:14Z</time>
      </trkpt>
      <trkpt lat="43.80138" lon="5.31198">
        <ele>501.4</ele>
        <time>2015-02-08T10:54:18Z</time>
      </trkpt>
      <trkpt lat="43.80148" lon="5.31199">
        <ele>501.7</ele>
        <time>2015-02-08T10:54:21Z</time>
      </trkpt>
      <trkpt lat="43.80157" lon="5.312">
        <ele>502.2</ele>
        <time>2015-02-08T10:54:28Z</time>
      </trkpt>
      <trkpt lat="43.80167" lon="5.31203">
        <ele>502.6</ele>
        <time>2015-02-08T10:54:35Z</time>
      </trkpt>
      <trkpt lat="43.80175" lon="5.31211">
        <ele>503.3</ele>
        <time>2015-02-08T10:54:45Z</time>
      </trkpt>
      <trkpt lat="43.80183" lon="5.31219">
        <ele>503.6</ele>
        <time>2015-02-08T10:54:49Z</time>
      </trkpt>
      <trkpt lat="43.80192" lon="5.31224">
        <ele>503.9</ele>
        <time>2015-02-08T10:54:54Z</time>
      </trkpt>
      <trkpt lat="43.802" lon="5.31232">
        <ele>504.1</ele>
        <time>2015-02-08T10:54:59Z</time>
      </trkpt>
      <trkpt lat="43.80207" lon="5.31241">
        <ele>504.2</ele>
        <time>2015-02-08T10:55:05Z</time>
      </trkpt>
      <trkpt lat="43.80213" lon="5.31251">
        <ele>504.3</ele>
        <time>2015-02-08T10:55:11Z</time>
      </trkpt>
      <trkpt lat="43.8022" lon="5.3126">
        <ele>504.4</ele>
        <time>2015-02-08T10:55:17Z</time>
      </trkpt>
      <trkpt lat="43.80225" lon="5.31272">
        <ele>505.2</ele>
        <time>2015-02-08T10:55:23Z</time>
      </trkpt>
      <trkpt lat="43.80229" lon="5.31283">
        <ele>505.4</ele>
        <time>2015-02-08T10:55:27Z</time>
      </trkpt>
      <trkpt lat="43.80237" lon="5.3129">
        <ele>505.5</ele>
        <time>2015-02-08T10:55:34Z</time>
      </trkpt>
      <trkpt lat="43.80242" lon="5.31301">
        <ele>505.5</ele>
        <time>2015-02-08T10:55:41Z</time>
      </trkpt>
      <trkpt lat="43.80248" lon="5.31313">
        <ele>505.5</ele>
        <time>2015-02-08T10:55:47Z</time>
      </trkpt>
      <trkpt lat="43.80252" lon="5.31325">
        <ele>505.6</ele>
        <time>2015-02-08T10:55:56Z</time>
      </trkpt>
      <trkpt lat="43.80259" lon="5.31333">
        <ele>506</ele>
        <time>2015-02-08T10:56:01Z</time>
      </trkpt>
      <trkpt lat="43.80265" lon="5.31345">
        <ele>506.3</ele>
        <time>2015-02-08T10:56:06Z</time>
      </trkpt>
      <trkpt lat="43.80275" lon="5.3135">
        <ele>506.6</ele>
        <time>2015-02-08T10:56:11Z</time>
      </trkpt>
      <trkpt lat="43.80284" lon="5.31358">
        <ele>506.8</ele>
        <time>2015-02-08T10:56:16Z</time>
      </trkpt>
      <trkpt lat="43.80292" lon="5.31366">
        <ele>507.1</ele>
        <time>2015-02-08T10:56:21Z</time>
      </trkpt>
      <trkpt lat="43.80302" lon="5.31373">
        <ele>507.5</ele>
        <time>2015-02-08T10:56:25Z</time>
      </trkpt>
      <trkpt lat="43.80312" lon="5.31374">
        <ele>507.9</ele>
        <time>2015-02-08T10:56:29Z</time>
      </trkpt>
      <trkpt lat="43.80321" lon="5.31376">
        <ele>508.4</ele>
        <time>2015-02-08T10:56:34Z</time>
      </trkpt>
      <trkpt lat="43.80329" lon="5.31381">
        <ele>508.9</ele>
        <time>2015-02-08T10:56:39Z</time>
      </trkpt>
      <trkpt lat="43.80341" lon="5.31384">
        <ele>509.6</ele>
        <time>2015-02-08T10:56:44Z</time>
      </trkpt>
      <trkpt lat="43.8035" lon="5.31389">
        <ele>510.9</ele>
        <time>2015-02-08T10:56:53Z</time>
      </trkpt>
      <trkpt lat="43.80358" lon="5.31395">
        <ele>511.2</ele>
        <time>2015-02-08T10:56:56Z</time>
      </trkpt>
      <trkpt lat="43.8035" lon="5.31403">
        <ele>512</ele>
        <time>2015-02-08T10:57:03Z</time>
      </trkpt>
      <trkpt lat="43.80343" lon="5.3141">
        <ele>512.3</ele>
        <time>2015-02-08T10:57:10Z</time>
      </trkpt>
      <trkpt lat="43.80334" lon="5.31417">
        <ele>512</ele>
        <time>2015-02-08T10:57:17Z</time>
      </trkpt>
      <trkpt lat="43.80329" lon="5.31429">
        <ele>510.3</ele>
        <time>2015-02-08T10:57:54Z</time>
      </trkpt>
      <trkpt lat="43.80321" lon="5.3144">
        <ele>510</ele>
        <time>2015-02-08T10:57:58Z</time>
      </trkpt>
      <trkpt lat="43.80315" lon="5.3145">
        <ele>509.6</ele>
        <time>2015-02-08T10:58:02Z</time>
      </trkpt>
      <trkpt lat="43.80308" lon="5.31458">
        <ele>509.2</ele>
        <time>2015-02-08T10:58:06Z</time>
      </trkpt>
      <trkpt lat="43.803" lon="5.31467">
        <ele>508.6</ele>
        <time>2015-02-08T10:58:11Z</time>
      </trkpt>
      <trkpt lat="43.80293" lon="5.31476">
        <ele>507.9</ele>
        <time>2015-02-08T10:58:18Z</time>
      </trkpt>
      <trkpt lat="43.80284" lon="5.31485">
        <ele>506.9</ele>
        <time>2015-02-08T10:58:25Z</time>
      </trkpt>
      <trkpt lat="43.80276" lon="5.31491">
        <ele>506.3</ele>
        <time>2015-02-08T10:58:30Z</time>
      </trkpt>
      <trkpt lat="43.80266" lon="5.31498">
        <ele>505.1</ele>
        <time>2015-02-08T10:58:39Z</time>
      </trkpt>
      <trkpt lat="43.80257" lon="5.31496">
        <ele>503.8</ele>
        <time>2015-02-08T10:58:47Z</time>
      </trkpt>
      <trkpt lat="43.80248" lon="5.31493">
        <ele>502.3</ele>
        <time>2015-02-08T10:58:54Z</time>
      </trkpt>
      <trkpt lat="43.80238" lon="5.31491">
        <ele>500.5</ele>
        <time>2015-02-08T10:59:02Z</time>
      </trkpt>
      <trkpt lat="43.80229" lon="5.31485">
        <ele>498.9</ele>
        <time>2015-02-08T10:59:08Z</time>
      </trkpt>
      <trkpt lat="43.80219" lon="5.31482">
        <ele>497.5</ele>
        <time>2015-02-08T10:59:14Z</time>
      </trkpt>
      <trkpt lat="43.8021" lon="5.31479">
        <ele>496.4</ele>
        <time>2015-02-08T10:59:21Z</time>
      </trkpt>
      <trkpt lat="43.802" lon="5.31475">
        <ele>494.8</ele>
        <time>2015-02-08T10:59:28Z</time>
      </trkpt>
      <trkpt lat="43.8019" lon="5.31472">
        <ele>493.7</ele>
        <time>2015-02-08T10:59:34Z</time>
      </trkpt>
      <trkpt lat="43.8018" lon="5.3147">
        <ele>492.6</ele>
        <time>2015-02-08T10:59:40Z</time>
      </trkpt>
      <trkpt lat="43.8017" lon="5.31468">
        <ele>491.8</ele>
        <time>2015-02-08T10:59:47Z</time>
      </trkpt>
      <trkpt lat="43.8016" lon="5.31466">
        <ele>491.3</ele>
        <time>2015-02-08T10:59:53Z</time>
      </trkpt>
      <trkpt lat="43.80151" lon="5.31466">
        <ele>491.1</ele>
        <time>2015-02-08T10:59:58Z</time>
      </trkpt>
      <trkpt lat="43.80141" lon="5.3147">
        <ele>490.9</ele>
        <time>2015-02-08T11:00:04Z</time>
      </trkpt>
      <trkpt lat="43.80132" lon="5.31476">
        <ele>491.1</ele>
        <time>2015-02-08T11:00:10Z</time>
      </trkpt>
      <trkpt lat="43.80125" lon="5.31484">
        <ele>491.1</ele>
        <time>2015-02-08T11:00:16Z</time>
      </trkpt>
      <trkpt lat="43.80118" lon="5.31492">
        <ele>490.9</ele>
        <time>2015-02-08T11:00:22Z</time>
      </trkpt>
      <trkpt lat="43.8011" lon="5.31503">
        <ele>490.6</ele>
        <time>2015-02-08T11:00:28Z</time>
      </trkpt>
      <trkpt lat="43.80106" lon="5.31515">
        <ele>490.4</ele>
        <time>2015-02-08T11:00:34Z</time>
      </trkpt>
      <trkpt lat="43.80101" lon="5.31527">
        <ele>489.8</ele>
        <time>2015-02-08T11:00:41Z</time>
      </trkpt>
      <trkpt lat="43.80097" lon="5.31539">
        <ele>489.5</ele>
        <time>2015-02-08T11:00:47Z</time>
      </trkpt>
      <trkpt lat="43.80092" lon="5.31549">
        <ele>489</ele>
        <time>2015-02-08T11:00:53Z</time>
      </trkpt>
      <trkpt lat="43.80088" lon="5.31564">
        <ele>488.4</ele>
        <time>2015-02-08T11:01:00Z</time>
      </trkpt>
      <trkpt lat="43.80084" lon="5.31575">
        <ele>487.6</ele>
        <time>2015-02-08T11:01:05Z</time>
      </trkpt>
      <trkpt lat="43.8008" lon="5.31588">
        <ele>486.7</ele>
        <time>2015-02-08T11:01:12Z</time>
      </trkpt>
      <trkpt lat="43.80079" lon="5.31601">
        <ele>485.1</ele>
        <time>2015-02-08T11:01:21Z</time>
      </trkpt>
      <trkpt lat="43.80077" lon="5.31614">
        <ele>484.1</ele>
        <time>2015-02-08T11:01:27Z</time>
      </trkpt>
      <trkpt lat="43.80075" lon="5.31629">
        <ele>483.3</ele>
        <time>2015-02-08T11:01:33Z</time>
      </trkpt>
      <trkpt lat="43.80074" lon="5.31642">
        <ele>482.5</ele>
        <time>2015-02-08T11:01:38Z</time>
      </trkpt>
      <trkpt lat="43.80072" lon="5.31656">
        <ele>481.6</ele>
        <time>2015-02-08T11:01:45Z</time>
      </trkpt>
      <trkpt lat="43.8007" lon="5.3167">
        <ele>480.9</ele>
        <time>2015-02-08T11:01:52Z</time>
      </trkpt>
      <trkpt lat="43.80066" lon="5.31682">
        <ele>480.2</ele>
        <time>2015-02-08T11:01:58Z</time>
      </trkpt>
      <trkpt lat="43.80064" lon="5.31695">
        <ele>479.5</ele>
        <time>2015-02-08T11:02:04Z</time>
      </trkpt>
      <trkpt lat="43.80057" lon="5.31705">
        <ele>478.9</ele>
        <time>2015-02-08T11:02:10Z</time>
      </trkpt>
      <trkpt lat="43.80048" lon="5.31712">
        <ele>478.6</ele>
        <time>2015-02-08T11:02:15Z</time>
      </trkpt>
      <trkpt lat="43.80039" lon="5.31717">
        <ele>478.3</ele>
        <time>2015-02-08T11:02:20Z</time>
      </trkpt>
      <trkpt lat="43.80028" lon="5.3172">
        <ele>478</ele>
        <time>2015-02-08T11:02:25Z</time>
      </trkpt>
      <trkpt lat="43.80019" lon="5.31723">
        <ele>477.8</ele>
        <time>2015-02-08T11:02:30Z</time>
      </trkpt>
      <trkpt lat="43.80009" lon="5.31724">
        <ele>477.6</ele>
        <time>2015-02-08T11:02:35Z</time>
      </trkpt>
      <trkpt lat="43.80002" lon="5.31734">
        <ele>477.5</ele>
        <time>2015-02-08T11:02:43Z</time>
      </trkpt>
      <trkpt lat="43.79995" lon="5.31745">
        <ele>477.4</ele>
        <time>2015-02-08T11:02:50Z</time>
      </trkpt>
      <trkpt lat="43.79988" lon="5.31756">
        <ele>477.4</ele>
        <time>2015-02-08T11:02:56Z</time>
      </trkpt>
      <trkpt lat="43.79982" lon="5.3177">
        <ele>477.3</ele>
        <time>2015-02-08T11:03:01Z</time>
      </trkpt>
      <trkpt lat="43.7998" lon="5.31782">
        <ele>477.1</ele>
        <time>2015-02-08T11:03:07Z</time>
      </trkpt>
      <trkpt lat="43.79977" lon="5.31795">
        <ele>476.8</ele>
        <time>2015-02-08T11:03:14Z</time>
      </trkpt>
      <trkpt lat="43.79976" lon="5.31809">
        <ele>475.9</ele>
        <time>2015-02-08T11:03:21Z</time>
      </trkpt>
      <trkpt lat="43.79976" lon="5.31823">
        <ele>475</ele>
        <time>2015-02-08T11:03:27Z</time>
      </trkpt>
      <trkpt lat="43.79976" lon="5.31837">
        <ele>473.9</ele>
        <time>2015-02-08T11:03:33Z</time>
      </trkpt>
      <trkpt lat="43.79977" lon="5.31851">
        <ele>473.1</ele>
        <time>2015-02-08T11:03:38Z</time>
      </trkpt>
      <trkpt lat="43.79979" lon="5.31865">
        <ele>472.1</ele>
        <time>2015-02-08T11:03:44Z</time>
      </trkpt>
      <trkpt lat="43.7998" lon="5.31878">
        <ele>471.3</ele>
        <time>2015-02-08T11:03:49Z</time>
      </trkpt>
      <trkpt lat="43.79977" lon="5.31891">
        <ele>470.4</ele>
        <time>2015-02-08T11:03:56Z</time>
      </trkpt>
      <trkpt lat="43.79971" lon="5.31902">
        <ele>469.7</ele>
        <time>2015-02-08T11:04:02Z</time>
      </trkpt>
      <trkpt lat="43.79964" lon="5.31911">
        <ele>468.5</ele>
        <time>2015-02-08T11:04:08Z</time>
      </trkpt>
      <trkpt lat="43.79958" lon="5.31921">
        <ele>467.2</ele>
        <time>2015-02-08T11:04:14Z</time>
      </trkpt>
      <trkpt lat="43.7995" lon="5.31931">
        <ele>465.5</ele>
        <time>2015-02-08T11:04:21Z</time>
      </trkpt>
      <trkpt lat="43.79941" lon="5.31929">
        <ele>462.1</ele>
        <time>2015-02-08T11:04:42Z</time>
      </trkpt>
      <trkpt lat="43.79931" lon="5.3193">
        <ele>460.6</ele>
        <time>2015-02-08T11:04:50Z</time>
      </trkpt>
      <trkpt lat="43.79922" lon="5.31934">
        <ele>459.2</ele>
        <time>2015-02-08T11:04:57Z</time>
      </trkpt>
      <trkpt lat="43.79915" lon="5.31942">
        <ele>457.7</ele>
        <time>2015-02-08T11:05:03Z</time>
      </trkpt>
      <trkpt lat="43.7991" lon="5.31953">
        <ele>456.5</ele>
        <time>2015-02-08T11:05:08Z</time>
      </trkpt>
      <trkpt lat="43.79908" lon="5.31965">
        <ele>455.1</ele>
        <time>2015-02-08T11:05:14Z</time>
      </trkpt>
      <trkpt lat="43.79905" lon="5.31977">
        <ele>454.2</ele>
        <time>2015-02-08T11:05:18Z</time>
      </trkpt>
      <trkpt lat="43.79904" lon="5.31991">
        <ele>453.1</ele>
        <time>2015-02-08T11:05:25Z</time>
      </trkpt>
      <trkpt lat="43.79905" lon="5.32003">
        <ele>451.9</ele>
        <time>2015-02-08T11:05:34Z</time>
      </trkpt>
      <trkpt lat="43.79905" lon="5.32016">
        <ele>451</ele>
        <time>2015-02-08T11:05:41Z</time>
      </trkpt>
      <trkpt lat="43.79907" lon="5.32033">
        <ele>450.4</ele>
        <time>2015-02-08T11:05:47Z</time>
      </trkpt>
      <trkpt lat="43.79908" lon="5.32046">
        <ele>449.5</ele>
        <time>2015-02-08T11:05:53Z</time>
      </trkpt>
      <trkpt lat="43.7991" lon="5.32059">
        <ele>448.4</ele>
        <time>2015-02-08T11:06:00Z</time>
      </trkpt>
      <trkpt lat="43.79908" lon="5.32073">
        <ele>444.4</ele>
        <time>2015-02-08T11:06:41Z</time>
      </trkpt>
      <trkpt lat="43.79902" lon="5.32084">
        <ele>443.7</ele>
        <time>2015-02-08T11:06:48Z</time>
      </trkpt>
      <trkpt lat="43.79897" lon="5.32095">
        <ele>443.2</ele>
        <time>2015-02-08T11:06:54Z</time>
      </trkpt>
      <trkpt lat="43.79893" lon="5.32107">
        <ele>442.8</ele>
        <time>2015-02-08T11:07:00Z</time>
      </trkpt>
      <trkpt lat="43.7989" lon="5.3212">
        <ele>442.3</ele>
        <time>2015-02-08T11:07:06Z</time>
      </trkpt>
      <trkpt lat="43.79885" lon="5.32132">
        <ele>441.3</ele>
        <time>2015-02-08T11:07:15Z</time>
      </trkpt>
      <trkpt lat="43.79877" lon="5.32139">
        <ele>440.8</ele>
        <time>2015-02-08T11:07:21Z</time>
      </trkpt>
      <trkpt lat="43.79872" lon="5.32127">
        <ele>439.6</ele>
        <time>2015-02-08T11:07:31Z</time>
      </trkpt>
      <trkpt lat="43.79863" lon="5.32125">
        <ele>439</ele>
        <time>2015-02-08T11:07:38Z</time>
      </trkpt>
      <trkpt lat="43.79854" lon="5.32125">
        <ele>437.9</ele>
        <time>2015-02-08T11:07:45Z</time>
      </trkpt>
      <trkpt lat="43.79851" lon="5.32138">
        <ele>437.3</ele>
        <time>2015-02-08T11:07:50Z</time>
      </trkpt>
      <trkpt lat="43.7986" lon="5.32138">
        <ele>436.6</ele>
        <time>2015-02-08T11:08:01Z</time>
      </trkpt>
      <trkpt lat="43.79868" lon="5.32133">
        <ele>437.1</ele>
        <time>2015-02-08T11:11:51Z</time>
      </trkpt>
      <trkpt lat="43.79869" lon="5.32141">
        <ele>438.3</ele>
        <time>2015-02-08T11:13:59Z</time>
      </trkpt>
      <trkpt lat="43.79681" lon="5.32752">
        <ele>449.9</ele>
        <time>2015-02-08T13:03:44Z</time>
      </trkpt>
      <trkpt lat="43.79682" lon="5.32764">
        <ele>448.7</ele>
        <time>2015-02-08T13:03:51Z</time>
      </trkpt>
      <trkpt lat="43.79682" lon="5.32778">
        <ele>447.7</ele>
        <time>2015-02-08T13:03:56Z</time>
      </trkpt>
      <trkpt lat="43.79682" lon="5.32791">
        <ele>446.9</ele>
        <time>2015-02-08T13:04:02Z</time>
      </trkpt>
      <trkpt lat="43.7968" lon="5.32803">
        <ele>446.2</ele>
        <time>2015-02-08T13:04:09Z</time>
      </trkpt>
      <trkpt lat="43.79675" lon="5.32814">
        <ele>444.3</ele>
        <time>2015-02-08T13:04:19Z</time>
      </trkpt>
      <trkpt lat="43.79667" lon="5.32823">
        <ele>440.8</ele>
        <time>2015-02-08T13:04:33Z</time>
      </trkpt>
      <trkpt lat="43.79663" lon="5.32834">
        <ele>439.9</ele>
        <time>2015-02-08T13:04:40Z</time>
      </trkpt>
      <trkpt lat="43.79657" lon="5.32846">
        <ele>439</ele>
        <time>2015-02-08T13:04:44Z</time>
      </trkpt>
      <trkpt lat="43.79652" lon="5.32858">
        <ele>438.2</ele>
        <time>2015-02-08T13:04:48Z</time>
      </trkpt>
      <trkpt lat="43.79648" lon="5.32869">
        <ele>436.9</ele>
        <time>2015-02-08T13:04:53Z</time>
      </trkpt>
      <trkpt lat="43.79645" lon="5.32883">
        <ele>435.7</ele>
        <time>2015-02-08T13:04:58Z</time>
      </trkpt>
      <trkpt lat="43.7965" lon="5.32893">
        <ele>434.4</ele>
        <time>2015-02-08T13:05:03Z</time>
      </trkpt>
      <trkpt lat="43.79651" lon="5.32907">
        <ele>432.8</ele>
        <time>2015-02-08T13:05:10Z</time>
      </trkpt>
      <trkpt lat="43.79654" lon="5.32919">
        <ele>431</ele>
        <time>2015-02-08T13:05:17Z</time>
      </trkpt>
      <trkpt lat="43.79654" lon="5.32932">
        <ele>429.5</ele>
        <time>2015-02-08T13:05:24Z</time>
      </trkpt>
      <trkpt lat="43.79651" lon="5.32945">
        <ele>428.5</ele>
        <time>2015-02-08T13:05:31Z</time>
      </trkpt>
      <trkpt lat="43.79652" lon="5.32957">
        <ele>427.6</ele>
        <time>2015-02-08T13:05:36Z</time>
      </trkpt>
      <trkpt lat="43.79661" lon="5.32964">
        <ele>426.8</ele>
        <time>2015-02-08T13:05:41Z</time>
      </trkpt>
      <trkpt lat="43.7967" lon="5.3297">
        <ele>424.5</ele>
        <time>2015-02-08T13:05:53Z</time>
      </trkpt>
      <trkpt lat="43.79674" lon="5.32981">
        <ele>422.5</ele>
        <time>2015-02-08T13:06:03Z</time>
      </trkpt>
      <trkpt lat="43.79676" lon="5.32995">
        <ele>421.2</ele>
        <time>2015-02-08T13:06:10Z</time>
      </trkpt>
      <trkpt lat="43.79669" lon="5.33003">
        <ele>420.4</ele>
        <time>2015-02-08T13:06:15Z</time>
      </trkpt>
      <trkpt lat="43.79659" lon="5.33008">
        <ele>419</ele>
        <time>2015-02-08T13:06:21Z</time>
      </trkpt>
      <trkpt lat="43.7965" lon="5.33012">
        <ele>417.4</ele>
        <time>2015-02-08T13:06:28Z</time>
      </trkpt>
      <trkpt lat="43.7964" lon="5.33016">
        <ele>415.9</ele>
        <time>2015-02-08T13:06:35Z</time>
      </trkpt>
      <trkpt lat="43.79631" lon="5.33019">
        <ele>415</ele>
        <time>2015-02-08T13:06:40Z</time>
      </trkpt>
      <trkpt lat="43.79621" lon="5.33021">
        <ele>414.1</ele>
        <time>2015-02-08T13:06:46Z</time>
      </trkpt>
      <trkpt lat="43.79612" lon="5.33021">
        <ele>413.2</ele>
        <time>2015-02-08T13:06:52Z</time>
      </trkpt>
      <trkpt lat="43.79603" lon="5.33021">
        <ele>412.3</ele>
        <time>2015-02-08T13:06:58Z</time>
      </trkpt>
      <trkpt lat="43.79594" lon="5.3302">
        <ele>411</ele>
        <time>2015-02-08T13:07:07Z</time>
      </trkpt>
      <trkpt lat="43.79585" lon="5.33016">
        <ele>410.2</ele>
        <time>2015-02-08T13:07:12Z</time>
      </trkpt>
      <trkpt lat="43.79576" lon="5.3301">
        <ele>408.7</ele>
        <time>2015-02-08T13:07:18Z</time>
      </trkpt>
      <trkpt lat="43.79567" lon="5.33004">
        <ele>407.3</ele>
        <time>2015-02-08T13:07:24Z</time>
      </trkpt>
      <trkpt lat="43.79558" lon="5.33002">
        <ele>406.1</ele>
        <time>2015-02-08T13:07:29Z</time>
      </trkpt>
      <trkpt lat="43.79549" lon="5.32995">
        <ele>404.3</ele>
        <time>2015-02-08T13:07:36Z</time>
      </trkpt>
      <trkpt lat="43.7954" lon="5.32994">
        <ele>402.8</ele>
        <time>2015-02-08T13:07:42Z</time>
      </trkpt>
      <trkpt lat="43.79531" lon="5.32999">
        <ele>401.7</ele>
        <time>2015-02-08T13:07:47Z</time>
      </trkpt>
      <trkpt lat="43.79523" lon="5.33007">
        <ele>400.5</ele>
        <time>2015-02-08T13:07:54Z</time>
      </trkpt>
      <trkpt lat="43.79516" lon="5.33015">
        <ele>399.6</ele>
        <time>2015-02-08T13:08:01Z</time>
      </trkpt>
      <trkpt lat="43.7951" lon="5.33026">
        <ele>398.8</ele>
        <time>2015-02-08T13:08:07Z</time>
      </trkpt>
      <trkpt lat="43.79505" lon="5.33038">
        <ele>397.8</ele>
        <time>2015-02-08T13:08:14Z</time>
      </trkpt>
      <trkpt lat="43.79501" lon="5.33051">
        <ele>396.9</ele>
        <time>2015-02-08T13:08:20Z</time>
      </trkpt>
      <trkpt lat="43.79499" lon="5.33064">
        <ele>395.6</ele>
        <time>2015-02-08T13:08:28Z</time>
      </trkpt>
      <trkpt lat="43.79498" lon="5.33077">
        <ele>394.5</ele>
        <time>2015-02-08T13:08:35Z</time>
      </trkpt>
      <trkpt lat="43.79495" lon="5.33089">
        <ele>393.4</ele>
        <time>2015-02-08T13:08:41Z</time>
      </trkpt>
      <trkpt lat="43.79494" lon="5.33104">
        <ele>392.6</ele>
        <time>2015-02-08T13:08:46Z</time>
      </trkpt>
      <trkpt lat="43.79495" lon="5.33119">
        <ele>391.6</ele>
        <time>2015-02-08T13:08:52Z</time>
      </trkpt>
      <trkpt lat="43.795" lon="5.33131">
        <ele>390.7</ele>
        <time>2015-02-08T13:08:59Z</time>
      </trkpt>
      <trkpt lat="43.795" lon="5.33144">
        <ele>390.1</ele>
        <time>2015-02-08T13:09:05Z</time>
      </trkpt>
      <trkpt lat="43.7951" lon="5.3315">
        <ele>389.7</ele>
        <time>2015-02-08T13:09:12Z</time>
      </trkpt>
      <trkpt lat="43.7952" lon="5.33149">
        <ele>389.3</ele>
        <time>2015-02-08T13:09:17Z</time>
      </trkpt>
      <trkpt lat="43.79528" lon="5.33141">
        <ele>388.9</ele>
        <time>2015-02-08T13:09:23Z</time>
      </trkpt>
      <trkpt lat="43.79536" lon="5.33132">
        <ele>388.5</ele>
        <time>2015-02-08T13:09:29Z</time>
      </trkpt>
      <trkpt lat="43.79544" lon="5.33124">
        <ele>388</ele>
        <time>2015-02-08T13:09:36Z</time>
      </trkpt>
      <trkpt lat="43.79554" lon="5.33125">
        <ele>387.3</ele>
        <time>2015-02-08T13:09:42Z</time>
      </trkpt>
      <trkpt lat="43.79566" lon="5.33131">
        <ele>386.4</ele>
        <time>2015-02-08T13:09:48Z</time>
      </trkpt>
      <trkpt lat="43.79579" lon="5.33135">
        <ele>385.6</ele>
        <time>2015-02-08T13:09:51Z</time>
      </trkpt>
      <trkpt lat="43.7959" lon="5.3314">
        <ele>385.1</ele>
        <time>2015-02-08T13:09:54Z</time>
      </trkpt>
      <trkpt lat="43.79601" lon="5.33145">
        <ele>384.7</ele>
        <time>2015-02-08T13:09:57Z</time>
      </trkpt>
      <trkpt lat="43.79612" lon="5.33151">
        <ele>384</ele>
        <time>2015-02-08T13:10:00Z</time>
      </trkpt>
      <trkpt lat="43.79619" lon="5.3316">
        <ele>383.3</ele>
        <time>2015-02-08T13:10:04Z</time>
      </trkpt>
      <trkpt lat="43.79624" lon="5.33173">
        <ele>382.6</ele>
        <time>2015-02-08T13:10:10Z</time>
      </trkpt>
      <trkpt lat="43.79623" lon="5.33189">
        <ele>382.2</ele>
        <time>2015-02-08T13:10:14Z</time>
      </trkpt>
      <trkpt lat="43.79622" lon="5.33205">
        <ele>381.7</ele>
        <time>2015-02-08T13:10:18Z</time>
      </trkpt>
      <trkpt lat="43.79619" lon="5.33218">
        <ele>380.9</ele>
        <time>2015-02-08T13:10:26Z</time>
      </trkpt>
      <trkpt lat="43.79623" lon="5.3323">
        <ele>379.5</ele>
        <time>2015-02-08T13:14:51Z</time>
      </trkpt>
      <trkpt lat="43.79626" lon="5.33242">
        <ele>379.2</ele>
        <time>2015-02-08T13:14:59Z</time>
      </trkpt>
      <trkpt lat="43.79628" lon="5.33255">
        <ele>378.9</ele>
        <time>2015-02-08T13:15:03Z</time>
      </trkpt>
      <trkpt lat="43.79632" lon="5.33268">
        <ele>378.4</ele>
        <time>2015-02-08T13:15:12Z</time>
      </trkpt>
      <trkpt lat="43.79637" lon="5.33279">
        <ele>377.8</ele>
        <time>2015-02-08T13:15:19Z</time>
      </trkpt>
      <trkpt lat="43.79643" lon="5.33291">
        <ele>377.3</ele>
        <time>2015-02-08T13:15:27Z</time>
      </trkpt>
      <trkpt lat="43.79651" lon="5.33301">
        <ele>376.9</ele>
        <time>2015-02-08T13:15:32Z</time>
      </trkpt>
      <trkpt lat="43.79658" lon="5.33311">
        <ele>376.3</ele>
        <time>2015-02-08T13:15:39Z</time>
      </trkpt>
      <trkpt lat="43.79663" lon="5.33322">
        <ele>375.7</ele>
        <time>2015-02-08T13:15:45Z</time>
      </trkpt>
      <trkpt lat="43.79664" lon="5.33334">
        <ele>375.2</ele>
        <time>2015-02-08T13:15:51Z</time>
      </trkpt>
      <trkpt lat="43.79662" lon="5.33347">
        <ele>374.7</ele>
        <time>2015-02-08T13:15:55Z</time>
      </trkpt>
      <trkpt lat="43.79659" lon="5.33359">
        <ele>374</ele>
        <time>2015-02-08T13:16:00Z</time>
      </trkpt>
      <trkpt lat="43.79656" lon="5.33373">
        <ele>373.4</ele>
        <time>2015-02-08T13:16:05Z</time>
      </trkpt>
      <trkpt lat="43.79654" lon="5.33385">
        <ele>372.7</ele>
        <time>2015-02-08T13:16:11Z</time>
      </trkpt>
      <trkpt lat="43.79664" lon="5.3339">
        <ele>372.2</ele>
        <time>2015-02-08T13:16:18Z</time>
      </trkpt>
      <trkpt lat="43.79672" lon="5.33392">
        <ele>371.9</ele>
        <time>2015-02-08T13:16:23Z</time>
      </trkpt>
      <trkpt lat="43.79682" lon="5.33394">
        <ele>372.2</ele>
        <time>2015-02-08T13:16:28Z</time>
      </trkpt>
      <trkpt lat="43.79691" lon="5.33393">
        <ele>372.8</ele>
        <time>2015-02-08T13:16:36Z</time>
      </trkpt>
      <trkpt lat="43.79699" lon="5.33387">
        <ele>373.1</ele>
        <time>2015-02-08T13:16:40Z</time>
      </trkpt>
      <trkpt lat="43.79701" lon="5.33374">
        <ele>373.4</ele>
        <time>2015-02-08T13:16:46Z</time>
      </trkpt>
      <trkpt lat="43.79708" lon="5.33365">
        <ele>375.2</ele>
        <time>2015-02-08T13:16:59Z</time>
      </trkpt>
      <trkpt lat="43.79717" lon="5.33363">
        <ele>376.9</ele>
        <time>2015-02-08T13:17:09Z</time>
      </trkpt>
      <trkpt lat="43.79726" lon="5.33368">
        <ele>377.5</ele>
        <time>2015-02-08T13:17:14Z</time>
      </trkpt>
      <trkpt lat="43.79733" lon="5.33376">
        <ele>377.9</ele>
        <time>2015-02-08T13:17:19Z</time>
      </trkpt>
      <trkpt lat="43.7974" lon="5.33385">
        <ele>378.2</ele>
        <time>2015-02-08T13:17:24Z</time>
      </trkpt>
      <trkpt lat="43.79747" lon="5.33392">
        <ele>378.6</ele>
        <time>2015-02-08T13:17:31Z</time>
      </trkpt>
      <trkpt lat="43.79755" lon="5.334">
        <ele>379.1</ele>
        <time>2015-02-08T13:17:38Z</time>
      </trkpt>
      <trkpt lat="43.79763" lon="5.33407">
        <ele>379.4</ele>
        <time>2015-02-08T13:17:43Z</time>
      </trkpt>
      <trkpt lat="43.7977" lon="5.33414">
        <ele>379.6</ele>
        <time>2015-02-08T13:17:48Z</time>
      </trkpt>
      <trkpt lat="43.79778" lon="5.33421">
        <ele>379.8</ele>
        <time>2015-02-08T13:17:53Z</time>
      </trkpt>
      <trkpt lat="43.79785" lon="5.33429">
        <ele>380</ele>
        <time>2015-02-08T13:17:59Z</time>
      </trkpt>
      <trkpt lat="43.79795" lon="5.33432">
        <ele>380.4</ele>
        <time>2015-02-08T13:18:06Z</time>
      </trkpt>
      <trkpt lat="43.79803" lon="5.33424">
        <ele>380.8</ele>
        <time>2015-02-08T13:18:13Z</time>
      </trkpt>
      <trkpt lat="43.79809" lon="5.33413">
        <ele>381.1</ele>
        <time>2015-02-08T13:18:19Z</time>
      </trkpt>
      <trkpt lat="43.79809" lon="5.334">
        <ele>382.5</ele>
        <time>2015-02-08T13:18:26Z</time>
      </trkpt>
      <trkpt lat="43.79803" lon="5.33389">
        <ele>384.1</ele>
        <time>2015-02-08T13:18:34Z</time>
      </trkpt>
      <trkpt lat="43.798" lon="5.33377">
        <ele>384.8</ele>
        <time>2015-02-08T13:18:42Z</time>
      </trkpt>
      <trkpt lat="43.79809" lon="5.33368">
        <ele>385.3</ele>
        <time>2015-02-08T13:18:47Z</time>
      </trkpt>
      <trkpt lat="43.79813" lon="5.33358">
        <ele>385.9</ele>
        <time>2015-02-08T13:18:52Z</time>
      </trkpt>
      <trkpt lat="43.79816" lon="5.33345">
        <ele>388.2</ele>
        <time>2015-02-08T13:19:03Z</time>
      </trkpt>
      <trkpt lat="43.79825" lon="5.33348">
        <ele>389.8</ele>
        <time>2015-02-08T13:19:10Z</time>
      </trkpt>
      <trkpt lat="43.79835" lon="5.33346">
        <ele>391</ele>
        <time>2015-02-08T13:19:16Z</time>
      </trkpt>
      <trkpt lat="43.79845" lon="5.33345">
        <ele>391.8</ele>
        <time>2015-02-08T13:19:21Z</time>
      </trkpt>
      <trkpt lat="43.79853" lon="5.33336">
        <ele>392.8</ele>
        <time>2015-02-08T13:19:26Z</time>
      </trkpt>
      <trkpt lat="43.79861" lon="5.33329">
        <ele>394.9</ele>
        <time>2015-02-08T13:19:35Z</time>
      </trkpt>
      <trkpt lat="43.79869" lon="5.33324">
        <ele>396.8</ele>
        <time>2015-02-08T13:19:44Z</time>
      </trkpt>
      <trkpt lat="43.79879" lon="5.33319">
        <ele>398.4</ele>
        <time>2015-02-08T13:19:49Z</time>
      </trkpt>
      <trkpt lat="43.79889" lon="5.33316">
        <ele>400.4</ele>
        <time>2015-02-08T13:19:57Z</time>
      </trkpt>
      <trkpt lat="43.79899" lon="5.33312">
        <ele>401.3</ele>
        <time>2015-02-08T13:20:03Z</time>
      </trkpt>
      <trkpt lat="43.79907" lon="5.33302">
        <ele>402.2</ele>
        <time>2015-02-08T13:20:11Z</time>
      </trkpt>
      <trkpt lat="43.79916" lon="5.33294">
        <ele>403.3</ele>
        <time>2015-02-08T13:20:17Z</time>
      </trkpt>
      <trkpt lat="43.79925" lon="5.33289">
        <ele>404.4</ele>
        <time>2015-02-08T13:20:22Z</time>
      </trkpt>
      <trkpt lat="43.79933" lon="5.33284">
        <ele>405.8</ele>
        <time>2015-02-08T13:20:28Z</time>
      </trkpt>
      <trkpt lat="43.79944" lon="5.33281">
        <ele>407.7</ele>
        <time>2015-02-08T13:20:36Z</time>
      </trkpt>
      <trkpt lat="43.79955" lon="5.33278">
        <ele>409.9</ele>
        <time>2015-02-08T13:20:47Z</time>
      </trkpt>
      <trkpt lat="43.79964" lon="5.33277">
        <ele>411</ele>
        <time>2015-02-08T13:20:54Z</time>
      </trkpt>
      <trkpt lat="43.79974" lon="5.33272">
        <ele>412.4</ele>
        <time>2015-02-08T13:21:02Z</time>
      </trkpt>
      <trkpt lat="43.79984" lon="5.33271">
        <ele>413.3</ele>
        <time>2015-02-08T13:21:08Z</time>
      </trkpt>
      <trkpt lat="43.79993" lon="5.33271">
        <ele>415.4</ele>
        <time>2015-02-08T13:21:22Z</time>
      </trkpt>
      <trkpt lat="43.80003" lon="5.33275">
        <ele>416.4</ele>
        <time>2015-02-08T13:21:30Z</time>
      </trkpt>
      <trkpt lat="43.8001" lon="5.33282">
        <ele>417.2</ele>
        <time>2015-02-08T13:21:37Z</time>
      </trkpt>
      <trkpt lat="43.8002" lon="5.33289">
        <ele>417.9</ele>
        <time>2015-02-08T13:21:46Z</time>
      </trkpt>
      <trkpt lat="43.80029" lon="5.33295">
        <ele>418.5</ele>
        <time>2015-02-08T13:21:54Z</time>
      </trkpt>
      <trkpt lat="43.80036" lon="5.33303">
        <ele>419</ele>
        <time>2015-02-08T13:22:01Z</time>
      </trkpt>
      <trkpt lat="43.80045" lon="5.33307">
        <ele>419.4</ele>
        <time>2015-02-08T13:22:07Z</time>
      </trkpt>
      <trkpt lat="43.80053" lon="5.33315">
        <ele>420.3</ele>
        <time>2015-02-08T13:22:14Z</time>
      </trkpt>
      <trkpt lat="43.80062" lon="5.33323">
        <ele>421.4</ele>
        <time>2015-02-08T13:22:20Z</time>
      </trkpt>
      <trkpt lat="43.80067" lon="5.33311">
        <ele>423.3</ele>
        <time>2015-02-08T13:22:29Z</time>
      </trkpt>
      <trkpt lat="43.80065" lon="5.33299">
        <ele>424.6</ele>
        <time>2015-02-08T13:22:37Z</time>
      </trkpt>
      <trkpt lat="43.80066" lon="5.33286">
        <ele>425.4</ele>
        <time>2015-02-08T13:22:44Z</time>
      </trkpt>
      <trkpt lat="43.80064" lon="5.33272">
        <ele>426.5</ele>
        <time>2015-02-08T13:22:51Z</time>
      </trkpt>
      <trkpt lat="43.80061" lon="5.3326">
        <ele>427.3</ele>
        <time>2015-02-08T13:22:58Z</time>
      </trkpt>
      <trkpt lat="43.80061" lon="5.33245">
        <ele>428.4</ele>
        <time>2015-02-08T13:23:07Z</time>
      </trkpt>
      <trkpt lat="43.8006" lon="5.33232">
        <ele>429.3</ele>
        <time>2015-02-08T13:23:15Z</time>
      </trkpt>
      <trkpt lat="43.80062" lon="5.33219">
        <ele>429.7</ele>
        <time>2015-02-08T13:23:22Z</time>
      </trkpt>
      <trkpt lat="43.80065" lon="5.33207">
        <ele>430.2</ele>
        <time>2015-02-08T13:23:32Z</time>
      </trkpt>
      <trkpt lat="43.80074" lon="5.33202">
        <ele>432.9</ele>
        <time>2015-02-08T13:23:45Z</time>
      </trkpt>
      <trkpt lat="43.80081" lon="5.33214">
        <ele>434.4</ele>
        <time>2015-02-08T13:23:54Z</time>
      </trkpt>
      <trkpt lat="43.80085" lon="5.33225">
        <ele>436</ele>
        <time>2015-02-08T13:24:01Z</time>
      </trkpt>
      <trkpt lat="43.80089" lon="5.33238">
        <ele>437.6</ele>
        <time>2015-02-08T13:24:11Z</time>
      </trkpt>
      <trkpt lat="43.80092" lon="5.3325">
        <ele>438.1</ele>
        <time>2015-02-08T13:24:17Z</time>
      </trkpt>
      <trkpt lat="43.80094" lon="5.33265">
        <ele>438.9</ele>
        <time>2015-02-08T13:24:24Z</time>
      </trkpt>
      <trkpt lat="43.80097" lon="5.33277">
        <ele>439.3</ele>
        <time>2015-02-08T13:24:27Z</time>
      </trkpt>
      <trkpt lat="43.80098" lon="5.3329">
        <ele>439.9</ele>
        <time>2015-02-08T13:24:32Z</time>
      </trkpt>
      <trkpt lat="43.80098" lon="5.33304">
        <ele>440.1</ele>
        <time>2015-02-08T13:24:41Z</time>
      </trkpt>
      <trkpt lat="43.80101" lon="5.33317">
        <ele>440</ele>
        <time>2015-02-08T13:24:49Z</time>
      </trkpt>
      <trkpt lat="43.80105" lon="5.3333">
        <ele>439.8</ele>
        <time>2015-02-08T13:24:56Z</time>
      </trkpt>
      <trkpt lat="43.80107" lon="5.33343">
        <ele>439.5</ele>
        <time>2015-02-08T13:25:02Z</time>
      </trkpt>
      <trkpt lat="43.80111" lon="5.33359">
        <ele>439.3</ele>
        <time>2015-02-08T13:25:06Z</time>
      </trkpt>
      <trkpt lat="43.80116" lon="5.33373">
        <ele>439.2</ele>
        <time>2015-02-08T13:25:09Z</time>
      </trkpt>
      <trkpt lat="43.80122" lon="5.33384">
        <ele>439.3</ele>
        <time>2015-02-08T13:25:16Z</time>
      </trkpt>
      <trkpt lat="43.80127" lon="5.33397">
        <ele>439.6</ele>
        <time>2015-02-08T13:25:22Z</time>
      </trkpt>
      <trkpt lat="43.80133" lon="5.33409">
        <ele>440.3</ele>
        <time>2015-02-08T13:25:28Z</time>
      </trkpt>
      <trkpt lat="43.80141" lon="5.33417">
        <ele>441.4</ele>
        <time>2015-02-08T13:25:36Z</time>
      </trkpt>
      <trkpt lat="43.80149" lon="5.33426">
        <ele>442.2</ele>
        <time>2015-02-08T13:25:43Z</time>
      </trkpt>
      <trkpt lat="43.80155" lon="5.33437">
        <ele>443.6</ele>
        <time>2015-02-08T13:25:51Z</time>
      </trkpt>
      <trkpt lat="43.8016" lon="5.33448">
        <ele>445.2</ele>
        <time>2015-02-08T13:26:02Z</time>
      </trkpt>
      <trkpt lat="43.80167" lon="5.33459">
        <ele>446.7</ele>
        <time>2015-02-08T13:26:12Z</time>
      </trkpt>
      <trkpt lat="43.80172" lon="5.3347">
        <ele>447.6</ele>
        <time>2015-02-08T13:26:20Z</time>
      </trkpt>
      <trkpt lat="43.80181" lon="5.33479">
        <ele>449.1</ele>
        <time>2015-02-08T13:26:29Z</time>
      </trkpt>
      <trkpt lat="43.80189" lon="5.33486">
        <ele>450.1</ele>
        <time>2015-02-08T13:26:34Z</time>
      </trkpt>
      <trkpt lat="43.80195" lon="5.33496">
        <ele>451.3</ele>
        <time>2015-02-08T13:26:41Z</time>
      </trkpt>
      <trkpt lat="43.80203" lon="5.33505">
        <ele>452.7</ele>
        <time>2015-02-08T13:26:49Z</time>
      </trkpt>
      <trkpt lat="43.80208" lon="5.33516">
        <ele>453.9</ele>
        <time>2015-02-08T13:26:58Z</time>
      </trkpt>
      <trkpt lat="43.80212" lon="5.33529">
        <ele>454.8</ele>
        <time>2015-02-08T13:27:06Z</time>
      </trkpt>
      <trkpt lat="43.80216" lon="5.3354">
        <ele>455.1</ele>
        <time>2015-02-08T13:27:12Z</time>
      </trkpt>
      <trkpt lat="43.80221" lon="5.33552">
        <ele>455.3</ele>
        <time>2015-02-08T13:27:21Z</time>
      </trkpt>
      <trkpt lat="43.80227" lon="5.33563">
        <ele>455.1</ele>
        <time>2015-02-08T13:27:31Z</time>
      </trkpt>
      <trkpt lat="43.80233" lon="5.33572">
        <ele>452.2</ele>
        <time>2015-02-08T13:28:09Z</time>
      </trkpt>
      <trkpt lat="43.80235" lon="5.33585">
        <ele>451.7</ele>
        <time>2015-02-08T13:28:13Z</time>
      </trkpt>
      <trkpt lat="43.8024" lon="5.33596">
        <ele>451.2</ele>
        <time>2015-02-08T13:28:17Z</time>
      </trkpt>
      <trkpt lat="43.80244" lon="5.33611">
        <ele>451.1</ele>
        <time>2015-02-08T13:28:20Z</time>
      </trkpt>
      <trkpt lat="43.80255" lon="5.33621">
        <ele>451.1</ele>
        <time>2015-02-08T13:28:23Z</time>
      </trkpt>
      <trkpt lat="43.80263" lon="5.3363">
        <ele>451.1</ele>
        <time>2015-02-08T13:28:26Z</time>
      </trkpt>
      <trkpt lat="43.80271" lon="5.33639">
        <ele>450.8</ele>
        <time>2015-02-08T13:28:31Z</time>
      </trkpt>
      <trkpt lat="43.80282" lon="5.33645">
        <ele>450.5</ele>
        <time>2015-02-08T13:28:37Z</time>
      </trkpt>
      <trkpt lat="43.80289" lon="5.33655">
        <ele>450.3</ele>
        <time>2015-02-08T13:28:42Z</time>
      </trkpt>
      <trkpt lat="43.80295" lon="5.33666">
        <ele>450.2</ele>
        <time>2015-02-08T13:28:47Z</time>
      </trkpt>
      <trkpt lat="43.80303" lon="5.33676">
        <ele>450.4</ele>
        <time>2015-02-08T13:28:51Z</time>
      </trkpt>
      <trkpt lat="43.80311" lon="5.33685">
        <ele>450.8</ele>
        <time>2015-02-08T13:28:55Z</time>
      </trkpt>
      <trkpt lat="43.80319" lon="5.33691">
        <ele>451.6</ele>
        <time>2015-02-08T13:29:03Z</time>
      </trkpt>
      <trkpt lat="43.80327" lon="5.337">
        <ele>452.3</ele>
        <time>2015-02-08T13:29:10Z</time>
      </trkpt>
      <trkpt lat="43.80334" lon="5.33708">
        <ele>453</ele>
        <time>2015-02-08T13:29:19Z</time>
      </trkpt>
      <trkpt lat="43.80343" lon="5.33715">
        <ele>453.5</ele>
        <time>2015-02-08T13:29:22Z</time>
      </trkpt>
      <trkpt lat="43.8035" lon="5.33724">
        <ele>454.3</ele>
        <time>2015-02-08T13:29:30Z</time>
      </trkpt>
      <trkpt lat="43.80358" lon="5.33732">
        <ele>454.8</ele>
        <time>2015-02-08T13:29:39Z</time>
      </trkpt>
      <trkpt lat="43.80367" lon="5.33728">
        <ele>454.4</ele>
        <time>2015-02-08T13:29:46Z</time>
      </trkpt>
      <trkpt lat="43.80375" lon="5.33722">
        <ele>454</ele>
        <time>2015-02-08T13:29:52Z</time>
      </trkpt>
      <trkpt lat="43.80381" lon="5.33711">
        <ele>453</ele>
        <time>2015-02-08T13:29:57Z</time>
      </trkpt>
      <trkpt lat="43.80385" lon="5.33698">
        <ele>452.1</ele>
        <time>2015-02-08T13:30:03Z</time>
      </trkpt>
      <trkpt lat="43.80387" lon="5.33685">
        <ele>450.6</ele>
        <time>2015-02-08T13:30:11Z</time>
      </trkpt>
      <trkpt lat="43.80392" lon="5.33673">
        <ele>449.4</ele>
        <time>2015-02-08T13:30:18Z</time>
      </trkpt>
      <trkpt lat="43.80398" lon="5.33663">
        <ele>448.6</ele>
        <time>2015-02-08T13:30:24Z</time>
      </trkpt>
      <trkpt lat="43.80402" lon="5.3365">
        <ele>447.6</ele>
        <time>2015-02-08T13:30:29Z</time>
      </trkpt>
      <trkpt lat="43.80406" lon="5.33637">
        <ele>446</ele>
        <time>2015-02-08T13:30:37Z</time>
      </trkpt>
      <trkpt lat="43.80409" lon="5.33625">
        <ele>444.9</ele>
        <time>2015-02-08T13:30:45Z</time>
      </trkpt>
      <trkpt lat="43.80411" lon="5.33612">
        <ele>443.9</ele>
        <time>2015-02-08T13:30:51Z</time>
      </trkpt>
      <trkpt lat="43.80412" lon="5.33599">
        <ele>442.7</ele>
        <time>2015-02-08T13:30:58Z</time>
      </trkpt>
      <trkpt lat="43.80413" lon="5.33586">
        <ele>441.4</ele>
        <time>2015-02-08T13:31:05Z</time>
      </trkpt>
      <trkpt lat="43.80416" lon="5.33572">
        <ele>439.9</ele>
        <time>2015-02-08T13:31:12Z</time>
      </trkpt>
      <trkpt lat="43.80419" lon="5.3356">
        <ele>438.4</ele>
        <time>2015-02-08T13:31:19Z</time>
      </trkpt>
      <trkpt lat="43.80422" lon="5.33547">
        <ele>436.7</ele>
        <time>2015-02-08T13:31:26Z</time>
      </trkpt>
      <trkpt lat="43.80425" lon="5.33535">
        <ele>435.4</ele>
        <time>2015-02-08T13:31:31Z</time>
      </trkpt>
      <trkpt lat="43.8043" lon="5.33524">
        <ele>433.8</ele>
        <time>2015-02-08T13:31:38Z</time>
      </trkpt>
      <trkpt lat="43.80437" lon="5.33514">
        <ele>432.5</ele>
        <time>2015-02-08T13:31:45Z</time>
      </trkpt>
      <trkpt lat="43.80444" lon="5.33503">
        <ele>430.6</ele>
        <time>2015-02-08T13:31:51Z</time>
      </trkpt>
      <trkpt lat="43.8045" lon="5.33493">
        <ele>429.2</ele>
        <time>2015-02-08T13:31:56Z</time>
      </trkpt>
      <trkpt lat="43.80458" lon="5.33483">
        <ele>428.4</ele>
        <time>2015-02-08T13:32:00Z</time>
      </trkpt>
      <trkpt lat="43.80464" lon="5.33474">
        <ele>427.8</ele>
        <time>2015-02-08T13:32:05Z</time>
      </trkpt>
      <trkpt lat="43.80473" lon="5.33466">
        <ele>427.1</ele>
        <time>2015-02-08T13:32:11Z</time>
      </trkpt>
      <trkpt lat="43.8048" lon="5.33457">
        <ele>426.5</ele>
        <time>2015-02-08T13:32:18Z</time>
      </trkpt>
      <trkpt lat="43.80487" lon="5.33448">
        <ele>425.6</ele>
        <time>2015-02-08T13:32:23Z</time>
      </trkpt>
      <trkpt lat="43.80497" lon="5.33443">
        <ele>424.7</ele>
        <time>2015-02-08T13:32:30Z</time>
      </trkpt>
      <trkpt lat="43.80508" lon="5.33436">
        <ele>424</ele>
        <time>2015-02-08T13:32:34Z</time>
      </trkpt>
      <trkpt lat="43.80517" lon="5.33432">
        <ele>423.5</ele>
        <time>2015-02-08T13:32:38Z</time>
      </trkpt>
      <trkpt lat="43.80527" lon="5.33427">
        <ele>423.1</ele>
        <time>2015-02-08T13:32:42Z</time>
      </trkpt>
      <trkpt lat="43.80536" lon="5.3342">
        <ele>422.7</ele>
        <time>2015-02-08T13:32:48Z</time>
      </trkpt>
      <trkpt lat="43.80544" lon="5.33414">
        <ele>422.3</ele>
        <time>2015-02-08T13:32:54Z</time>
      </trkpt>
      <trkpt lat="43.80553" lon="5.33402">
        <ele>422.1</ele>
        <time>2015-02-08T13:32:59Z</time>
      </trkpt>
      <trkpt lat="43.80559" lon="5.33391">
        <ele>421.8</ele>
        <time>2015-02-08T13:33:04Z</time>
      </trkpt>
      <trkpt lat="43.80567" lon="5.33384">
        <ele>421.4</ele>
        <time>2015-02-08T13:33:11Z</time>
      </trkpt>
      <trkpt lat="43.80575" lon="5.33379">
        <ele>420.4</ele>
        <time>2015-02-08T13:33:18Z</time>
      </trkpt>
      <trkpt lat="43.80583" lon="5.33371">
        <ele>419.7</ele>
        <time>2015-02-08T13:33:26Z</time>
      </trkpt>
      <trkpt lat="43.8059" lon="5.33362">
        <ele>419</ele>
        <time>2015-02-08T13:33:32Z</time>
      </trkpt>
      <trkpt lat="43.80598" lon="5.33355">
        <ele>418.5</ele>
        <time>2015-02-08T13:33:38Z</time>
      </trkpt>
      <trkpt lat="43.80606" lon="5.33349">
        <ele>418.2</ele>
        <time>2015-02-08T13:33:44Z</time>
      </trkpt>
      <trkpt lat="43.80614" lon="5.33341">
        <ele>417.8</ele>
        <time>2015-02-08T13:33:51Z</time>
      </trkpt>
      <trkpt lat="43.80621" lon="5.33332">
        <ele>417.5</ele>
        <time>2015-02-08T13:33:57Z</time>
      </trkpt>
      <trkpt lat="43.8063" lon="5.33326">
        <ele>417.3</ele>
        <time>2015-02-08T13:34:02Z</time>
      </trkpt>
      <trkpt lat="43.80639" lon="5.33321">
        <ele>417.1</ele>
        <time>2015-02-08T13:34:07Z</time>
      </trkpt>
      <trkpt lat="43.80647" lon="5.33314">
        <ele>416.9</ele>
        <time>2015-02-08T13:34:13Z</time>
      </trkpt>
      <trkpt lat="43.80655" lon="5.33307">
        <ele>416.2</ele>
        <time>2015-02-08T13:34:19Z</time>
      </trkpt>
      <trkpt lat="43.80663" lon="5.333">
        <ele>415.4</ele>
        <time>2015-02-08T13:34:25Z</time>
      </trkpt>
      <trkpt lat="43.8067" lon="5.3329">
        <ele>414.3</ele>
        <time>2015-02-08T13:34:32Z</time>
      </trkpt>
      <trkpt lat="43.80676" lon="5.33279">
        <ele>413.3</ele>
        <time>2015-02-08T13:34:39Z</time>
      </trkpt>
      <trkpt lat="43.80684" lon="5.33271">
        <ele>412.9</ele>
        <time>2015-02-08T13:34:46Z</time>
      </trkpt>
      <trkpt lat="43.80693" lon="5.33263">
        <ele>412.7</ele>
        <time>2015-02-08T13:34:51Z</time>
      </trkpt>
      <trkpt lat="43.80699" lon="5.33254">
        <ele>412.5</ele>
        <time>2015-02-08T13:34:56Z</time>
      </trkpt>
      <trkpt lat="43.80704" lon="5.33244">
        <ele>412</ele>
        <time>2015-02-08T13:35:02Z</time>
      </trkpt>
      <trkpt lat="43.80709" lon="5.33233">
        <ele>411.5</ele>
        <time>2015-02-08T13:35:07Z</time>
      </trkpt>
      <trkpt lat="43.80712" lon="5.33221">
        <ele>411</ele>
        <time>2015-02-08T13:35:12Z</time>
      </trkpt>
      <trkpt lat="43.80715" lon="5.33209">
        <ele>410.7</ele>
        <time>2015-02-08T13:35:17Z</time>
      </trkpt>
      <trkpt lat="43.8072" lon="5.33195">
        <ele>410.1</ele>
        <time>2015-02-08T13:35:23Z</time>
      </trkpt>
      <trkpt lat="43.80726" lon="5.33185">
        <ele>409.1</ele>
        <time>2015-02-08T13:35:28Z</time>
      </trkpt>
      <trkpt lat="43.80735" lon="5.33177">
        <ele>408.4</ele>
        <time>2015-02-08T13:35:34Z</time>
      </trkpt>
      <trkpt lat="43.80741" lon="5.33167">
        <ele>407.4</ele>
        <time>2015-02-08T13:35:39Z</time>
      </trkpt>
      <trkpt lat="43.80747" lon="5.33156">
        <ele>406.5</ele>
        <time>2015-02-08T13:35:46Z</time>
      </trkpt>
      <trkpt lat="43.80751" lon="5.33143">
        <ele>406.1</ele>
        <time>2015-02-08T13:35:52Z</time>
      </trkpt>
      <trkpt lat="43.80758" lon="5.33133">
        <ele>405.6</ele>
        <time>2015-02-08T13:35:58Z</time>
      </trkpt>
      <trkpt lat="43.80765" lon="5.33123">
        <ele>404.9</ele>
        <time>2015-02-08T13:36:04Z</time>
      </trkpt>
      <trkpt lat="43.80773" lon="5.33114">
        <ele>404.1</ele>
        <time>2015-02-08T13:36:10Z</time>
      </trkpt>
      <trkpt lat="43.80779" lon="5.33104">
        <ele>403</ele>
        <time>2015-02-08T13:36:19Z</time>
      </trkpt>
      <trkpt lat="43.80784" lon="5.33093">
        <ele>402.3</ele>
        <time>2015-02-08T13:36:25Z</time>
      </trkpt>
      <trkpt lat="43.8079" lon="5.33083">
        <ele>401.4</ele>
        <time>2015-02-08T13:36:31Z</time>
      </trkpt>
      <trkpt lat="43.80797" lon="5.33072">
        <ele>400.4</ele>
        <time>2015-02-08T13:36:38Z</time>
      </trkpt>
      <trkpt lat="43.80799" lon="5.33059">
        <ele>399.6</ele>
        <time>2015-02-08T13:36:44Z</time>
      </trkpt>
      <trkpt lat="43.80805" lon="5.33048">
        <ele>398.8</ele>
        <time>2015-02-08T13:36:49Z</time>
      </trkpt>
      <trkpt lat="43.80813" lon="5.33042">
        <ele>398.1</ele>
        <time>2015-02-08T13:36:54Z</time>
      </trkpt>
      <trkpt lat="43.80824" lon="5.33036">
        <ele>397.5</ele>
        <time>2015-02-08T13:36:59Z</time>
      </trkpt>
      <trkpt lat="43.80834" lon="5.33028">
        <ele>397</ele>
        <time>2015-02-08T13:37:02Z</time>
      </trkpt>
      <trkpt lat="43.80844" lon="5.3302">
        <ele>396.6</ele>
        <time>2015-02-08T13:37:06Z</time>
      </trkpt>
      <trkpt lat="43.80853" lon="5.33014">
        <ele>396.6</ele>
        <time>2015-02-08T13:37:09Z</time>
      </trkpt>
      <trkpt lat="43.80861" lon="5.33006">
        <ele>396.3</ele>
        <time>2015-02-08T13:37:12Z</time>
      </trkpt>
      <trkpt lat="43.80867" lon="5.32995">
        <ele>396.1</ele>
        <time>2015-02-08T13:37:15Z</time>
      </trkpt>
      <trkpt lat="43.80873" lon="5.32983">
        <ele>395.9</ele>
        <time>2015-02-08T13:37:19Z</time>
      </trkpt>
      <trkpt lat="43.80876" lon="5.3297">
        <ele>395.5</ele>
        <time>2015-02-08T13:37:25Z</time>
      </trkpt>
      <trkpt lat="43.80881" lon="5.32959">
        <ele>395.4</ele>
        <time>2015-02-08T13:37:29Z</time>
      </trkpt>
      <trkpt lat="43.80887" lon="5.32949">
        <ele>394.5</ele>
        <time>2015-02-08T13:37:35Z</time>
      </trkpt>
      <trkpt lat="43.80893" lon="5.32936">
        <ele>393.8</ele>
        <time>2015-02-08T13:37:41Z</time>
      </trkpt>
      <trkpt lat="43.80897" lon="5.32924">
        <ele>392.8</ele>
        <time>2015-02-08T13:37:48Z</time>
      </trkpt>
      <trkpt lat="43.80902" lon="5.32911">
        <ele>391.5</ele>
        <time>2015-02-08T13:37:55Z</time>
      </trkpt>
      <trkpt lat="43.80909" lon="5.32901">
        <ele>390</ele>
        <time>2015-02-08T13:38:02Z</time>
      </trkpt>
      <trkpt lat="43.80914" lon="5.32888">
        <ele>388.7</ele>
        <time>2015-02-08T13:38:09Z</time>
      </trkpt>
      <trkpt lat="43.80916" lon="5.32875">
        <ele>387.4</ele>
        <time>2015-02-08T13:38:14Z</time>
      </trkpt>
      <trkpt lat="43.80916" lon="5.32861">
        <ele>385.8</ele>
        <time>2015-02-08T13:38:20Z</time>
      </trkpt>
      <trkpt lat="43.80908" lon="5.32854">
        <ele>384.1</ele>
        <time>2015-02-08T13:38:29Z</time>
      </trkpt>
      <trkpt lat="43.80899" lon="5.32848">
        <ele>383.4</ele>
        <time>2015-02-08T13:38:34Z</time>
      </trkpt>
      <trkpt lat="43.80892" lon="5.32839">
        <ele>383.2</ele>
        <time>2015-02-08T13:38:40Z</time>
      </trkpt>
      <trkpt lat="43.80882" lon="5.32834">
        <ele>383</ele>
        <time>2015-02-08T13:38:45Z</time>
      </trkpt>
      <trkpt lat="43.80873" lon="5.32828">
        <ele>382.4</ele>
        <time>2015-02-08T13:38:51Z</time>
      </trkpt>
      <trkpt lat="43.80864" lon="5.32823">
        <ele>382</ele>
        <time>2015-02-08T13:38:58Z</time>
      </trkpt>
      <trkpt lat="43.80853" lon="5.32817">
        <ele>382</ele>
        <time>2015-02-08T13:39:03Z</time>
      </trkpt>
      <trkpt lat="43.80844" lon="5.32814">
        <ele>382.2</ele>
        <time>2015-02-08T13:39:08Z</time>
      </trkpt>
      <trkpt lat="43.80834" lon="5.32809">
        <ele>382.8</ele>
        <time>2015-02-08T13:39:15Z</time>
      </trkpt>
      <trkpt lat="43.80824" lon="5.32805">
        <ele>383.4</ele>
        <time>2015-02-08T13:39:21Z</time>
      </trkpt>
      <trkpt lat="43.80818" lon="5.32794">
        <ele>384.2</ele>
        <time>2015-02-08T13:39:26Z</time>
      </trkpt>
      <trkpt lat="43.80814" lon="5.32781">
        <ele>385</ele>
        <time>2015-02-08T13:39:31Z</time>
      </trkpt>
      <trkpt lat="43.80808" lon="5.3277">
        <ele>385.8</ele>
        <time>2015-02-08T13:39:37Z</time>
      </trkpt>
      <trkpt lat="43.80799" lon="5.32763">
        <ele>386.8</ele>
        <time>2015-02-08T13:39:43Z</time>
      </trkpt>
      <trkpt lat="43.80792" lon="5.32753">
        <ele>387.7</ele>
        <time>2015-02-08T13:39:49Z</time>
      </trkpt>
      <trkpt lat="43.80782" lon="5.32745">
        <ele>388.8</ele>
        <time>2015-02-08T13:39:56Z</time>
      </trkpt>
      <trkpt lat="43.80773" lon="5.32741">
        <ele>389.4</ele>
        <time>2015-02-08T13:40:01Z</time>
      </trkpt>
      <trkpt lat="43.80764" lon="5.3274">
        <ele>390</ele>
        <time>2015-02-08T13:40:06Z</time>
      </trkpt>
      <trkpt lat="43.80755" lon="5.32739">
        <ele>390.6</ele>
        <time>2015-02-08T13:40:11Z</time>
      </trkpt>
      <trkpt lat="43.80746" lon="5.32735">
        <ele>391.4</ele>
        <time>2015-02-08T13:40:17Z</time>
      </trkpt>
      <trkpt lat="43.80736" lon="5.32731">
        <ele>392.5</ele>
        <time>2015-02-08T13:40:25Z</time>
      </trkpt>
      <trkpt lat="43.80727" lon="5.32725">
        <ele>392.9</ele>
        <time>2015-02-08T13:40:31Z</time>
      </trkpt>
      <trkpt lat="43.80718" lon="5.32722">
        <ele>393</ele>
        <time>2015-02-08T13:40:37Z</time>
      </trkpt>
      <trkpt lat="43.80709" lon="5.32717">
        <ele>393.3</ele>
        <time>2015-02-08T13:40:43Z</time>
      </trkpt>
      <trkpt lat="43.80706" lon="5.32703">
        <ele>393.8</ele>
        <time>2015-02-08T13:40:49Z</time>
      </trkpt>
      <trkpt lat="43.80703" lon="5.32689">
        <ele>394.3</ele>
        <time>2015-02-08T13:40:56Z</time>
      </trkpt>
      <trkpt lat="43.80699" lon="5.32678">
        <ele>394.6</ele>
        <time>2015-02-08T13:41:01Z</time>
      </trkpt>
      <trkpt lat="43.8069" lon="5.32673">
        <ele>395.2</ele>
        <time>2015-02-08T13:41:07Z</time>
      </trkpt>
      <trkpt lat="43.80681" lon="5.32671">
        <ele>396.1</ele>
        <time>2015-02-08T13:41:12Z</time>
      </trkpt>
      <trkpt lat="43.80669" lon="5.32671">
        <ele>396.9</ele>
        <time>2015-02-08T13:41:16Z</time>
      </trkpt>
      <trkpt lat="43.8066" lon="5.3267">
        <ele>399.5</ele>
        <time>2015-02-08T13:41:23Z</time>
      </trkpt>
      <trkpt lat="43.80652" lon="5.32662">
        <ele>400.9</ele>
        <time>2015-02-08T13:41:29Z</time>
      </trkpt>
      <trkpt lat="43.80651" lon="5.32649">
        <ele>402.3</ele>
        <time>2015-02-08T13:41:35Z</time>
      </trkpt>
      <trkpt lat="43.8065" lon="5.32636">
        <ele>403.7</ele>
        <time>2015-02-08T13:41:41Z</time>
      </trkpt>
      <trkpt lat="43.8065" lon="5.32621">
        <ele>405.1</ele>
        <time>2015-02-08T13:41:47Z</time>
      </trkpt>
      <trkpt lat="43.80647" lon="5.32609">
        <ele>406.6</ele>
        <time>2015-02-08T13:41:53Z</time>
      </trkpt>
      <trkpt lat="43.80642" lon="5.32596">
        <ele>408</ele>
        <time>2015-02-08T13:42:00Z</time>
      </trkpt>
      <trkpt lat="43.80638" lon="5.32585">
        <ele>409.5</ele>
        <time>2015-02-08T13:42:07Z</time>
      </trkpt>
      <trkpt lat="43.80631" lon="5.32574">
        <ele>411</ele>
        <time>2015-02-08T13:42:14Z</time>
      </trkpt>
      <trkpt lat="43.80624" lon="5.32565">
        <ele>412.9</ele>
        <time>2015-02-08T13:42:21Z</time>
      </trkpt>
      <trkpt lat="43.80618" lon="5.32554">
        <ele>414.1</ele>
        <time>2015-02-08T13:42:27Z</time>
      </trkpt>
      <trkpt lat="43.80612" lon="5.32543">
        <ele>415.1</ele>
        <time>2015-02-08T13:42:33Z</time>
      </trkpt>
      <trkpt lat="43.80603" lon="5.32536">
        <ele>416.4</ele>
        <time>2015-02-08T13:42:40Z</time>
      </trkpt>
      <trkpt lat="43.80594" lon="5.32536">
        <ele>417.4</ele>
        <time>2015-02-08T13:42:45Z</time>
      </trkpt>
      <trkpt lat="43.80584" lon="5.32537">
        <ele>419.2</ele>
        <time>2015-02-08T13:42:53Z</time>
      </trkpt>
      <trkpt lat="43.80575" lon="5.32543">
        <ele>420.6</ele>
        <time>2015-02-08T13:43:00Z</time>
      </trkpt>
      <trkpt lat="43.80566" lon="5.3255">
        <ele>421.9</ele>
        <time>2015-02-08T13:43:06Z</time>
      </trkpt>
      <trkpt lat="43.80558" lon="5.32557">
        <ele>423.4</ele>
        <time>2015-02-08T13:43:14Z</time>
      </trkpt>
      <trkpt lat="43.80553" lon="5.32545">
        <ele>424.7</ele>
        <time>2015-02-08T13:43:20Z</time>
      </trkpt>
      <trkpt lat="43.80558" lon="5.32531">
        <ele>425.3</ele>
        <time>2015-02-08T13:43:24Z</time>
      </trkpt>
      <trkpt lat="43.80558" lon="5.32517">
        <ele>426</ele>
        <time>2015-02-08T13:43:30Z</time>
      </trkpt>
      <trkpt lat="43.80559" lon="5.32503">
        <ele>426.5</ele>
        <time>2015-02-08T13:43:37Z</time>
      </trkpt>
      <trkpt lat="43.80564" lon="5.32491">
        <ele>426.8</ele>
        <time>2015-02-08T13:43:44Z</time>
      </trkpt>
      <trkpt lat="43.80573" lon="5.3248">
        <ele>426.9</ele>
        <time>2015-02-08T13:43:50Z</time>
      </trkpt>
      <trkpt lat="43.80578" lon="5.32469">
        <ele>426.9</ele>
        <time>2015-02-08T13:43:56Z</time>
      </trkpt>
      <trkpt lat="43.80585" lon="5.3246">
        <ele>426.6</ele>
        <time>2015-02-08T13:44:02Z</time>
      </trkpt>
      <trkpt lat="43.80592" lon="5.3245">
        <ele>426.5</ele>
        <time>2015-02-08T13:44:09Z</time>
      </trkpt>
      <trkpt lat="43.80599" lon="5.32442">
        <ele>426.3</ele>
        <time>2015-02-08T13:44:15Z</time>
      </trkpt>
      <trkpt lat="43.80611" lon="5.32432">
        <ele>426.2</ele>
        <time>2015-02-08T13:44:21Z</time>
      </trkpt>
      <trkpt lat="43.8062" lon="5.32428">
        <ele>426.1</ele>
        <time>2015-02-08T13:44:27Z</time>
      </trkpt>
      <trkpt lat="43.80624" lon="5.32416">
        <ele>425.7</ele>
        <time>2015-02-08T13:44:34Z</time>
      </trkpt>
      <trkpt lat="43.8063" lon="5.32406">
        <ele>425</ele>
        <time>2015-02-08T13:44:40Z</time>
      </trkpt>
      <trkpt lat="43.80634" lon="5.32395">
        <ele>424.4</ele>
        <time>2015-02-08T13:44:45Z</time>
      </trkpt>
      <trkpt lat="43.80636" lon="5.32383">
        <ele>424</ele>
        <time>2015-02-08T13:44:50Z</time>
      </trkpt>
      <trkpt lat="43.80637" lon="5.3237">
        <ele>423.3</ele>
        <time>2015-02-08T13:44:57Z</time>
      </trkpt>
      <trkpt lat="43.80631" lon="5.32359">
        <ele>422.4</ele>
        <time>2015-02-08T13:45:05Z</time>
      </trkpt>
      <trkpt lat="43.80625" lon="5.32348">
        <ele>421.8</ele>
        <time>2015-02-08T13:45:12Z</time>
      </trkpt>
      <trkpt lat="43.80622" lon="5.32335">
        <ele>421.3</ele>
        <time>2015-02-08T13:45:19Z</time>
      </trkpt>
      <trkpt lat="43.80619" lon="5.32321">
        <ele>420.9</ele>
        <time>2015-02-08T13:45:25Z</time>
      </trkpt>
      <trkpt lat="43.80616" lon="5.32309">
        <ele>420.7</ele>
        <time>2015-02-08T13:45:31Z</time>
      </trkpt>
      <trkpt lat="43.80607" lon="5.323">
        <ele>420.5</ele>
        <time>2015-02-08T13:45:37Z</time>
      </trkpt>
      <trkpt lat="43.80605" lon="5.32287">
        <ele>419.8</ele>
        <time>2015-02-08T13:45:45Z</time>
      </trkpt>
      <trkpt lat="43.80608" lon="5.32273">
        <ele>419.3</ele>
        <time>2015-02-08T13:45:51Z</time>
      </trkpt>
      <trkpt lat="43.8061" lon="5.32261">
        <ele>419.1</ele>
        <time>2015-02-08T13:45:55Z</time>
      </trkpt>
      <trkpt lat="43.80616" lon="5.32252">
        <ele>418.6</ele>
        <time>2015-02-08T13:46:02Z</time>
      </trkpt>
      <trkpt lat="43.80623" lon="5.32242">
        <ele>418</ele>
        <time>2015-02-08T13:46:09Z</time>
      </trkpt>
      <trkpt lat="43.80628" lon="5.32232">
        <ele>417.2</ele>
        <time>2015-02-08T13:46:15Z</time>
      </trkpt>
      <trkpt lat="43.80636" lon="5.32225">
        <ele>416.3</ele>
        <time>2015-02-08T13:46:21Z</time>
      </trkpt>
      <trkpt lat="43.80649" lon="5.3223">
        <ele>415.7</ele>
        <time>2015-02-08T13:46:25Z</time>
      </trkpt>
      <trkpt lat="43.80657" lon="5.32238">
        <ele>415.1</ele>
        <time>2015-02-08T13:46:29Z</time>
      </trkpt>
      <trkpt lat="43.80664" lon="5.32248">
        <ele>414.3</ele>
        <time>2015-02-08T13:46:34Z</time>
      </trkpt>
      <trkpt lat="43.80671" lon="5.32257">
        <ele>413.6</ele>
        <time>2015-02-08T13:46:38Z</time>
      </trkpt>
      <trkpt lat="43.80676" lon="5.3227">
        <ele>412.4</ele>
        <time>2015-02-08T13:46:44Z</time>
      </trkpt>
      <trkpt lat="43.80685" lon="5.32277">
        <ele>410.8</ele>
        <time>2015-02-08T13:46:51Z</time>
      </trkpt>
      <trkpt lat="43.80694" lon="5.32275">
        <ele>408.9</ele>
        <time>2015-02-08T13:46:59Z</time>
      </trkpt>
      <trkpt lat="43.80698" lon="5.32264">
        <ele>407.6</ele>
        <time>2015-02-08T13:47:05Z</time>
      </trkpt>
      <trkpt lat="43.80697" lon="5.32251">
        <ele>406.4</ele>
        <time>2015-02-08T13:47:11Z</time>
      </trkpt>
      <trkpt lat="43.80699" lon="5.32239">
        <ele>405</ele>
        <time>2015-02-08T13:47:18Z</time>
      </trkpt>
      <trkpt lat="43.80702" lon="5.32225">
        <ele>403.4</ele>
        <time>2015-02-08T13:47:25Z</time>
      </trkpt>
      <trkpt lat="43.80708" lon="5.32214">
        <ele>402.2</ele>
        <time>2015-02-08T13:47:30Z</time>
      </trkpt>
      <trkpt lat="43.80716" lon="5.32208">
        <ele>400.5</ele>
        <time>2015-02-08T13:47:39Z</time>
      </trkpt>
      <trkpt lat="43.80725" lon="5.32206">
        <ele>399.2</ele>
        <time>2015-02-08T13:47:48Z</time>
      </trkpt>
      <trkpt lat="43.80734" lon="5.32202">
        <ele>397.6</ele>
        <time>2015-02-08T13:47:59Z</time>
      </trkpt>
      <trkpt lat="43.80744" lon="5.322">
        <ele>396.7</ele>
        <time>2015-02-08T13:48:05Z</time>
      </trkpt>
      <trkpt lat="43.80753" lon="5.32197">
        <ele>395.9</ele>
        <time>2015-02-08T13:48:11Z</time>
      </trkpt>
      <trkpt lat="43.80761" lon="5.3219">
        <ele>395.5</ele>
        <time>2015-02-08T13:48:15Z</time>
      </trkpt>
      <trkpt lat="43.8077" lon="5.32184">
        <ele>394.8</ele>
        <time>2015-02-08T13:48:19Z</time>
      </trkpt>
      <trkpt lat="43.80779" lon="5.32175">
        <ele>394.2</ele>
        <time>2015-02-08T13:48:25Z</time>
      </trkpt>
      <trkpt lat="43.80784" lon="5.32164">
        <ele>393.3</ele>
        <time>2015-02-08T13:48:32Z</time>
      </trkpt>
      <trkpt lat="43.80792" lon="5.32154">
        <ele>392.6</ele>
        <time>2015-02-08T13:48:37Z</time>
      </trkpt>
      <trkpt lat="43.80802" lon="5.32152">
        <ele>392.1</ele>
        <time>2015-02-08T13:48:41Z</time>
      </trkpt>
      <trkpt lat="43.8081" lon="5.32145">
        <ele>391.5</ele>
        <time>2015-02-08T13:48:46Z</time>
      </trkpt>
      <trkpt lat="43.80816" lon="5.32134">
        <ele>390.9</ele>
        <time>2015-02-08T13:48:51Z</time>
      </trkpt>
      <trkpt lat="43.80821" lon="5.32122">
        <ele>389.8</ele>
        <time>2015-02-08T13:48:57Z</time>
      </trkpt>
      <trkpt lat="43.80821" lon="5.32109">
        <ele>388.8</ele>
        <time>2015-02-08T13:49:04Z</time>
      </trkpt>
      <trkpt lat="43.80826" lon="5.32099">
        <ele>388.1</ele>
        <time>2015-02-08T13:49:09Z</time>
      </trkpt>
      <trkpt lat="43.80833" lon="5.32089">
        <ele>387</ele>
        <time>2015-02-08T13:49:16Z</time>
      </trkpt>
      <trkpt lat="43.80843" lon="5.32085">
        <ele>386.2</ele>
        <time>2015-02-08T13:49:25Z</time>
      </trkpt>
      <trkpt lat="43.80852" lon="5.32082">
        <ele>386.4</ele>
        <time>2015-02-08T13:49:31Z</time>
      </trkpt>
      <trkpt lat="43.80864" lon="5.32084">
        <ele>386.9</ele>
        <time>2015-02-08T13:49:37Z</time>
      </trkpt>
      <trkpt lat="43.80872" lon="5.32088">
        <ele>387.3</ele>
        <time>2015-02-08T13:49:40Z</time>
      </trkpt>
      <trkpt lat="43.80882" lon="5.32092">
        <ele>387.8</ele>
        <time>2015-02-08T13:49:43Z</time>
      </trkpt>
      <trkpt lat="43.8089" lon="5.32098">
        <ele>388.3</ele>
        <time>2015-02-08T13:49:47Z</time>
      </trkpt>
      <trkpt lat="43.80898" lon="5.32104">
        <ele>388.8</ele>
        <time>2015-02-08T13:49:51Z</time>
      </trkpt>
      <trkpt lat="43.80907" lon="5.32111">
        <ele>389.5</ele>
        <time>2015-02-08T13:49:55Z</time>
      </trkpt>
      <trkpt lat="43.80915" lon="5.32118">
        <ele>390.4</ele>
        <time>2015-02-08T13:50:00Z</time>
      </trkpt>
      <trkpt lat="43.80921" lon="5.3213">
        <ele>391.3</ele>
        <time>2015-02-08T13:50:07Z</time>
      </trkpt>
      <trkpt lat="43.80928" lon="5.32141">
        <ele>391.9</ele>
        <time>2015-02-08T13:50:12Z</time>
      </trkpt>
      <trkpt lat="43.80935" lon="5.32151">
        <ele>392.4</ele>
        <time>2015-02-08T13:50:18Z</time>
      </trkpt>
      <trkpt lat="43.80942" lon="5.32162">
        <ele>392.9</ele>
        <time>2015-02-08T13:50:24Z</time>
      </trkpt>
      <trkpt lat="43.80942" lon="5.32148">
        <ele>393.5</ele>
        <time>2015-02-08T13:50:31Z</time>
      </trkpt>
      <trkpt lat="43.80939" lon="5.32137">
        <ele>394.2</ele>
        <time>2015-02-08T13:50:36Z</time>
      </trkpt>
      <trkpt lat="43.80935" lon="5.32125">
        <ele>395.2</ele>
        <time>2015-02-08T13:50:42Z</time>
      </trkpt>
      <trkpt lat="43.80934" lon="5.32112">
        <ele>396</ele>
        <time>2015-02-08T13:50:46Z</time>
      </trkpt>
      <trkpt lat="43.80941" lon="5.32103">
        <ele>397.3</ele>
        <time>2015-02-08T13:50:51Z</time>
      </trkpt>
      <trkpt lat="43.8095" lon="5.32098">
        <ele>398.4</ele>
        <time>2015-02-08T13:50:57Z</time>
      </trkpt>
      <trkpt lat="43.80959" lon="5.32092">
        <ele>399.5</ele>
        <time>2015-02-08T13:51:03Z</time>
      </trkpt>
      <trkpt lat="43.80965" lon="5.32082">
        <ele>400.5</ele>
        <time>2015-02-08T13:51:13Z</time>
      </trkpt>
      <trkpt lat="43.80972" lon="5.3207">
        <ele>400.7</ele>
        <time>2015-02-08T13:51:20Z</time>
      </trkpt>
      <trkpt lat="43.80977" lon="5.32058">
        <ele>400.6</ele>
        <time>2015-02-08T13:51:27Z</time>
      </trkpt>
      <trkpt lat="43.80985" lon="5.3205">
        <ele>400.2</ele>
        <time>2015-02-08T13:51:37Z</time>
      </trkpt>
      <trkpt lat="43.80994" lon="5.32048">
        <ele>399.9</ele>
        <time>2015-02-08T13:51:45Z</time>
      </trkpt>
      <trkpt lat="43.81004" lon="5.32047">
        <ele>399.7</ele>
        <time>2015-02-08T13:51:51Z</time>
      </trkpt>
      <trkpt lat="43.81016" lon="5.32045">
        <ele>399.6</ele>
        <time>2015-02-08T13:51:53Z</time>
      </trkpt>
      <trkpt lat="43.81025" lon="5.32046">
        <ele>399.6</ele>
        <time>2015-02-08T13:51:56Z</time>
      </trkpt>
      <trkpt lat="43.81034" lon="5.32049">
        <ele>399.3</ele>
        <time>2015-02-08T13:52:01Z</time>
      </trkpt>
      <trkpt lat="43.81044" lon="5.32054">
        <ele>399</ele>
        <time>2015-02-08T13:52:06Z</time>
      </trkpt>
      <trkpt lat="43.81053" lon="5.32062">
        <ele>398.7</ele>
        <time>2015-02-08T13:52:11Z</time>
      </trkpt>
      <trkpt lat="43.81062" lon="5.32067">
        <ele>398.6</ele>
        <time>2015-02-08T13:52:18Z</time>
      </trkpt>
      <trkpt lat="43.81072" lon="5.32067">
        <ele>398.6</ele>
        <time>2015-02-08T13:52:23Z</time>
      </trkpt>
      <trkpt lat="43.81081" lon="5.32068">
        <ele>398.5</ele>
        <time>2015-02-08T13:52:31Z</time>
      </trkpt>
      <trkpt lat="43.8109" lon="5.32071">
        <ele>398.2</ele>
        <time>2015-02-08T13:52:38Z</time>
      </trkpt>
      <trkpt lat="43.81099" lon="5.32074">
        <ele>398</ele>
        <time>2015-02-08T13:52:43Z</time>
      </trkpt>
      <trkpt lat="43.81108" lon="5.32069">
        <ele>398.6</ele>
        <time>2015-02-08T13:52:53Z</time>
      </trkpt>
      <trkpt lat="43.81119" lon="5.32064">
        <ele>399</ele>
        <time>2015-02-08T13:52:57Z</time>
      </trkpt>
      <trkpt lat="43.8113" lon="5.32064">
        <ele>400</ele>
        <time>2015-02-08T13:53:03Z</time>
      </trkpt>
      <trkpt lat="43.8114" lon="5.32065">
        <ele>401.3</ele>
        <time>2015-02-08T13:53:09Z</time>
      </trkpt>
      <trkpt lat="43.81149" lon="5.32062">
        <ele>402.7</ele>
        <time>2015-02-08T13:53:16Z</time>
      </trkpt>
      <trkpt lat="43.81159" lon="5.3206">
        <ele>403.6</ele>
        <time>2015-02-08T13:53:21Z</time>
      </trkpt>
      <trkpt lat="43.81169" lon="5.32054">
        <ele>404.5</ele>
        <time>2015-02-08T13:53:27Z</time>
      </trkpt>
      <trkpt lat="43.81178" lon="5.32049">
        <ele>405.5</ele>
        <time>2015-02-08T13:53:32Z</time>
      </trkpt>
      <trkpt lat="43.81186" lon="5.3204">
        <ele>406.5</ele>
        <time>2015-02-08T13:53:38Z</time>
      </trkpt>
      <trkpt lat="43.81189" lon="5.32028">
        <ele>407.9</ele>
        <time>2015-02-08T13:53:47Z</time>
      </trkpt>
      <trkpt lat="43.81196" lon="5.32018">
        <ele>409.3</ele>
        <time>2015-02-08T13:53:55Z</time>
      </trkpt>
      <trkpt lat="43.81205" lon="5.3201">
        <ele>410.1</ele>
        <time>2015-02-08T13:54:03Z</time>
      </trkpt>
      <trkpt lat="43.81214" lon="5.32009">
        <ele>410.5</ele>
        <time>2015-02-08T13:54:10Z</time>
      </trkpt>
      <trkpt lat="43.81224" lon="5.32009">
        <ele>410.9</ele>
        <time>2015-02-08T13:54:17Z</time>
      </trkpt>
      <trkpt lat="43.81234" lon="5.32004">
        <ele>411.3</ele>
        <time>2015-02-08T13:54:25Z</time>
      </trkpt>
      <trkpt lat="43.81242" lon="5.31998">
        <ele>411.6</ele>
        <time>2015-02-08T13:54:30Z</time>
      </trkpt>
      <trkpt lat="43.81253" lon="5.3199">
        <ele>412.1</ele>
        <time>2015-02-08T13:54:35Z</time>
      </trkpt>
      <trkpt lat="43.8126" lon="5.31982">
        <ele>412.7</ele>
        <time>2015-02-08T13:54:41Z</time>
      </trkpt>
      <trkpt lat="43.81268" lon="5.31973">
        <ele>413.4</ele>
        <time>2015-02-08T13:54:48Z</time>
      </trkpt>
      <trkpt lat="43.81278" lon="5.31967">
        <ele>413.9</ele>
        <time>2015-02-08T13:54:54Z</time>
      </trkpt>
      <trkpt lat="43.81287" lon="5.31961">
        <ele>414.7</ele>
        <time>2015-02-08T13:55:02Z</time>
      </trkpt>
      <trkpt lat="43.81295" lon="5.31954">
        <ele>415.2</ele>
        <time>2015-02-08T13:55:07Z</time>
      </trkpt>
      <trkpt lat="43.81304" lon="5.31947">
        <ele>415.8</ele>
        <time>2015-02-08T13:55:13Z</time>
      </trkpt>
      <trkpt lat="43.81313" lon="5.31942">
        <ele>416.4</ele>
        <time>2015-02-08T13:55:18Z</time>
      </trkpt>
      <trkpt lat="43.8132" lon="5.31934">
        <ele>417.3</ele>
        <time>2015-02-08T13:55:26Z</time>
      </trkpt>
      <trkpt lat="43.81328" lon="5.31927">
        <ele>417.8</ele>
        <time>2015-02-08T13:55:33Z</time>
      </trkpt>
      <trkpt lat="43.81336" lon="5.31921">
        <ele>418.3</ele>
        <time>2015-02-08T13:55:38Z</time>
      </trkpt>
      <trkpt lat="43.81345" lon="5.31915">
        <ele>418.7</ele>
        <time>2015-02-08T13:55:44Z</time>
      </trkpt>
      <trkpt lat="43.81353" lon="5.31907">
        <ele>419.4</ele>
        <time>2015-02-08T13:55:55Z</time>
      </trkpt>
      <trkpt lat="43.81362" lon="5.31905">
        <ele>420.2</ele>
        <time>2015-02-08T13:56:06Z</time>
      </trkpt>
      <trkpt lat="43.81372" lon="5.31904">
        <ele>420.4</ele>
        <time>2015-02-08T13:56:14Z</time>
      </trkpt>
      <trkpt lat="43.81381" lon="5.31898">
        <ele>420.5</ele>
        <time>2015-02-08T13:56:23Z</time>
      </trkpt>
      <trkpt lat="43.81391" lon="5.31895">
        <ele>420.5</ele>
        <time>2015-02-08T13:56:27Z</time>
      </trkpt>
      <trkpt lat="43.81401" lon="5.31889">
        <ele>420.6</ele>
        <time>2015-02-08T13:56:31Z</time>
      </trkpt>
      <trkpt lat="43.81408" lon="5.31882">
        <ele>420.5</ele>
        <time>2015-02-08T13:56:35Z</time>
      </trkpt>
      <trkpt lat="43.81417" lon="5.31877">
        <ele>420.5</ele>
        <time>2015-02-08T13:56:38Z</time>
      </trkpt>
      <trkpt lat="43.81425" lon="5.31871">
        <ele>420.4</ele>
        <time>2015-02-08T13:56:43Z</time>
      </trkpt>
      <trkpt lat="43.81434" lon="5.31865">
        <ele>420.3</ele>
        <time>2015-02-08T13:56:51Z</time>
      </trkpt>
      <trkpt lat="43.81442" lon="5.31859">
        <ele>420.1</ele>
        <time>2015-02-08T13:57:00Z</time>
      </trkpt>
      <trkpt lat="43.81452" lon="5.31852">
        <ele>419.7</ele>
        <time>2015-02-08T13:57:06Z</time>
      </trkpt>
      <trkpt lat="43.81461" lon="5.31848">
        <ele>419.5</ele>
        <time>2015-02-08T13:57:10Z</time>
      </trkpt>
      <trkpt lat="43.8147" lon="5.31843">
        <ele>419</ele>
        <time>2015-02-08T13:57:19Z</time>
      </trkpt>
      <trkpt lat="43.81477" lon="5.31833">
        <ele>417.9</ele>
        <time>2015-02-08T13:57:26Z</time>
      </trkpt>
      <trkpt lat="43.81486" lon="5.31826">
        <ele>416.9</ele>
        <time>2015-02-08T13:57:31Z</time>
      </trkpt>
      <trkpt lat="43.81494" lon="5.31818">
        <ele>416.2</ele>
        <time>2015-02-08T13:57:37Z</time>
      </trkpt>
      <trkpt lat="43.81503" lon="5.31809">
        <ele>415.8</ele>
        <time>2015-02-08T13:57:42Z</time>
      </trkpt>
      <trkpt lat="43.8151" lon="5.31801">
        <ele>415.2</ele>
        <time>2015-02-08T13:57:48Z</time>
      </trkpt>
      <trkpt lat="43.81517" lon="5.31791">
        <ele>413.6</ele>
        <time>2015-02-08T13:57:55Z</time>
      </trkpt>
      <trkpt lat="43.81523" lon="5.31781">
        <ele>412.4</ele>
        <time>2015-02-08T13:58:02Z</time>
      </trkpt>
      <trkpt lat="43.81531" lon="5.31772">
        <ele>411.4</ele>
        <time>2015-02-08T13:58:09Z</time>
      </trkpt>
      <trkpt lat="43.81535" lon="5.31761">
        <ele>410.8</ele>
        <time>2015-02-08T13:58:15Z</time>
      </trkpt>
      <trkpt lat="43.81543" lon="5.31752">
        <ele>410.5</ele>
        <time>2015-02-08T13:58:21Z</time>
      </trkpt>
      <trkpt lat="43.81549" lon="5.31743">
        <ele>409.6</ele>
        <time>2015-02-08T13:58:27Z</time>
      </trkpt>
      <trkpt lat="43.81556" lon="5.31731">
        <ele>408.2</ele>
        <time>2015-02-08T13:58:40Z</time>
      </trkpt>
      <trkpt lat="43.81561" lon="5.3172">
        <ele>407.8</ele>
        <time>2015-02-08T13:58:45Z</time>
      </trkpt>
      <trkpt lat="43.81568" lon="5.31711">
        <ele>407</ele>
        <time>2015-02-08T13:58:51Z</time>
      </trkpt>
      <trkpt lat="43.81574" lon="5.31702">
        <ele>406.1</ele>
        <time>2015-02-08T13:58:57Z</time>
      </trkpt>
      <trkpt lat="43.81579" lon="5.3169">
        <ele>405.4</ele>
        <time>2015-02-08T13:59:02Z</time>
      </trkpt>
      <trkpt lat="43.81585" lon="5.3168">
        <ele>404.7</ele>
        <time>2015-02-08T13:59:09Z</time>
      </trkpt>
      <trkpt lat="43.81589" lon="5.31668">
        <ele>404.1</ele>
        <time>2015-02-08T13:59:16Z</time>
      </trkpt>
      <trkpt lat="43.81594" lon="5.31656">
        <ele>403.5</ele>
        <time>2015-02-08T13:59:22Z</time>
      </trkpt>
      <trkpt lat="43.81601" lon="5.31644">
        <ele>402.5</ele>
        <time>2015-02-08T13:59:42Z</time>
      </trkpt>
      <trkpt lat="43.81601" lon="5.3163">
        <ele>400.8</ele>
        <time>2015-02-08T14:01:06Z</time>
      </trkpt>
      <trkpt lat="43.81608" lon="5.31621">
        <ele>399.2</ele>
        <time>2015-02-08T14:01:24Z</time>
      </trkpt>
      <trkpt lat="43.81614" lon="5.31611">
        <ele>398.1</ele>
        <time>2015-02-08T14:01:34Z</time>
      </trkpt>
      <trkpt lat="43.8162" lon="5.316">
        <ele>397.1</ele>
        <time>2015-02-08T14:01:43Z</time>
      </trkpt>
      <trkpt lat="43.81625" lon="5.31589">
        <ele>395.3</ele>
        <time>2015-02-08T14:01:55Z</time>
      </trkpt>
      <trkpt lat="43.81629" lon="5.31577">
        <ele>393.5</ele>
        <time>2015-02-08T14:02:05Z</time>
      </trkpt>
      <trkpt lat="43.81636" lon="5.31568">
        <ele>391.1</ele>
        <time>2015-02-08T14:02:20Z</time>
      </trkpt>
      <trkpt lat="43.81653" lon="5.31556">
        <ele>386</ele>
        <time>2015-02-08T14:02:54Z</time>
      </trkpt>
      <trkpt lat="43.81659" lon="5.31547">
        <ele>385.8</ele>
        <time>2015-02-08T14:03:05Z</time>
      </trkpt>
      <trkpt lat="43.81666" lon="5.31539">
        <ele>384.1</ele>
        <time>2015-02-08T14:03:15Z</time>
      </trkpt>
      <trkpt lat="43.81672" lon="5.31528">
        <ele>382.1</ele>
        <time>2015-02-08T14:03:28Z</time>
      </trkpt>
      <trkpt lat="43.81678" lon="5.31518">
        <ele>379.4</ele>
        <time>2015-02-08T14:03:43Z</time>
      </trkpt>
      <trkpt lat="43.81686" lon="5.3151">
        <ele>377.6</ele>
        <time>2015-02-08T14:03:54Z</time>
      </trkpt>
      <trkpt lat="43.81696" lon="5.31503">
        <ele>374.2</ele>
        <time>2015-02-08T14:04:33Z</time>
      </trkpt>
      <trkpt lat="43.81701" lon="5.31492">
        <ele>372.6</ele>
        <time>2015-02-08T14:04:48Z</time>
      </trkpt>
      <trkpt lat="43.81706" lon="5.31478">
        <ele>370.7</ele>
        <time>2015-02-08T14:04:58Z</time>
      </trkpt>
      <trkpt lat="43.81711" lon="5.31468">
        <ele>369.1</ele>
        <time>2015-02-08T14:05:06Z</time>
      </trkpt>
      <trkpt lat="43.81718" lon="5.31459">
        <ele>366.8</ele>
        <time>2015-02-08T14:05:20Z</time>
      </trkpt>
      <trkpt lat="43.81723" lon="5.31448">
        <ele>365</ele>
        <time>2015-02-08T14:05:33Z</time>
      </trkpt>
      <trkpt lat="43.81729" lon="5.31439">
        <ele>362.9</ele>
        <time>2015-02-08T14:05:46Z</time>
      </trkpt>
      <trkpt lat="43.81739" lon="5.3144">
        <ele>361.1</ele>
        <time>2015-02-08T14:05:55Z</time>
      </trkpt>
      <trkpt lat="43.81746" lon="5.31432">
        <ele>359.1</ele>
        <time>2015-02-08T14:06:08Z</time>
      </trkpt>
      <trkpt lat="43.81748" lon="5.31419">
        <ele>357.9</ele>
        <time>2015-02-08T14:06:19Z</time>
      </trkpt>
      <trkpt lat="43.81752" lon="5.31408">
        <ele>357</ele>
        <time>2015-02-08T14:06:25Z</time>
      </trkpt>
      <trkpt lat="43.81757" lon="5.31397">
        <ele>355.4</ele>
        <time>2015-02-08T14:06:36Z</time>
      </trkpt>
      <trkpt lat="43.81764" lon="5.31388">
        <ele>353.7</ele>
        <time>2015-02-08T14:06:46Z</time>
      </trkpt>
      <trkpt lat="43.81769" lon="5.31378">
        <ele>351.8</ele>
        <time>2015-02-08T14:07:00Z</time>
      </trkpt>
      <trkpt lat="43.81775" lon="5.31367">
        <ele>349.8</ele>
        <time>2015-02-08T14:07:15Z</time>
      </trkpt>
      <trkpt lat="43.8178" lon="5.31357">
        <ele>347.6</ele>
        <time>2015-02-08T14:07:29Z</time>
      </trkpt>
      <trkpt lat="43.81785" lon="5.31346">
        <ele>345.7</ele>
        <time>2015-02-08T14:07:40Z</time>
      </trkpt>
      <trkpt lat="43.81788" lon="5.31334">
        <ele>344.3</ele>
        <time>2015-02-08T14:07:48Z</time>
      </trkpt>
      <trkpt lat="43.81793" lon="5.31322">
        <ele>343.2</ele>
        <time>2015-02-08T14:07:54Z</time>
      </trkpt>
      <trkpt lat="43.81798" lon="5.31311">
        <ele>341.8</ele>
        <time>2015-02-08T14:08:02Z</time>
      </trkpt>
      <trkpt lat="43.81805" lon="5.31301">
        <ele>340.2</ele>
        <time>2015-02-08T14:08:11Z</time>
      </trkpt>
      <trkpt lat="43.8181" lon="5.31292">
        <ele>338.8</ele>
        <time>2015-02-08T14:08:19Z</time>
      </trkpt>
      <trkpt lat="43.81818" lon="5.31283">
        <ele>337.8</ele>
        <time>2015-02-08T14:08:26Z</time>
      </trkpt>
      <trkpt lat="43.81825" lon="5.31274">
        <ele>336.6</ele>
        <time>2015-02-08T14:08:40Z</time>
      </trkpt>
      <trkpt lat="43.81828" lon="5.31262">
        <ele>337.4</ele>
        <time>2015-02-08T14:10:04Z</time>
      </trkpt>
      <trkpt lat="43.81832" lon="5.31249">
        <ele>336.8</ele>
        <time>2015-02-08T14:10:12Z</time>
      </trkpt>
      <trkpt lat="43.8184" lon="5.31239">
        <ele>336.1</ele>
        <time>2015-02-08T14:10:18Z</time>
      </trkpt>
      <trkpt lat="43.81845" lon="5.31228">
        <ele>335.2</ele>
        <time>2015-02-08T14:10:26Z</time>
      </trkpt>
      <trkpt lat="43.81851" lon="5.31218">
        <ele>334.4</ele>
        <time>2015-02-08T14:10:34Z</time>
      </trkpt>
      <trkpt lat="43.81859" lon="5.31213">
        <ele>333.9</ele>
        <time>2015-02-08T14:10:41Z</time>
      </trkpt>
      <trkpt lat="43.81867" lon="5.31204">
        <ele>333.6</ele>
        <time>2015-02-08T14:10:46Z</time>
      </trkpt>
      <trkpt lat="43.81874" lon="5.31197">
        <ele>332.9</ele>
        <time>2015-02-08T14:10:54Z</time>
      </trkpt>
      <trkpt lat="43.81876" lon="5.31184">
        <ele>332</ele>
        <time>2015-02-08T14:11:04Z</time>
      </trkpt>
      <trkpt lat="43.81883" lon="5.31175">
        <ele>331.3</ele>
        <time>2015-02-08T14:11:10Z</time>
      </trkpt>
      <trkpt lat="43.81891" lon="5.31166">
        <ele>330.5</ele>
        <time>2015-02-08T14:11:17Z</time>
      </trkpt>
      <trkpt lat="43.8189" lon="5.31151">
        <ele>329.5</ele>
        <time>2015-02-08T14:11:30Z</time>
      </trkpt>
      <trkpt lat="43.81889" lon="5.31138">
        <ele>328.9</ele>
        <time>2015-02-08T14:11:35Z</time>
      </trkpt>
      <trkpt lat="43.81895" lon="5.31129">
        <ele>327.9</ele>
        <time>2015-02-08T14:11:45Z</time>
      </trkpt>
      <trkpt lat="43.81897" lon="5.31115">
        <ele>327</ele>
        <time>2015-02-08T14:11:54Z</time>
      </trkpt>
      <trkpt lat="43.81903" lon="5.31106">
        <ele>326.4</ele>
        <time>2015-02-08T14:12:00Z</time>
      </trkpt>
      <trkpt lat="43.81911" lon="5.31097">
        <ele>325.8</ele>
        <time>2015-02-08T14:12:07Z</time>
      </trkpt>
      <trkpt lat="43.81918" lon="5.31089">
        <ele>325.4</ele>
        <time>2015-02-08T14:12:12Z</time>
      </trkpt>
      <trkpt lat="43.81926" lon="5.31081">
        <ele>324.9</ele>
        <time>2015-02-08T14:12:21Z</time>
      </trkpt>
      <trkpt lat="43.81933" lon="5.31073">
        <ele>324.6</ele>
        <time>2015-02-08T14:12:28Z</time>
      </trkpt>
      <trkpt lat="43.81941" lon="5.31065">
        <ele>324.8</ele>
        <time>2015-02-08T14:12:37Z</time>
      </trkpt>
      <trkpt lat="43.81949" lon="5.31056">
        <ele>325</ele>
        <time>2015-02-08T14:12:47Z</time>
      </trkpt>
      <trkpt lat="43.81957" lon="5.31048">
        <ele>324.5</ele>
        <time>2015-02-08T14:12:52Z</time>
      </trkpt>
      <trkpt lat="43.81967" lon="5.31043">
        <ele>324.2</ele>
        <time>2015-02-08T14:12:57Z</time>
      </trkpt>
      <trkpt lat="43.81974" lon="5.31035">
        <ele>323.9</ele>
        <time>2015-02-08T14:13:04Z</time>
      </trkpt>
      <trkpt lat="43.81982" lon="5.31027">
        <ele>323.6</ele>
        <time>2015-02-08T14:13:11Z</time>
      </trkpt>
      <trkpt lat="43.81989" lon="5.31016">
        <ele>323.3</ele>
        <time>2015-02-08T14:13:18Z</time>
      </trkpt>
      <trkpt lat="43.81991" lon="5.31002">
        <ele>323.2</ele>
        <time>2015-02-08T14:13:25Z</time>
      </trkpt>
      <trkpt lat="43.81997" lon="5.30993">
        <ele>322.9</ele>
        <time>2015-02-08T14:13:32Z</time>
      </trkpt>
      <trkpt lat="43.82006" lon="5.30986">
        <ele>322.6</ele>
        <time>2015-02-08T14:13:36Z</time>
      </trkpt>
      <trkpt lat="43.82011" lon="5.30976">
        <ele>321.9</ele>
        <time>2015-02-08T14:13:42Z</time>
      </trkpt>
      <trkpt lat="43.82022" lon="5.3097">
        <ele>320.9</ele>
        <time>2015-02-08T14:13:49Z</time>
      </trkpt>
      <trkpt lat="43.8203" lon="5.30962">
        <ele>319.9</ele>
        <time>2015-02-08T14:13:56Z</time>
      </trkpt>
      <trkpt lat="43.82035" lon="5.3095">
        <ele>318.8</ele>
        <time>2015-02-08T14:14:04Z</time>
      </trkpt>
      <trkpt lat="43.82045" lon="5.30946">
        <ele>318.1</ele>
        <time>2015-02-08T14:14:09Z</time>
      </trkpt>
      <trkpt lat="43.82051" lon="5.30936">
        <ele>317.5</ele>
        <time>2015-02-08T14:14:15Z</time>
      </trkpt>
      <trkpt lat="43.82057" lon="5.30926">
        <ele>316.5</ele>
        <time>2015-02-08T14:14:23Z</time>
      </trkpt>
      <trkpt lat="43.82063" lon="5.30917">
        <ele>315.7</ele>
        <time>2015-02-08T14:14:29Z</time>
      </trkpt>
      <trkpt lat="43.82073" lon="5.30911">
        <ele>314.9</ele>
        <time>2015-02-08T14:14:37Z</time>
      </trkpt>
      <trkpt lat="43.82064" lon="5.30907">
        <ele>314.4</ele>
        <time>2015-02-08T14:14:43Z</time>
      </trkpt>
      <trkpt lat="43.82054" lon="5.30906">
        <ele>314</ele>
        <time>2015-02-08T14:14:48Z</time>
      </trkpt>
      <trkpt lat="43.82045" lon="5.3091">
        <ele>313.8</ele>
        <time>2015-02-08T14:14:56Z</time>
      </trkpt>
      <trkpt lat="43.82035" lon="5.30912">
        <ele>314</ele>
        <time>2015-02-08T14:15:04Z</time>
      </trkpt>
      <trkpt lat="43.82025" lon="5.30914">
        <ele>314.3</ele>
        <time>2015-02-08T14:15:11Z</time>
      </trkpt>
      <trkpt lat="43.82018" lon="5.30923">
        <ele>314.6</ele>
        <time>2015-02-08T14:15:18Z</time>
      </trkpt>
      <trkpt lat="43.82011" lon="5.30931">
        <ele>315.2</ele>
        <time>2015-02-08T14:15:27Z</time>
      </trkpt>
      <trkpt lat="43.82009" lon="5.30946">
        <ele>316.3</ele>
        <time>2015-02-08T14:15:54Z</time>
      </trkpt>
      <trkpt lat="43.82013" lon="5.30941">
        <ele>316.7</ele>
        <time>2015-02-08T14:16:04Z</time>
      </trkpt>
    </trkseg>
  </trk>
</gpx>